﻿<?xml version="1.0" encoding="utf-8"?><gpx creator="Garmin Desktop App" version="1.1" xsi:schemaLocation="http://www.topografix.com/GPX/1/1 http://www.topografix.com/GPX/1/1/gpx.xsd http://www.garmin.com/xmlschemas/WaypointExtension/v1 http://www8.garmin.com/xmlschemas/WaypointExtensionv1.xsd http://www.garmin.com/xmlschemas/TrackPointExtension/v1 http://www.garmin.com/xmlschemas/TrackPointExtensionv1.xsd http://www.garmin.com/xmlschemas/GpxExtensions/v3 http://www8.garmin.com/xmlschemas/GpxExtensionsv3.xsd http://www.garmin.com/xmlschemas/ActivityExtension/v1 http://www8.garmin.com/xmlschemas/ActivityExtensionv1.xsd http://www.garmin.com/xmlschemas/AdventuresExtensions/v1 http://www8.garmin.com/xmlschemas/AdventuresExtensionv1.xsd http://www.garmin.com/xmlschemas/PressureExtension/v1 http://www.garmin.com/xmlschemas/PressureExtensionv1.xsd http://www.garmin.com/xmlschemas/TripExtensions/v1 http://www.garmin.com/xmlschemas/TripExtensionsv1.xsd http://www.garmin.com/xmlschemas/TripMetaDataExtensions/v1 http://www.garmin.com/xmlschemas/TripMetaDataExtensionsv1.xsd http://www.garmin.com/xmlschemas/ViaPointTransportationModeExtensions/v1 http://www.garmin.com/xmlschemas/ViaPointTransportationModeExtensionsv1.xsd http://www.garmin.com/xmlschemas/CreationTimeExtension/v1 http://www.garmin.com/xmlschemas/CreationTimeExtensionsv1.xsd http://www.garmin.com/xmlschemas/AccelerationExtension/v1 http://www.garmin.com/xmlschemas/AccelerationExtensionv1.xsd http://www.garmin.com/xmlschemas/PowerExtension/v1 http://www.garmin.com/xmlschemas/PowerExtensionv1.xsd http://www.garmin.com/xmlschemas/VideoExtension/v1 http://www.garmin.com/xmlschemas/VideoExtensionv1.xsd" xmlns="http://www.topografix.com/GPX/1/1" xmlns:xsi="http://www.w3.org/2001/XMLSchema-instance" xmlns:wptx1="http://www.garmin.com/xmlschemas/WaypointExtension/v1" xmlns:gpxtrx="http://www.garmin.com/xmlschemas/GpxExtensions/v3" xmlns:gpxtpx="http://www.garmin.com/xmlschemas/TrackPointExtension/v1" xmlns:gpxx="http://www.garmin.com/xmlschemas/GpxExtensions/v3" xmlns:trp="http://www.garmin.com/xmlschemas/TripExtensions/v1" xmlns:adv="http://www.garmin.com/xmlschemas/AdventuresExtensions/v1" xmlns:prs="http://www.garmin.com/xmlschemas/PressureExtension/v1" xmlns:tmd="http://www.garmin.com/xmlschemas/TripMetaDataExtensions/v1" xmlns:vptm="http://www.garmin.com/xmlschemas/ViaPointTransportationModeExtensions/v1" xmlns:ctx="http://www.garmin.com/xmlschemas/CreationTimeExtension/v1" xmlns:gpxacc="http://www.garmin.com/xmlschemas/AccelerationExtension/v1" xmlns:gpxpx="http://www.garmin.com/xmlschemas/PowerExtension/v1" xmlns:vidx1="http://www.garmin.com/xmlschemas/VideoExtension/v1">

  <metadata>
    <link href="http://www.garmin.com">
      <text>Garmin International</text>
    </link>
    <time>2019-02-21T08:12:04Z</time>
    <bounds maxlat="35.254443157464266" maxlon="24.074450992047787" minlat="35.237444993108511" minlon="24.030727464705706" />
  </metadata>

  <trk>
    <name>Dasiko Horio - Kroussia - Drakoulakis - Dasiko Horio 2016-06-11</name>
    <extensions>
      <gpxx:TrackExtension>
        <gpxx:DisplayColor>Cyan</gpxx:DisplayColor>
      </gpxx:TrackExtension>
    </extensions>
    <trkseg>
      <trkpt lat="35.240892469882965" lon="24.071417581290007">
        <ele>793.22000000000003</ele>
        <time>2016-06-11T05:16:14Z</time>
      </trkpt>
      <trkpt lat="35.24091862142086" lon="24.071491174399853">
        <ele>792.74000000000001</ele>
        <time>2016-06-11T05:16:26Z</time>
      </trkpt>
      <trkpt lat="35.240929266437888" lon="24.071517158299685">
        <ele>791.77999999999997</ele>
        <time>2016-06-11T05:16:30Z</time>
      </trkpt>
      <trkpt lat="35.240947203710675" lon="24.071666523814201">
        <ele>789.86000000000001</ele>
        <time>2016-06-11T05:16:42Z</time>
      </trkpt>
      <trkpt lat="35.240948544815183" lon="24.071681192144752">
        <ele>790.34000000000003</ele>
        <time>2016-06-11T05:16:43Z</time>
      </trkpt>
      <trkpt lat="35.240936977788806" lon="24.071808345615864">
        <ele>788.89999999999998</ele>
        <time>2016-06-11T05:16:54Z</time>
      </trkpt>
      <trkpt lat="35.240931948646903" lon="24.071967266499996">
        <ele>788.41999999999996</ele>
        <time>2016-06-11T05:17:07Z</time>
      </trkpt>
      <trkpt lat="35.240916861221194" lon="24.072134317830205">
        <ele>786.98000000000002</ele>
        <time>2016-06-11T05:17:20Z</time>
      </trkpt>
      <trkpt lat="35.240927757695317" lon="24.072329448536038">
        <ele>785.04999999999995</ele>
        <time>2016-06-11T05:17:34Z</time>
      </trkpt>
      <trkpt lat="35.240818038582802" lon="24.072325341403484">
        <ele>782.16999999999996</ele>
        <time>2016-06-11T05:17:50Z</time>
      </trkpt>
      <trkpt lat="35.240715444087982" lon="24.072219645604491">
        <ele>782.64999999999998</ele>
        <time>2016-06-11T05:18:03Z</time>
      </trkpt>
      <trkpt lat="35.240610837936401" lon="24.07213507220149">
        <ele>779.28999999999996</ele>
        <time>2016-06-11T05:18:15Z</time>
      </trkpt>
      <trkpt lat="35.240500951185822" lon="24.072055527940392">
        <ele>777.84000000000003</ele>
        <time>2016-06-11T05:18:29Z</time>
      </trkpt>
      <trkpt lat="35.240476978942752" lon="24.072065334767103">
        <ele>776.88</ele>
        <time>2016-06-11T05:18:32Z</time>
      </trkpt>
      <trkpt lat="35.240466753020883" lon="24.072071453556418">
        <ele>776.88</ele>
        <time>2016-06-11T05:18:33Z</time>
      </trkpt>
      <trkpt lat="35.240450324490666" lon="24.07210037112236">
        <ele>775.44000000000005</ele>
        <time>2016-06-11T05:18:36Z</time>
      </trkpt>
      <trkpt lat="35.240424508228898" lon="24.072141190990806">
        <ele>774.96000000000004</ele>
        <time>2016-06-11T05:18:40Z</time>
      </trkpt>
      <trkpt lat="35.240377485752106" lon="24.0722347330302">
        <ele>774</ele>
        <time>2016-06-11T05:18:49Z</time>
      </trkpt>
      <trkpt lat="35.240345885977149" lon="24.072305392473936">
        <ele>773.03999999999996</ele>
        <time>2016-06-11T05:18:55Z</time>
      </trkpt>
      <trkpt lat="35.240338426083326" lon="24.072347637265921">
        <ele>772.08000000000004</ele>
        <time>2016-06-11T05:18:58Z</time>
      </trkpt>
      <trkpt lat="35.24033666588366" lon="24.072362389415503">
        <ele>772.55999999999995</ele>
        <time>2016-06-11T05:18:59Z</time>
      </trkpt>
      <trkpt lat="35.240332391113043" lon="24.072377560660243">
        <ele>772.08000000000004</ele>
        <time>2016-06-11T05:19:00Z</time>
      </trkpt>
      <trkpt lat="35.240304982289672" lon="24.072489207610488">
        <ele>770.63</ele>
        <time>2016-06-11T05:19:09Z</time>
      </trkpt>
      <trkpt lat="35.240285787731409" lon="24.072561878710985">
        <ele>770.63</ele>
        <time>2016-06-11T05:19:15Z</time>
      </trkpt>
      <trkpt lat="35.240236921235919" lon="24.072767654433846">
        <ele>768.23000000000002</ele>
        <time>2016-06-11T05:19:29Z</time>
      </trkpt>
      <trkpt lat="35.240184618160129" lon="24.073006706312299">
        <ele>766.30999999999995</ele>
        <time>2016-06-11T05:19:46Z</time>
      </trkpt>
      <trkpt lat="35.240191239863634" lon="24.073198903352022">
        <ele>765.35000000000002</ele>
        <time>2016-06-11T05:19:58Z</time>
      </trkpt>
      <trkpt lat="35.240166261792183" lon="24.0732432436198">
        <ele>764.38999999999999</ele>
        <time>2016-06-11T05:20:03Z</time>
      </trkpt>
      <trkpt lat="35.240154610946774" lon="24.073247602209449">
        <ele>763.89999999999998</ele>
        <time>2016-06-11T05:20:04Z</time>
      </trkpt>
      <trkpt lat="35.240146480500698" lon="24.073253888636827">
        <ele>763.89999999999998</ele>
        <time>2016-06-11T05:20:05Z</time>
      </trkpt>
      <trkpt lat="35.240133237093687" lon="24.073261264711618">
        <ele>763.89999999999998</ele>
        <time>2016-06-11T05:20:07Z</time>
      </trkpt>
      <trkpt lat="35.24012602865696" lon="24.07325791195035">
        <ele>763.41999999999996</ele>
        <time>2016-06-11T05:20:08Z</time>
      </trkpt>
      <trkpt lat="35.240119406953454" lon="24.073256235569715">
        <ele>763.41999999999996</ele>
        <time>2016-06-11T05:20:09Z</time>
      </trkpt>
      <trkpt lat="35.240112533792853" lon="24.073251709342003">
        <ele>762.94000000000005</ele>
        <time>2016-06-11T05:20:10Z</time>
      </trkpt>
      <trkpt lat="35.240103397518396" lon="24.073244668543339">
        <ele>762.94000000000005</ele>
        <time>2016-06-11T05:20:11Z</time>
      </trkpt>
      <trkpt lat="35.240095686167479" lon="24.073235196992755">
        <ele>762.94000000000005</ele>
        <time>2016-06-11T05:20:12Z</time>
      </trkpt>
      <trkpt lat="35.240088142454624" lon="24.073225473985076">
        <ele>762.46000000000004</ele>
        <time>2016-06-11T05:20:13Z</time>
      </trkpt>
      <trkpt lat="35.239966101944447" lon="24.073138805106282">
        <ele>760.05999999999995</ele>
        <time>2016-06-11T05:20:27Z</time>
      </trkpt>
      <trkpt lat="35.23983140476048" lon="24.073107959702611">
        <ele>758.62</ele>
        <time>2016-06-11T05:20:40Z</time>
      </trkpt>
      <trkpt lat="35.239748591557145" lon="24.073101170361042">
        <ele>757.65999999999997</ele>
        <time>2016-06-11T05:20:49Z</time>
      </trkpt>
      <trkpt lat="35.239736186340451" lon="24.073100667446852">
        <ele>757.17999999999995</ele>
        <time>2016-06-11T05:20:50Z</time>
      </trkpt>
      <trkpt lat="35.239721350371838" lon="24.073101589456201">
        <ele>756.69000000000005</ele>
        <time>2016-06-11T05:20:51Z</time>
      </trkpt>
      <trkpt lat="35.23971070535481" lon="24.073100248351693">
        <ele>757.17999999999995</ele>
        <time>2016-06-11T05:20:52Z</time>
      </trkpt>
      <trkpt lat="35.239565866068006" lon="24.073102008551359">
        <ele>754.76999999999998</ele>
        <time>2016-06-11T05:21:06Z</time>
      </trkpt>
      <trkpt lat="35.239427229389548" lon="24.07309421338141">
        <ele>752.85000000000002</ele>
        <time>2016-06-11T05:21:18Z</time>
      </trkpt>
      <trkpt lat="35.239269062876701" lon="24.073074096813798">
        <ele>751.88999999999999</ele>
        <time>2016-06-11T05:21:32Z</time>
      </trkpt>
      <trkpt lat="35.239246431738138" lon="24.073076276108623">
        <ele>751.88999999999999</ele>
        <time>2016-06-11T05:21:34Z</time>
      </trkpt>
      <trkpt lat="35.239235535264015" lon="24.073073342442513">
        <ele>751.88999999999999</ele>
        <time>2016-06-11T05:21:35Z</time>
      </trkpt>
      <trkpt lat="35.239223968237638" lon="24.07307468354702">
        <ele>751.40999999999997</ele>
        <time>2016-06-11T05:21:36Z</time>
      </trkpt>
      <trkpt lat="35.239213323220611" lon="24.073078203946352">
        <ele>751.40999999999997</ele>
        <time>2016-06-11T05:21:37Z</time>
      </trkpt>
      <trkpt lat="35.239105029031634" lon="24.073112402111292">
        <ele>749.49000000000001</ele>
        <time>2016-06-11T05:21:49Z</time>
      </trkpt>
      <trkpt lat="35.239073429256678" lon="24.073158418759704">
        <ele>749</ele>
        <time>2016-06-11T05:21:54Z</time>
      </trkpt>
      <trkpt lat="35.23906622081995" lon="24.07317291945219">
        <ele>748.51999999999998</ele>
        <time>2016-06-11T05:21:55Z</time>
      </trkpt>
      <trkpt lat="35.239059515297413" lon="24.073184486478567">
        <ele>749</ele>
        <time>2016-06-11T05:21:56Z</time>
      </trkpt>
      <trkpt lat="35.239047780632973" lon="24.073258079588413">
        <ele>748.03999999999996</ele>
        <time>2016-06-11T05:22:03Z</time>
      </trkpt>
      <trkpt lat="35.23904568515718" lon="24.073278699070215">
        <ele>748.03999999999996</ele>
        <time>2016-06-11T05:22:04Z</time>
      </trkpt>
      <trkpt lat="35.239033028483391" lon="24.073338881134987">
        <ele>747.55999999999995</ele>
        <time>2016-06-11T05:22:16Z</time>
      </trkpt>
      <trkpt lat="35.239008637145162" lon="24.073371402919292">
        <ele>745.63999999999999</ele>
        <time>2016-06-11T05:22:24Z</time>
      </trkpt>
      <trkpt lat="35.238991621881723" lon="24.07337861135602">
        <ele>745.63999999999999</ele>
        <time>2016-06-11T05:22:26Z</time>
      </trkpt>
      <trkpt lat="35.238947449252009" lon="24.073417000472546">
        <ele>744.20000000000005</ele>
        <time>2016-06-11T05:22:33Z</time>
      </trkpt>
      <trkpt lat="35.238911658525467" lon="24.073496209457517">
        <ele>742.75999999999999</ele>
        <time>2016-06-11T05:22:42Z</time>
      </trkpt>
      <trkpt lat="35.238855583593249" lon="24.073582040145993">
        <ele>741.78999999999996</ele>
        <time>2016-06-11T05:22:55Z</time>
      </trkpt>
      <trkpt lat="35.238805543631315" lon="24.073700392618775">
        <ele>740.83000000000004</ele>
        <time>2016-06-11T05:23:08Z</time>
      </trkpt>
      <trkpt lat="35.238778972998261" lon="24.073765520006418">
        <ele>739.87</ele>
        <time>2016-06-11T05:23:16Z</time>
      </trkpt>
      <trkpt lat="35.238778050988913" lon="24.073788402602077">
        <ele>739.38999999999999</ele>
        <time>2016-06-11T05:23:19Z</time>
      </trkpt>
      <trkpt lat="35.238732118159533" lon="24.073876328766346">
        <ele>739.38999999999999</ele>
        <time>2016-06-11T05:23:30Z</time>
      </trkpt>
      <trkpt lat="35.238700015470386" lon="24.073978587985039">
        <ele>739.38999999999999</ele>
        <time>2016-06-11T05:23:42Z</time>
      </trkpt>
      <trkpt lat="35.238680150359869" lon="24.074062574654818">
        <ele>738.90999999999997</ele>
        <time>2016-06-11T05:23:54Z</time>
      </trkpt>
      <trkpt lat="35.238675959408283" lon="24.074080511927605">
        <ele>738.42999999999995</ele>
        <time>2016-06-11T05:23:56Z</time>
      </trkpt>
      <trkpt lat="35.238641761243343" lon="24.074168354272842">
        <ele>736.99000000000001</ele>
        <time>2016-06-11T05:24:08Z</time>
      </trkpt>
      <trkpt lat="35.238626087084413" lon="24.074208419770002">
        <ele>736.50999999999999</ele>
        <time>2016-06-11T05:24:14Z</time>
      </trkpt>
      <trkpt lat="35.238575795665383" lon="24.074288718402386">
        <ele>735.07000000000005</ele>
        <time>2016-06-11T05:24:26Z</time>
      </trkpt>
      <trkpt lat="35.23852382786572" lon="24.074358204379678">
        <ele>734.10000000000002</ele>
        <time>2016-06-11T05:24:38Z</time>
      </trkpt>
      <trkpt lat="35.238463981077075" lon="24.074414446949959">
        <ele>732.65999999999997</ele>
        <time>2016-06-11T05:24:50Z</time>
      </trkpt>
      <trkpt lat="35.238371696323156" lon="24.074422661215067">
        <ele>731.70000000000005</ele>
        <time>2016-06-11T05:25:04Z</time>
      </trkpt>
      <trkpt lat="35.238354513421655" lon="24.07441645860672">
        <ele>731.22000000000003</ele>
        <time>2016-06-11T05:25:07Z</time>
      </trkpt>
      <trkpt lat="35.238347304984927" lon="24.074397012591362">
        <ele>731.70000000000005</ele>
        <time>2016-06-11T05:25:09Z</time>
      </trkpt>
      <trkpt lat="35.238256361335516" lon="24.074388965964317">
        <ele>729.29999999999995</ele>
        <time>2016-06-11T05:25:22Z</time>
      </trkpt>
      <trkpt lat="35.238222582265735" lon="24.074377650395036">
        <ele>727.86000000000001</ele>
        <time>2016-06-11T05:25:34Z</time>
      </trkpt>
      <trkpt lat="35.238221995532513" lon="24.074323251843452">
        <ele>725.92999999999995</ele>
        <time>2016-06-11T05:25:46Z</time>
      </trkpt>
      <trkpt lat="35.23823800496757" lon="24.074248652905226">
        <ele>724.49000000000001</ele>
        <time>2016-06-11T05:26:00Z</time>
      </trkpt>
      <trkpt lat="35.238129710778594" lon="24.074283605441451">
        <ele>723.04999999999995</ele>
        <time>2016-06-11T05:26:15Z</time>
      </trkpt>
      <trkpt lat="35.238121747970581" lon="24.074295004829764">
        <ele>721.61000000000001</ele>
        <time>2016-06-11T05:26:26Z</time>
      </trkpt>
      <trkpt lat="35.238138847053051" lon="24.074273547157645">
        <ele>721.13</ele>
        <time>2016-06-11T05:26:30Z</time>
      </trkpt>
      <trkpt lat="35.238156616687775" lon="24.074249994009733">
        <ele>721.61000000000001</ele>
        <time>2016-06-11T05:26:33Z</time>
      </trkpt>
      <trkpt lat="35.23818226531148" lon="24.074202971532941">
        <ele>721.13</ele>
        <time>2016-06-11T05:26:40Z</time>
      </trkpt>
      <trkpt lat="35.238238340243697" lon="24.074110183864832">
        <ele>719.20000000000005</ele>
        <time>2016-06-11T05:26:55Z</time>
      </trkpt>
      <trkpt lat="35.23826633580029" lon="24.074042122811079">
        <ele>718.24000000000001</ele>
        <time>2016-06-11T05:27:08Z</time>
      </trkpt>
      <trkpt lat="35.238308999687433" lon="24.073973391205072">
        <ele>716.79999999999995</ele>
        <time>2016-06-11T05:27:25Z</time>
      </trkpt>
      <trkpt lat="35.238324170932174" lon="24.073914801701903">
        <ele>714.88</ele>
        <time>2016-06-11T05:27:39Z</time>
      </trkpt>
      <trkpt lat="35.238331547006965" lon="24.073794605210423">
        <ele>713.44000000000005</ele>
        <time>2016-06-11T05:27:56Z</time>
      </trkpt>
      <trkpt lat="35.238362140953541" lon="24.073683209717274">
        <ele>712.47000000000003</ele>
        <time>2016-06-11T05:28:10Z</time>
      </trkpt>
      <trkpt lat="35.23837186396122" lon="24.073584051802754">
        <ele>712.47000000000003</ele>
        <time>2016-06-11T05:28:24Z</time>
      </trkpt>
      <trkpt lat="35.2383694332093" lon="24.073496544733644">
        <ele>712.47000000000003</ele>
        <time>2016-06-11T05:28:38Z</time>
      </trkpt>
      <trkpt lat="35.238384604454041" lon="24.073377437889576">
        <ele>712.95000000000005</ele>
        <time>2016-06-11T05:28:51Z</time>
      </trkpt>
      <trkpt lat="35.238384939730167" lon="24.073254140093923">
        <ele>711.99000000000001</ele>
        <time>2016-06-11T05:29:04Z</time>
      </trkpt>
      <trkpt lat="35.238357614725828" lon="24.073142241686583">
        <ele>712.95000000000005</ele>
        <time>2016-06-11T05:29:20Z</time>
      </trkpt>
      <trkpt lat="35.238311095163226" lon="24.073034450411797">
        <ele>712.47000000000003</ele>
        <time>2016-06-11T05:29:31Z</time>
      </trkpt>
      <trkpt lat="35.238331463187933" lon="24.072996815666556">
        <ele>711.99000000000001</ele>
        <time>2016-06-11T05:29:43Z</time>
      </trkpt>
      <trkpt lat="35.238352501764894" lon="24.072946943342686">
        <ele>710.54999999999995</ele>
        <time>2016-06-11T05:29:58Z</time>
      </trkpt>
      <trkpt lat="35.23788713850081" lon="24.072670843452215">
        <ele>707.19000000000005</ele>
        <time>2016-06-11T05:30:10Z</time>
      </trkpt>
      <trkpt lat="35.237468210980296" lon="24.072382841259241">
        <ele>704.77999999999997</ele>
        <time>2016-06-11T05:30:28Z</time>
      </trkpt>
      <trkpt lat="35.237497882917523" lon="24.072377728298306">
        <ele>701.41999999999996</ele>
        <time>2016-06-11T05:30:46Z</time>
      </trkpt>
      <trkpt lat="35.237627970054746" lon="24.072222243994474">
        <ele>700.46000000000004</ele>
        <time>2016-06-11T05:31:05Z</time>
      </trkpt>
      <trkpt lat="35.237675327807665" lon="24.072223082184792">
        <ele>699.01999999999998</ele>
        <time>2016-06-11T05:31:20Z</time>
      </trkpt>
      <trkpt lat="35.23780943825841" lon="24.072296340018511">
        <ele>697.09000000000003</ele>
        <time>2016-06-11T05:31:37Z</time>
      </trkpt>
      <trkpt lat="35.237935669720173" lon="24.072371022775769">
        <ele>695.64999999999998</ele>
        <time>2016-06-11T05:31:57Z</time>
      </trkpt>
      <trkpt lat="35.238013789057732" lon="24.072376638650894">
        <ele>694.21000000000004</ele>
        <time>2016-06-11T05:32:12Z</time>
      </trkpt>
      <trkpt lat="35.23811093531549" lon="24.072364065796137">
        <ele>693.25</ele>
        <time>2016-06-11T05:32:26Z</time>
      </trkpt>
      <trkpt lat="35.23817396722734" lon="24.072319725528359">
        <ele>693.25</ele>
        <time>2016-06-11T05:33:03Z</time>
      </trkpt>
      <trkpt lat="35.238147228956223" lon="24.072408825159073">
        <ele>691.80999999999995</ele>
        <time>2016-06-11T05:33:18Z</time>
      </trkpt>
      <trkpt lat="35.238110683858395" lon="24.072386277839541">
        <ele>691.33000000000004</ele>
        <time>2016-06-11T05:33:34Z</time>
      </trkpt>
      <trkpt lat="35.238077575340867" lon="24.072213945910335">
        <ele>691.33000000000004</ele>
        <time>2016-06-11T05:33:52Z</time>
      </trkpt>
      <trkpt lat="35.238157287240028" lon="24.072168935090303">
        <ele>691.80999999999995</ele>
        <time>2016-06-11T05:34:05Z</time>
      </trkpt>
      <trkpt lat="35.238333055749536" lon="24.072129288688302">
        <ele>692.28999999999996</ele>
        <time>2016-06-11T05:34:20Z</time>
      </trkpt>
      <trkpt lat="35.238449312746525" lon="24.071968188509345">
        <ele>693.73000000000002</ele>
        <time>2016-06-11T05:34:35Z</time>
      </trkpt>
      <trkpt lat="35.238443277776241" lon="24.071911862120032">
        <ele>695.16999999999996</ele>
        <time>2016-06-11T05:34:52Z</time>
      </trkpt>
      <trkpt lat="35.238439505919814" lon="24.071912029758096">
        <ele>696.61000000000001</ele>
        <time>2016-06-11T05:35:06Z</time>
      </trkpt>
      <trkpt lat="35.238414527848363" lon="24.071838604286313">
        <ele>699.01999999999998</ele>
        <time>2016-06-11T05:35:20Z</time>
      </trkpt>
      <trkpt lat="35.238411007449031" lon="24.071837430819869">
        <ele>699.01999999999998</ele>
        <time>2016-06-11T05:35:21Z</time>
      </trkpt>
      <trkpt lat="35.238394998013973" lon="24.071812201291323">
        <ele>700.94000000000005</ele>
        <time>2016-06-11T05:35:33Z</time>
      </trkpt>
      <trkpt lat="35.238373372703791" lon="24.071780014783144">
        <ele>703.82000000000005</ele>
        <time>2016-06-11T05:35:47Z</time>
      </trkpt>
      <trkpt lat="35.23834940046072" lon="24.071717821061611">
        <ele>705.75</ele>
        <time>2016-06-11T05:36:01Z</time>
      </trkpt>
      <trkpt lat="35.238331211730838" lon="24.071723520755768">
        <ele>707.66999999999996</ele>
        <time>2016-06-11T05:36:11Z</time>
      </trkpt>
      <trkpt lat="35.23830690421164" lon="24.071782445535064">
        <ele>710.07000000000005</ele>
        <time>2016-06-11T05:36:26Z</time>
      </trkpt>
      <trkpt lat="35.238259127363563" lon="24.071817817166448">
        <ele>711.99000000000001</ele>
        <time>2016-06-11T05:36:40Z</time>
      </trkpt>
      <trkpt lat="35.238191569224" lon="24.071847824379802">
        <ele>713.91999999999996</ele>
        <time>2016-06-11T05:36:53Z</time>
      </trkpt>
      <trkpt lat="35.238127112388611" lon="24.071899456903338">
        <ele>715.84000000000003</ele>
        <time>2016-06-11T05:37:09Z</time>
      </trkpt>
      <trkpt lat="35.238078078255057" lon="24.071966847404838">
        <ele>719.20000000000005</ele>
        <time>2016-06-11T05:37:25Z</time>
      </trkpt>
      <trkpt lat="35.238050417974591" lon="24.072049492970109">
        <ele>720.64999999999998</ele>
        <time>2016-06-11T05:37:39Z</time>
      </trkpt>
      <trkpt lat="35.238024098798633" lon="24.072091905400157">
        <ele>723.04999999999995</ele>
        <time>2016-06-11T05:37:51Z</time>
      </trkpt>
      <trkpt lat="35.238005993887782" lon="24.072212688624859">
        <ele>724.97000000000003</ele>
        <time>2016-06-11T05:38:03Z</time>
      </trkpt>
      <trkpt lat="35.237967688590288" lon="24.072182262316346">
        <ele>726.40999999999997</ele>
        <time>2016-06-11T05:38:15Z</time>
      </trkpt>
      <trkpt lat="35.237929299473763" lon="24.072205983102322">
        <ele>728.34000000000003</ele>
        <time>2016-06-11T05:38:27Z</time>
      </trkpt>
      <trkpt lat="35.237889150157571" lon="24.072228195145726">
        <ele>729.77999999999997</ele>
        <time>2016-06-11T05:38:41Z</time>
      </trkpt>
      <trkpt lat="35.237882863730192" lon="24.072210425511003">
        <ele>730.74000000000001</ele>
        <time>2016-06-11T05:38:53Z</time>
      </trkpt>
      <trkpt lat="35.237880013883114" lon="24.072192572057247">
        <ele>732.17999999999995</ele>
        <time>2016-06-11T05:39:07Z</time>
      </trkpt>
      <trkpt lat="35.237814802676439" lon="24.072174215689301">
        <ele>734.10000000000002</ele>
        <time>2016-06-11T05:39:20Z</time>
      </trkpt>
      <trkpt lat="35.237843049690127" lon="24.07215946353972">
        <ele>735.54999999999995</ele>
        <time>2016-06-11T05:39:32Z</time>
      </trkpt>
      <trkpt lat="35.237758057191968" lon="24.072142113000154">
        <ele>737.95000000000005</ele>
        <time>2016-06-11T05:39:47Z</time>
      </trkpt>
      <trkpt lat="35.237710615620017" lon="24.072163067758083">
        <ele>739.38999999999999</ele>
        <time>2016-06-11T05:40:01Z</time>
      </trkpt>
      <trkpt lat="35.237671304494143" lon="24.072195505723357">
        <ele>741.78999999999996</ele>
        <time>2016-06-11T05:40:14Z</time>
      </trkpt>
      <trkpt lat="35.237672394141555" lon="24.072179328650236">
        <ele>743.24000000000001</ele>
        <time>2016-06-11T05:40:27Z</time>
      </trkpt>
      <trkpt lat="35.237630484625697" lon="24.072209084406495">
        <ele>744.67999999999995</ele>
        <time>2016-06-11T05:40:41Z</time>
      </trkpt>
      <trkpt lat="35.237542223185301" lon="24.072237247601151">
        <ele>747.55999999999995</ele>
        <time>2016-06-11T05:40:55Z</time>
      </trkpt>
      <trkpt lat="35.237497799098492" lon="24.072231212630868">
        <ele>749.49000000000001</ele>
        <time>2016-06-11T05:41:08Z</time>
      </trkpt>
      <trkpt lat="35.237514227628708" lon="24.072217382490635">
        <ele>750.45000000000005</ele>
        <time>2016-06-11T05:41:19Z</time>
      </trkpt>
      <trkpt lat="35.237563597038388" lon="24.072143873199821">
        <ele>752.85000000000002</ele>
        <time>2016-06-11T05:41:34Z</time>
      </trkpt>
      <trkpt lat="35.237559406086802" lon="24.072103388607502">
        <ele>754.76999999999998</ele>
        <time>2016-06-11T05:41:46Z</time>
      </trkpt>
      <trkpt lat="35.237495452165604" lon="24.07209056429565">
        <ele>754.76999999999998</ele>
        <time>2016-06-11T05:41:59Z</time>
      </trkpt>
      <trkpt lat="35.237444993108511" lon="24.072102969512343">
        <ele>757.65999999999997</ele>
        <time>2016-06-11T05:42:13Z</time>
      </trkpt>
      <trkpt lat="35.237455721944571" lon="24.072114452719688">
        <ele>758.13999999999999</ele>
        <time>2016-06-11T05:42:28Z</time>
      </trkpt>
      <trkpt lat="35.237467540428042" lon="24.072038596495986">
        <ele>758.13999999999999</ele>
        <time>2016-06-11T05:42:42Z</time>
      </trkpt>
      <trkpt lat="35.237539540976286" lon="24.072001632302999">
        <ele>759.10000000000002</ele>
        <time>2016-06-11T05:42:56Z</time>
      </trkpt>
      <trkpt lat="35.237583713606" lon="24.07190540805459">
        <ele>760.05999999999995</ele>
        <time>2016-06-11T05:43:12Z</time>
      </trkpt>
      <trkpt lat="35.237634591758251" lon="24.071880932897329">
        <ele>760.53999999999996</ele>
        <time>2016-06-11T05:43:23Z</time>
      </trkpt>
      <trkpt lat="35.237679686397314" lon="24.071874562650919">
        <ele>761.5</ele>
        <time>2016-06-11T05:43:34Z</time>
      </trkpt>
      <trkpt lat="35.237736348062754" lon="24.071803148835897">
        <ele>761.98000000000002</ele>
        <time>2016-06-11T05:43:46Z</time>
      </trkpt>
      <trkpt lat="35.237768283113837" lon="24.071760065853596">
        <ele>762.46000000000004</ele>
        <time>2016-06-11T05:43:51Z</time>
      </trkpt>
      <trkpt lat="35.237812204286456" lon="24.07166350632906">
        <ele>762.94000000000005</ele>
        <time>2016-06-11T05:44:03Z</time>
      </trkpt>
      <trkpt lat="35.23781631141901" lon="24.071586225181818">
        <ele>764.38999999999999</ele>
        <time>2016-06-11T05:44:15Z</time>
      </trkpt>
      <trkpt lat="35.237835589796305" lon="24.071506513282657">
        <ele>764.87</ele>
        <time>2016-06-11T05:44:27Z</time>
      </trkpt>
      <trkpt lat="35.237830560654402" lon="24.071430908516049">
        <ele>766.30999999999995</ele>
        <time>2016-06-11T05:44:40Z</time>
      </trkpt>
      <trkpt lat="35.237868949770927" lon="24.071326889097691">
        <ele>768.23000000000002</ele>
        <time>2016-06-11T05:44:52Z</time>
      </trkpt>
      <trkpt lat="35.237931394949555" lon="24.071161597967148">
        <ele>770.14999999999998</ele>
        <time>2016-06-11T05:45:04Z</time>
      </trkpt>
      <trkpt lat="35.237942794337869" lon="24.071119856089354">
        <ele>771.60000000000002</ele>
        <time>2016-06-11T05:45:16Z</time>
      </trkpt>
      <trkpt lat="35.237978752702475" lon="24.071061266586185">
        <ele>773.51999999999998</ele>
        <time>2016-06-11T05:45:31Z</time>
      </trkpt>
      <trkpt lat="35.238024350255728" lon="24.071021117269993">
        <ele>774.48000000000002</ele>
        <time>2016-06-11T05:45:43Z</time>
      </trkpt>
      <trkpt lat="35.238031055778265" lon="24.071014411747456">
        <ele>775.44000000000005</ele>
        <time>2016-06-11T05:45:53Z</time>
      </trkpt>
      <trkpt lat="35.23805620148778" lon="24.071012064814568">
        <ele>776.88</ele>
        <time>2016-06-11T05:46:06Z</time>
      </trkpt>
      <trkpt lat="35.238077323883772" lon="24.07090075314045">
        <ele>779.28999999999996</ele>
        <time>2016-06-11T05:46:18Z</time>
      </trkpt>
      <trkpt lat="35.238144043833017" lon="24.070626832544804">
        <ele>780.73000000000002</ele>
        <time>2016-06-11T05:46:30Z</time>
      </trkpt>
      <trkpt lat="35.238184528425336" lon="24.070551814511418">
        <ele>780.25</ele>
        <time>2016-06-11T05:46:45Z</time>
      </trkpt>
      <trkpt lat="35.238226354122162" lon="24.070494817569852">
        <ele>781.69000000000005</ele>
        <time>2016-06-11T05:46:57Z</time>
      </trkpt>
      <trkpt lat="35.238277483731508" lon="24.070468666031957">
        <ele>783.13</ele>
        <time>2016-06-11T05:47:09Z</time>
      </trkpt>
      <trkpt lat="35.238324841484427" lon="24.070407142862678">
        <ele>784.57000000000005</ele>
        <time>2016-06-11T05:47:22Z</time>
      </trkpt>
      <trkpt lat="35.238385694101453" lon="24.070342853665352">
        <ele>785.52999999999997</ele>
        <time>2016-06-11T05:47:34Z</time>
      </trkpt>
      <trkpt lat="35.238439673557878" lon="24.070234643295407">
        <ele>786.98000000000002</ele>
        <time>2016-06-11T05:47:49Z</time>
      </trkpt>
      <trkpt lat="35.238460209220648" lon="24.070192482322454">
        <ele>789.38</ele>
        <time>2016-06-11T05:48:04Z</time>
      </trkpt>
      <trkpt lat="35.238511757925153" lon="24.070123750716448">
        <ele>790.34000000000003</ele>
        <time>2016-06-11T05:48:17Z</time>
      </trkpt>
      <trkpt lat="35.238575208932161" lon="24.069989724084735">
        <ele>790.82000000000005</ele>
        <time>2016-06-11T05:48:32Z</time>
      </trkpt>
      <trkpt lat="35.238601695746183" lon="24.069908587262034">
        <ele>792.25999999999999</ele>
        <time>2016-06-11T05:48:44Z</time>
      </trkpt>
      <trkpt lat="35.23865525610745" lon="24.069730807095766">
        <ele>793.71000000000004</ele>
        <time>2016-06-11T05:49:00Z</time>
      </trkpt>
      <trkpt lat="35.238657100126147" lon="24.069653023034334">
        <ele>794.66999999999996</ele>
        <time>2016-06-11T05:49:14Z</time>
      </trkpt>
      <trkpt lat="35.23868165910244" lon="24.069586470723152">
        <ele>795.63</ele>
        <time>2016-06-11T05:49:26Z</time>
      </trkpt>
      <trkpt lat="35.238715438172221" lon="24.069525618106127">
        <ele>796.59000000000003</ele>
        <time>2016-06-11T05:49:40Z</time>
      </trkpt>
      <trkpt lat="35.238748379051685" lon="24.069499969482422">
        <ele>797.07000000000005</ele>
        <time>2016-06-11T05:49:53Z</time>
      </trkpt>
      <trkpt lat="35.238759694620967" lon="24.069436015561223">
        <ele>798.50999999999999</ele>
        <time>2016-06-11T05:50:05Z</time>
      </trkpt>
      <trkpt lat="35.238823732361197" lon="24.069302072748542">
        <ele>798.99000000000001</ele>
        <time>2016-06-11T05:50:18Z</time>
      </trkpt>
      <trkpt lat="35.238866815343499" lon="24.069253792986274">
        <ele>798.50999999999999</ele>
        <time>2016-06-11T05:50:28Z</time>
      </trkpt>
      <trkpt lat="35.238937390968204" lon="24.069215320050716">
        <ele>800.91999999999996</ele>
        <time>2016-06-11T05:50:41Z</time>
      </trkpt>
      <trkpt lat="35.238990532234311" lon="24.069178439676762">
        <ele>801.88</ele>
        <time>2016-06-11T05:50:52Z</time>
      </trkpt>
      <trkpt lat="35.239023137837648" lon="24.069122280925512">
        <ele>802.36000000000001</ele>
        <time>2016-06-11T05:51:04Z</time>
      </trkpt>
      <trkpt lat="35.23909698240459" lon="24.069035444408655">
        <ele>805.24000000000001</ele>
        <time>2016-06-11T05:51:18Z</time>
      </trkpt>
      <trkpt lat="35.239163534715772" lon="24.069020105525851">
        <ele>806.67999999999995</ele>
        <time>2016-06-11T05:51:30Z</time>
      </trkpt>
      <trkpt lat="35.23919421248138" lon="24.068948356434703">
        <ele>808.13</ele>
        <time>2016-06-11T05:51:41Z</time>
      </trkpt>
      <trkpt lat="35.239253053441644" lon="24.068810306489468">
        <ele>809.57000000000005</ele>
        <time>2016-06-11T05:51:57Z</time>
      </trkpt>
      <trkpt lat="35.239291610196233" lon="24.068651469424367">
        <ele>811.00999999999999</ele>
        <time>2016-06-11T05:52:10Z</time>
      </trkpt>
      <trkpt lat="35.239317426458001" lon="24.068620875477791">
        <ele>812.45000000000005</ele>
        <time>2016-06-11T05:52:21Z</time>
      </trkpt>
      <trkpt lat="35.239376267418265" lon="24.068563375622034">
        <ele>813.88999999999999</ele>
        <time>2016-06-11T05:52:35Z</time>
      </trkpt>
      <trkpt lat="35.239422367885709" lon="24.068506378680468">
        <ele>814.85000000000002</ele>
        <time>2016-06-11T05:52:49Z</time>
      </trkpt>
      <trkpt lat="35.239471737295389" lon="24.068436808884144">
        <ele>815.82000000000005</ele>
        <time>2016-06-11T05:53:03Z</time>
      </trkpt>
      <trkpt lat="35.239468133077025" lon="24.068361455574632">
        <ele>817.74000000000001</ele>
        <time>2016-06-11T05:53:15Z</time>
      </trkpt>
      <trkpt lat="35.239489004015923" lon="24.068292723968625">
        <ele>819.65999999999997</ele>
        <time>2016-06-11T05:53:28Z</time>
      </trkpt>
      <trkpt lat="35.239558406174183" lon="24.068158781155944">
        <ele>821.10000000000002</ele>
        <time>2016-06-11T05:53:40Z</time>
      </trkpt>
      <trkpt lat="35.239610206335783" lon="24.068050403147936">
        <ele>822.54999999999995</ele>
        <time>2016-06-11T05:53:52Z</time>
      </trkpt>
      <trkpt lat="35.239647421985865" lon="24.068021150305867">
        <ele>822.54999999999995</ele>
        <time>2016-06-11T05:54:04Z</time>
      </trkpt>
      <trkpt lat="35.239643650129437" lon="24.067929703742266">
        <ele>823.02999999999997</ele>
        <time>2016-06-11T05:54:16Z</time>
      </trkpt>
      <trkpt lat="35.239713555201888" lon="24.067787127569318">
        <ele>823.02999999999997</ele>
        <time>2016-06-11T05:54:27Z</time>
      </trkpt>
      <trkpt lat="35.239785639569163" lon="24.067645557224751">
        <ele>823.50999999999999</ele>
        <time>2016-06-11T05:54:41Z</time>
      </trkpt>
      <trkpt lat="35.239815311506391" lon="24.067515637725592">
        <ele>824.47000000000003</ele>
        <time>2016-06-11T05:54:56Z</time>
      </trkpt>
      <trkpt lat="35.23986510001123" lon="24.067417234182358">
        <ele>824.47000000000003</ele>
        <time>2016-06-11T05:55:08Z</time>
      </trkpt>
      <trkpt lat="35.239889994263649" lon="24.067348670214415">
        <ele>824.95000000000005</ele>
        <time>2016-06-11T05:55:22Z</time>
      </trkpt>
      <trkpt lat="35.239954199641943" lon="24.067275496199727">
        <ele>824.47000000000003</ele>
        <time>2016-06-11T05:55:35Z</time>
      </trkpt>
      <trkpt lat="35.239997282624245" lon="24.067293014377356">
        <ele>824.47000000000003</ele>
        <time>2016-06-11T05:55:46Z</time>
      </trkpt>
      <trkpt lat="35.239999378100038" lon="24.067343724891543">
        <ele>825.42999999999995</ele>
        <time>2016-06-11T05:56:03Z</time>
      </trkpt>
      <trkpt lat="35.240054111927748" lon="24.067293265834451">
        <ele>825.90999999999997</ele>
        <time>2016-06-11T05:56:15Z</time>
      </trkpt>
      <trkpt lat="35.240117898210883" lon="24.067284548655152">
        <ele>827.35000000000002</ele>
        <time>2016-06-11T05:56:29Z</time>
      </trkpt>
      <trkpt lat="35.240199202671647" lon="24.067268874496222">
        <ele>828.78999999999996</ele>
        <time>2016-06-11T05:56:41Z</time>
      </trkpt>
      <trkpt lat="35.240248655900359" lon="24.067237274721265">
        <ele>830.24000000000001</ele>
        <time>2016-06-11T05:56:52Z</time>
      </trkpt>
      <trkpt lat="35.240317555144429" lon="24.067227384075522">
        <ele>832.15999999999997</ele>
        <time>2016-06-11T05:57:04Z</time>
      </trkpt>
      <trkpt lat="35.240412354469299" lon="24.067138452082872">
        <ele>832.63999999999999</ele>
        <time>2016-06-11T05:57:17Z</time>
      </trkpt>
      <trkpt lat="35.240466753020883" lon="24.06704792752862">
        <ele>833.12</ele>
        <time>2016-06-11T05:57:29Z</time>
      </trkpt>
      <trkpt lat="35.240524839609861" lon="24.067029906436801">
        <ele>834.08000000000004</ele>
        <time>2016-06-11T05:57:41Z</time>
      </trkpt>
      <trkpt lat="35.240586781874299" lon="24.066538726910949">
        <ele>834.55999999999995</ele>
        <time>2016-06-11T05:58:12Z</time>
      </trkpt>
      <trkpt lat="35.240593235939741" lon="24.066538894549012">
        <ele>834.55999999999995</ele>
        <time>2016-06-11T05:58:31Z</time>
      </trkpt>
      <trkpt lat="35.2406523283571" lon="24.066468235105276">
        <ele>834.55999999999995</ele>
        <time>2016-06-11T05:58:45Z</time>
      </trkpt>
      <trkpt lat="35.240667080506682" lon="24.066356923431158">
        <ele>834.55999999999995</ele>
        <time>2016-06-11T05:58:59Z</time>
      </trkpt>
      <trkpt lat="35.24061175994575" lon="24.066296322271228">
        <ele>834.55999999999995</ele>
        <time>2016-06-11T05:59:12Z</time>
      </trkpt>
      <trkpt lat="35.240559121593833" lon="24.066197834908962">
        <ele>834.55999999999995</ele>
        <time>2016-06-11T05:59:27Z</time>
      </trkpt>
      <trkpt lat="35.240538837388158" lon="24.066093480214477">
        <ele>836.48000000000002</ele>
        <time>2016-06-11T05:59:42Z</time>
      </trkpt>
      <trkpt lat="35.240557277575135" lon="24.066022904589772">
        <ele>838.40999999999997</ele>
        <time>2016-06-11T05:59:56Z</time>
      </trkpt>
      <trkpt lat="35.240570185706019" lon="24.065787205472589">
        <ele>840.80999999999995</ele>
        <time>2016-06-11T06:00:12Z</time>
      </trkpt>
      <trkpt lat="35.240561468526721" lon="24.065743451938033">
        <ele>841.28999999999996</ele>
        <time>2016-06-11T06:00:26Z</time>
      </trkpt>
      <trkpt lat="35.240577729418874" lon="24.065664997324347">
        <ele>843.69000000000005</ele>
        <time>2016-06-11T06:00:39Z</time>
      </trkpt>
      <trkpt lat="35.240627769380808" lon="24.06549802981317">
        <ele>844.17999999999995</ele>
        <time>2016-06-11T06:00:52Z</time>
      </trkpt>
      <trkpt lat="35.240609580650926" lon="24.065382024273276">
        <ele>844.65999999999997</ele>
        <time>2016-06-11T06:01:05Z</time>
      </trkpt>
      <trkpt lat="35.240624668076634" lon="24.065269706770778">
        <ele>845.13999999999999</ele>
        <time>2016-06-11T06:01:21Z</time>
      </trkpt>
      <trkpt lat="35.240596085786819" lon="24.065154455602169">
        <ele>846.10000000000002</ele>
        <time>2016-06-11T06:01:35Z</time>
      </trkpt>
      <trkpt lat="35.240573706105351" lon="24.064995450899005">
        <ele>846.58000000000004</ele>
        <time>2016-06-11T06:01:48Z</time>
      </trkpt>
      <trkpt lat="35.240569096058607" lon="24.064879445359111">
        <ele>848.01999999999998</ele>
        <time>2016-06-11T06:02:02Z</time>
      </trkpt>
      <trkpt lat="35.240597510710359" lon="24.064799062907696">
        <ele>848.01999999999998</ele>
        <time>2016-06-11T06:02:12Z</time>
      </trkpt>
      <trkpt lat="35.240567168220878" lon="24.064750531688333">
        <ele>848.5</ele>
        <time>2016-06-11T06:02:18Z</time>
      </trkpt>
      <trkpt lat="35.240567000582814" lon="24.064672579988837">
        <ele>849.46000000000004</ele>
        <time>2016-06-11T06:02:33Z</time>
      </trkpt>
      <trkpt lat="35.240556271746755" lon="24.064526567235589">
        <ele>849.94000000000005</ele>
        <time>2016-06-11T06:02:49Z</time>
      </trkpt>
      <trkpt lat="35.240534730255604" lon="24.064409639686346">
        <ele>849.94000000000005</ele>
        <time>2016-06-11T06:03:02Z</time>
      </trkpt>
      <trkpt lat="35.240502124652267" lon="24.064267398789525">
        <ele>850.41999999999996</ele>
        <time>2016-06-11T06:03:17Z</time>
      </trkpt>
      <trkpt lat="35.240468513220549" lon="24.064124235883355">
        <ele>851.38</ele>
        <time>2016-06-11T06:03:33Z</time>
      </trkpt>
      <trkpt lat="35.240430124104023" lon="24.063968667760491">
        <ele>851.38</ele>
        <time>2016-06-11T06:03:50Z</time>
      </trkpt>
      <trkpt lat="35.240401038900018" lon="24.063855512067676">
        <ele>852.35000000000002</ele>
        <time>2016-06-11T06:04:03Z</time>
      </trkpt>
      <trkpt lat="35.240364409983158" lon="24.063744451850653">
        <ele>852.83000000000004</ele>
        <time>2016-06-11T06:04:18Z</time>
      </trkpt>
      <trkpt lat="35.240348568186164" lon="24.063602210953832">
        <ele>854.26999999999998</ele>
        <time>2016-06-11T06:04:32Z</time>
      </trkpt>
      <trkpt lat="35.240329457446933" lon="24.063493916764855">
        <ele>855.23000000000002</ele>
        <time>2016-06-11T06:04:46Z</time>
      </trkpt>
      <trkpt lat="35.24029802531004" lon="24.063370786607265">
        <ele>856.66999999999996</ele>
        <time>2016-06-11T06:05:03Z</time>
      </trkpt>
      <trkpt lat="35.240265252068639" lon="24.063282441347837">
        <ele>857.63</ele>
        <time>2016-06-11T06:05:16Z</time>
      </trkpt>
      <trkpt lat="35.240242872387171" lon="24.063246231526136">
        <ele>859.08000000000004</ele>
        <time>2016-06-11T06:05:27Z</time>
      </trkpt>
      <trkpt lat="35.240231137722731" lon="24.063111869618297">
        <ele>860.03999999999996</ele>
        <time>2016-06-11T06:05:41Z</time>
      </trkpt>
      <trkpt lat="35.240174056962132" lon="24.063028385862708">
        <ele>859.55999999999995</ele>
        <time>2016-06-11T06:05:53Z</time>
      </trkpt>
      <trkpt lat="35.240116389468312" lon="24.062920175492764">
        <ele>860.03999999999996</ele>
        <time>2016-06-11T06:06:08Z</time>
      </trkpt>
      <trkpt lat="35.24011286906898" lon="24.062800984829664">
        <ele>861</ele>
        <time>2016-06-11T06:06:23Z</time>
      </trkpt>
      <trkpt lat="35.240101050585508" lon="24.062653463333845">
        <ele>861.96000000000004</ele>
        <time>2016-06-11T06:06:38Z</time>
      </trkpt>
      <trkpt lat="35.240083867684007" lon="24.062551874667406">
        <ele>862.44000000000005</ele>
        <time>2016-06-11T06:06:49Z</time>
      </trkpt>
      <trkpt lat="35.240013878792524" lon="24.062455398961902">
        <ele>862.44000000000005</ele>
        <time>2016-06-11T06:07:02Z</time>
      </trkpt>
      <trkpt lat="35.239961240440607" lon="24.062384739518166">
        <ele>862.91999999999996</ele>
        <time>2016-06-11T06:07:15Z</time>
      </trkpt>
      <trkpt lat="35.239936178550124" lon="24.062339225783944">
        <ele>862.91999999999996</ele>
        <time>2016-06-11T06:07:20Z</time>
      </trkpt>
      <trkpt lat="35.239856466650963" lon="24.062222046777606">
        <ele>862.91999999999996</ele>
        <time>2016-06-11T06:07:35Z</time>
      </trkpt>
      <trkpt lat="35.239801732823253" lon="24.062157673761249">
        <ele>863.39999999999998</ele>
        <time>2016-06-11T06:07:50Z</time>
      </trkpt>
      <trkpt lat="35.239702239632607" lon="24.062105873599648">
        <ele>864.36000000000001</ele>
        <time>2016-06-11T06:08:02Z</time>
      </trkpt>
      <trkpt lat="35.239640045911074" lon="24.062021970748901">
        <ele>864.36000000000001</ele>
        <time>2016-06-11T06:08:17Z</time>
      </trkpt>
      <trkpt lat="35.239581624045968" lon="24.061956088989973">
        <ele>865.32000000000005</ele>
        <time>2016-06-11T06:08:29Z</time>
      </trkpt>
      <trkpt lat="35.239514317363501" lon="24.061897248029709">
        <ele>865.32000000000005</ele>
        <time>2016-06-11T06:08:41Z</time>
      </trkpt>
      <trkpt lat="35.239405855536461" lon="24.061831198632717">
        <ele>866.76999999999998</ele>
        <time>2016-06-11T06:08:56Z</time>
      </trkpt>
      <trkpt lat="35.239340057596564" lon="24.061740674078465">
        <ele>867.25</ele>
        <time>2016-06-11T06:09:11Z</time>
      </trkpt>
      <trkpt lat="35.239266883581877" lon="24.061671523377299">
        <ele>868.21000000000004</ele>
        <time>2016-06-11T06:09:24Z</time>
      </trkpt>
      <trkpt lat="35.239182226359844" lon="24.06158116646111">
        <ele>869.16999999999996</ele>
        <time>2016-06-11T06:09:38Z</time>
      </trkpt>
      <trkpt lat="35.239165127277374" lon="24.061461975798011">
        <ele>870.61000000000001</ele>
        <time>2016-06-11T06:09:54Z</time>
      </trkpt>
      <trkpt lat="35.239121709018946" lon="24.061371954157948">
        <ele>872.04999999999995</ele>
        <time>2016-06-11T06:10:07Z</time>
      </trkpt>
      <trkpt lat="35.239102179184556" lon="24.061293583363295">
        <ele>873.5</ele>
        <time>2016-06-11T06:10:20Z</time>
      </trkpt>
      <trkpt lat="35.239095725119114" lon="24.061184450984001">
        <ele>876.38</ele>
        <time>2016-06-11T06:10:36Z</time>
      </trkpt>
      <trkpt lat="35.239061610773206" lon="24.061105828732252">
        <ele>878.29999999999995</ele>
        <time>2016-06-11T06:10:52Z</time>
      </trkpt>
      <trkpt lat="35.239060018211603" lon="24.060975406318903">
        <ele>880.22000000000003</ele>
        <time>2016-06-11T06:11:08Z</time>
      </trkpt>
      <trkpt lat="35.239074351266026" lon="24.060936262831092">
        <ele>883.11000000000001</ele>
        <time>2016-06-11T06:11:23Z</time>
      </trkpt>
      <trkpt lat="35.239095808938146" lon="24.060885552316904">
        <ele>885.50999999999999</ele>
        <time>2016-06-11T06:11:37Z</time>
      </trkpt>
      <trkpt lat="35.239124977961183" lon="24.060780359432101">
        <ele>887.42999999999995</ele>
        <time>2016-06-11T06:11:54Z</time>
      </trkpt>
      <trkpt lat="35.239155571907759" lon="24.060670472681522">
        <ele>889.84000000000003</ele>
        <time>2016-06-11T06:12:08Z</time>
      </trkpt>
      <trkpt lat="35.239166216924787" lon="24.060530159622431">
        <ele>891.27999999999997</ele>
        <time>2016-06-11T06:12:23Z</time>
      </trkpt>
      <trkpt lat="35.239172922447324" lon="24.060392528772354">
        <ele>893.20000000000005</ele>
        <time>2016-06-11T06:12:38Z</time>
      </trkpt>
      <trkpt lat="35.239197732880712" lon="24.060233021155">
        <ele>896.09000000000003</ele>
        <time>2016-06-11T06:12:53Z</time>
      </trkpt>
      <trkpt lat="35.239200247451663" lon="24.060128582641482">
        <ele>897.52999999999997</ele>
        <time>2016-06-11T06:13:07Z</time>
      </trkpt>
      <trkpt lat="35.239201840013266" lon="24.060015678405762">
        <ele>899.92999999999995</ele>
        <time>2016-06-11T06:13:24Z</time>
      </trkpt>
      <trkpt lat="35.239225896075368" lon="24.059906462207437">
        <ele>902.33000000000004</ele>
        <time>2016-06-11T06:13:39Z</time>
      </trkpt>
      <trkpt lat="35.239255065098405" lon="24.059813423082232">
        <ele>904.25999999999999</ele>
        <time>2016-06-11T06:13:51Z</time>
      </trkpt>
      <trkpt lat="35.239254478365183" lon="24.059700518846512">
        <ele>907.13999999999999</ele>
        <time>2016-06-11T06:14:06Z</time>
      </trkpt>
      <trkpt lat="35.239271996542811" lon="24.059642599895597">
        <ele>908.58000000000004</ele>
        <time>2016-06-11T06:14:17Z</time>
      </trkpt>
      <trkpt lat="35.239271409809589" lon="24.059630781412125">
        <ele>910.50999999999999</ele>
        <time>2016-06-11T06:14:28Z</time>
      </trkpt>
      <trkpt lat="35.239282557740808" lon="24.059578645974398">
        <ele>911.95000000000005</ele>
        <time>2016-06-11T06:14:41Z</time>
      </trkpt>
      <trkpt lat="35.239281551912427" lon="24.059496587142348">
        <ele>914.83000000000004</ele>
        <time>2016-06-11T06:14:53Z</time>
      </trkpt>
      <trkpt lat="35.239244168624282" lon="24.059409080073237">
        <ele>916.75</ele>
        <time>2016-06-11T06:15:08Z</time>
      </trkpt>
      <trkpt lat="35.239256490021944" lon="24.059245297685266">
        <ele>918.67999999999995</ele>
        <time>2016-06-11T06:15:24Z</time>
      </trkpt>
      <trkpt lat="35.239242995157838" lon="24.059190144762397">
        <ele>920.60000000000002</ele>
        <time>2016-06-11T06:15:35Z</time>
      </trkpt>
      <trkpt lat="35.239260345697403" lon="24.059156281873584">
        <ele>923</ele>
        <time>2016-06-11T06:15:47Z</time>
      </trkpt>
      <trkpt lat="35.239290939643979" lon="24.059076234698296">
        <ele>924.45000000000005</ele>
        <time>2016-06-11T06:16:01Z</time>
      </trkpt>
      <trkpt lat="35.239314660429955" lon="24.059016807004809">
        <ele>925.88999999999999</ele>
        <time>2016-06-11T06:16:12Z</time>
      </trkpt>
      <trkpt lat="35.239359838888049" lon="24.058991745114326">
        <ele>926.85000000000002</ele>
        <time>2016-06-11T06:16:25Z</time>
      </trkpt>
      <trkpt lat="35.239399820566177" lon="24.05897481366992">
        <ele>928.76999999999998</ele>
        <time>2016-06-11T06:16:36Z</time>
      </trkpt>
      <trkpt lat="35.239440221339464" lon="24.058913122862577">
        <ele>931.16999999999996</ele>
        <time>2016-06-11T06:16:52Z</time>
      </trkpt>
      <trkpt lat="35.239494200795889" lon="24.058795776218176">
        <ele>932.62</ele>
        <time>2016-06-11T06:17:07Z</time>
      </trkpt>
      <trkpt lat="35.239516915753484" lon="24.058749172836542">
        <ele>935.01999999999998</ele>
        <time>2016-06-11T06:17:18Z</time>
      </trkpt>
      <trkpt lat="35.23955287411809" lon="24.058563429862261">
        <ele>937.41999999999996</ele>
        <time>2016-06-11T06:17:31Z</time>
      </trkpt>
      <trkpt lat="35.239569135010242" lon="24.058478269726038">
        <ele>938.86000000000001</ele>
        <time>2016-06-11T06:17:45Z</time>
      </trkpt>
      <trkpt lat="35.239600734785199" lon="24.058419764041901">
        <ele>939.83000000000004</ele>
        <time>2016-06-11T06:17:56Z</time>
      </trkpt>
      <trkpt lat="35.239664269611239" lon="24.058307865634561">
        <ele>941.26999999999998</ele>
        <time>2016-06-11T06:18:11Z</time>
      </trkpt>
      <trkpt lat="35.23971363902092" lon="24.058249443769455">
        <ele>942.71000000000004</ele>
        <time>2016-06-11T06:18:24Z</time>
      </trkpt>
      <trkpt lat="35.239770552143455" lon="24.058139808475971">
        <ele>943.19000000000005</ele>
        <time>2016-06-11T06:18:37Z</time>
      </trkpt>
      <trkpt lat="35.239801649004221" lon="24.058084739372134">
        <ele>944.63</ele>
        <time>2016-06-11T06:18:48Z</time>
      </trkpt>
      <trkpt lat="35.239877924323082" lon="24.05795113183558">
        <ele>946.07000000000005</ele>
        <time>2016-06-11T06:19:04Z</time>
      </trkpt>
      <trkpt lat="35.239945901557803" lon="24.057850297540426">
        <ele>946.55999999999995</ele>
        <time>2016-06-11T06:19:17Z</time>
      </trkpt>
      <trkpt lat="35.240006083622575" lon="24.057738482952118">
        <ele>946.07000000000005</ele>
        <time>2016-06-11T06:19:31Z</time>
      </trkpt>
      <trkpt lat="35.240058554336429" lon="24.057639325037599">
        <ele>947.03999999999996</ele>
        <time>2016-06-11T06:19:44Z</time>
      </trkpt>
      <trkpt lat="35.240083867684007" lon="24.05757344327867">
        <ele>947.51999999999998</ele>
        <time>2016-06-11T06:19:55Z</time>
      </trkpt>
      <trkpt lat="35.240108594298363" lon="24.057491635903716">
        <ele>947.03999999999996</ele>
        <time>2016-06-11T06:20:05Z</time>
      </trkpt>
      <trkpt lat="35.240129381418228" lon="24.057388203218579">
        <ele>947.51999999999998</ele>
        <time>2016-06-11T06:20:19Z</time>
      </trkpt>
      <trkpt lat="35.240154610946774" lon="24.057308072224259">
        <ele>948</ele>
        <time>2016-06-11T06:20:31Z</time>
      </trkpt>
      <trkpt lat="35.240198532119393" lon="24.057212518528104">
        <ele>947.03999999999996</ele>
        <time>2016-06-11T06:20:44Z</time>
      </trkpt>
      <trkpt lat="35.240223174914718" lon="24.057119060307741">
        <ele>947.51999999999998</ele>
        <time>2016-06-11T06:20:56Z</time>
      </trkpt>
      <trkpt lat="35.240277070552111" lon="24.057084443047643">
        <ele>948.48000000000002</ele>
        <time>2016-06-11T06:21:10Z</time>
      </trkpt>
      <trkpt lat="35.240304563194513" lon="24.056946896016598">
        <ele>948.96000000000004</ele>
        <time>2016-06-11T06:21:24Z</time>
      </trkpt>
      <trkpt lat="35.240320237353444" lon="24.056860059499741">
        <ele>949.44000000000005</ele>
        <time>2016-06-11T06:21:59Z</time>
      </trkpt>
      <trkpt lat="35.240347059443593" lon="24.056794345378876">
        <ele>949.91999999999996</ele>
        <time>2016-06-11T06:22:27Z</time>
      </trkpt>
      <trkpt lat="35.240399278700352" lon="24.056719746440649">
        <ele>950.39999999999998</ele>
        <time>2016-06-11T06:22:41Z</time>
      </trkpt>
      <trkpt lat="35.240429872646928" lon="24.056684290990233">
        <ele>949.91999999999996</ele>
        <time>2016-06-11T06:22:56Z</time>
      </trkpt>
      <trkpt lat="35.240450408309698" lon="24.056657217442989">
        <ele>950.88</ele>
        <time>2016-06-11T06:23:11Z</time>
      </trkpt>
      <trkpt lat="35.240469854325056" lon="24.056620169430971">
        <ele>950.88</ele>
        <time>2016-06-11T06:23:29Z</time>
      </trkpt>
      <trkpt lat="35.24052182212472" lon="24.05654582194984">
        <ele>951.36000000000001</ele>
        <time>2016-06-11T06:23:45Z</time>
      </trkpt>
      <trkpt lat="35.240539843216538" lon="24.056503660976887">
        <ele>951.36000000000001</ele>
        <time>2016-06-11T06:23:58Z</time>
      </trkpt>
      <trkpt lat="35.240579070523381" lon="24.056417411193252">
        <ele>951.84000000000003</ele>
        <time>2016-06-11T06:24:15Z</time>
      </trkpt>
      <trkpt lat="35.240632127970457" lon="24.056329736486077">
        <ele>952.79999999999995</ele>
        <time>2016-06-11T06:24:29Z</time>
      </trkpt>
      <trkpt lat="35.240715779364109" lon="24.056188417598605">
        <ele>954.25</ele>
        <time>2016-06-11T06:24:45Z</time>
      </trkpt>
      <trkpt lat="35.240803705528378" lon="24.056104766204953">
        <ele>955.21000000000004</ele>
        <time>2016-06-11T06:25:00Z</time>
      </trkpt>
      <trkpt lat="35.24088685400784" lon="24.056056318804622">
        <ele>956.16999999999996</ele>
        <time>2016-06-11T06:25:14Z</time>
      </trkpt>
      <trkpt lat="35.240956256166101" lon="24.055940732359886">
        <ele>957.61000000000001</ele>
        <time>2016-06-11T06:25:29Z</time>
      </trkpt>
      <trkpt lat="35.240964302793145" lon="24.055848699063063">
        <ele>957.61000000000001</ele>
        <time>2016-06-11T06:25:47Z</time>
      </trkpt>
      <trkpt lat="35.240996992215514" lon="24.05584660358727">
        <ele>958.09000000000003</ele>
        <time>2016-06-11T06:26:15Z</time>
      </trkpt>
      <trkpt lat="35.241094892844558" lon="24.055810645222664">
        <ele>958.09000000000003</ele>
        <time>2016-06-11T06:26:31Z</time>
      </trkpt>
      <trkpt lat="35.241186507046223" lon="24.055734034627676">
        <ele>958.57000000000005</ele>
        <time>2016-06-11T06:26:45Z</time>
      </trkpt>
      <trkpt lat="35.241265632212162" lon="24.055660190060735">
        <ele>960.00999999999999</ele>
        <time>2016-06-11T06:27:00Z</time>
      </trkpt>
      <trkpt lat="35.241322042420506" lon="24.055601265281439">
        <ele>960.49000000000001</ele>
        <time>2016-06-11T06:27:13Z</time>
      </trkpt>
      <trkpt lat="35.241375602781773" lon="24.055523062124848">
        <ele>961.46000000000004</ele>
        <time>2016-06-11T06:27:26Z</time>
      </trkpt>
      <trkpt lat="35.241412483155727" lon="24.055470507591963">
        <ele>961.94000000000005</ele>
        <time>2016-06-11T06:27:37Z</time>
      </trkpt>
      <trkpt lat="35.241484902799129" lon="24.055432705208659">
        <ele>962.89999999999998</ele>
        <time>2016-06-11T06:27:51Z</time>
      </trkpt>
      <trkpt lat="35.241472329944372" lon="24.055405044928193">
        <ele>962.41999999999996</ele>
        <time>2016-06-11T06:28:04Z</time>
      </trkpt>
      <trkpt lat="35.241519855335355" lon="24.055361626669765">
        <ele>962.89999999999998</ele>
        <time>2016-06-11T06:28:22Z</time>
      </trkpt>
      <trkpt lat="35.241595124825835" lon="24.05535894446075">
        <ele>962.89999999999998</ele>
        <time>2016-06-11T06:28:38Z</time>
      </trkpt>
      <trkpt lat="35.241631250828505" lon="24.0553511492908">
        <ele>962.41999999999996</ele>
        <time>2016-06-11T06:29:00Z</time>
      </trkpt>
      <trkpt lat="35.241685565561056" lon="24.055267414078116">
        <ele>962.41999999999996</ele>
        <time>2016-06-11T06:29:16Z</time>
      </trkpt>
      <trkpt lat="35.241721775382757" lon="24.055211003869772">
        <ele>964.82000000000005</ele>
        <time>2016-06-11T06:29:30Z</time>
      </trkpt>
      <trkpt lat="35.241795117035508" lon="24.055171106010675">
        <ele>966.74000000000001</ele>
        <time>2016-06-11T06:29:46Z</time>
      </trkpt>
      <trkpt lat="35.241821855306625" lon="24.055101787671447">
        <ele>968.66999999999996</ele>
        <time>2016-06-11T06:30:02Z</time>
      </trkpt>
      <trkpt lat="35.241867788136005" lon="24.055038504302502">
        <ele>970.59000000000003</ele>
        <time>2016-06-11T06:30:15Z</time>
      </trkpt>
      <trkpt lat="35.241897543892264" lon="24.054983351379633">
        <ele>971.54999999999995</ele>
        <time>2016-06-11T06:30:28Z</time>
      </trkpt>
      <trkpt lat="35.241927886381745" lon="24.054969353601336">
        <ele>972.99000000000001</ele>
        <time>2016-06-11T06:30:43Z</time>
      </trkpt>
      <trkpt lat="35.241991085931659" lon="24.054905064404011">
        <ele>974.90999999999997</ele>
        <time>2016-06-11T06:30:56Z</time>
      </trkpt>
      <trkpt lat="35.242056464776397" lon="24.054778749123216">
        <ele>976.84000000000003</ele>
        <time>2016-06-11T06:31:11Z</time>
      </trkpt>
      <trkpt lat="35.242115473374724" lon="24.054746814072132">
        <ele>978.75999999999999</ele>
        <time>2016-06-11T06:31:25Z</time>
      </trkpt>
      <trkpt lat="35.2421616576612" lon="24.054697277024388">
        <ele>980.20000000000005</ele>
        <time>2016-06-11T06:31:40Z</time>
      </trkpt>
      <trkpt lat="35.242198035120964" lon="24.054606165736914">
        <ele>981.63999999999999</ele>
        <time>2016-06-11T06:31:57Z</time>
      </trkpt>
      <trkpt lat="35.242250002920628" lon="24.05453659594059">
        <ele>983.57000000000005</ele>
        <time>2016-06-11T06:32:12Z</time>
      </trkpt>
      <trkpt lat="35.24228872731328" lon="24.054433666169643">
        <ele>985.97000000000003</ele>
        <time>2016-06-11T06:32:27Z</time>
      </trkpt>
      <trkpt lat="35.242313202470541" lon="24.054378345608711">
        <ele>986.92999999999995</ele>
        <time>2016-06-11T06:32:40Z</time>
      </trkpt>
      <trkpt lat="35.242341617122293" lon="24.054358815774322">
        <ele>987.88999999999999</ele>
        <time>2016-06-11T06:32:57Z</time>
      </trkpt>
      <trkpt lat="35.242359386757016" lon="24.054326629266143">
        <ele>989.80999999999995</ele>
        <time>2016-06-11T06:33:20Z</time>
      </trkpt>
      <trkpt lat="35.24240892380476" lon="24.054254544898868">
        <ele>992.22000000000003</ele>
        <time>2016-06-11T06:33:33Z</time>
      </trkpt>
      <trkpt lat="35.242465166375041" lon="24.054222190752625">
        <ele>993.17999999999995</ele>
        <time>2016-06-11T06:33:49Z</time>
      </trkpt>
      <trkpt lat="35.242567593231797" lon="24.054231746122241">
        <ele>995.58000000000004</ele>
        <time>2016-06-11T06:34:03Z</time>
      </trkpt>
      <trkpt lat="35.242612855508924" lon="24.054193273186684">
        <ele>997.01999999999998</ele>
        <time>2016-06-11T06:34:15Z</time>
      </trkpt>
      <trkpt lat="35.242658872157335" lon="24.054134180769324">
        <ele>999.42999999999995</ele>
        <time>2016-06-11T06:34:28Z</time>
      </trkpt>
      <trkpt lat="35.242684436962008" lon="24.054094115272164">
        <ele>1000.87</ele>
        <time>2016-06-11T06:34:41Z</time>
      </trkpt>
      <trkpt lat="35.242788875475526" lon="24.054086236283183">
        <ele>1002.79</ele>
        <time>2016-06-11T06:34:53Z</time>
      </trkpt>
      <trkpt lat="35.242903707548976" lon="24.053927650675178">
        <ele>1004.23</ele>
        <time>2016-06-11T06:35:06Z</time>
      </trkpt>
      <trkpt lat="35.242929439991713" lon="24.053887166082859">
        <ele>1006.16</ele>
        <time>2016-06-11T06:35:21Z</time>
      </trkpt>
      <trkpt lat="35.242927009239793" lon="24.053790271282196">
        <ele>1008.08</ele>
        <time>2016-06-11T06:35:40Z</time>
      </trkpt>
      <trkpt lat="35.24298157542944" lon="24.053704859688878">
        <ele>1009.52</ele>
        <time>2016-06-11T06:35:57Z</time>
      </trkpt>
      <trkpt lat="35.243038320913911" lon="24.053580807521939">
        <ele>1010.96</ele>
        <time>2016-06-11T06:36:09Z</time>
      </trkpt>
      <trkpt lat="35.243070004507899" lon="24.053576700389385">
        <ele>1013.37</ele>
        <time>2016-06-11T06:36:23Z</time>
      </trkpt>
      <trkpt lat="35.243095904588699" lon="24.053507130593061">
        <ele>1016.25</ele>
        <time>2016-06-11T06:36:38Z</time>
      </trkpt>
      <trkpt lat="35.243194727227092" lon="24.053479051217437">
        <ele>1016.73</ele>
        <time>2016-06-11T06:36:50Z</time>
      </trkpt>
      <trkpt lat="35.243252646178007" lon="24.053262881934643">
        <ele>1018.65</ele>
        <time>2016-06-11T06:37:04Z</time>
      </trkpt>
      <trkpt lat="35.243282234296203" lon="24.053177554160357">
        <ele>1020.58</ele>
        <time>2016-06-11T06:37:17Z</time>
      </trkpt>
      <trkpt lat="35.243341745808721" lon="24.05318601988256">
        <ele>1022.5</ele>
        <time>2016-06-11T06:37:29Z</time>
      </trkpt>
      <trkpt lat="35.243373177945614" lon="24.053085437044501">
        <ele>1023.46</ele>
        <time>2016-06-11T06:37:42Z</time>
      </trkpt>
      <trkpt lat="35.243433527648449" lon="24.053069176152349">
        <ele>1025.8599999999999</ele>
        <time>2016-06-11T06:37:56Z</time>
      </trkpt>
      <trkpt lat="35.243443083018064" lon="24.053029697388411">
        <ele>1026.3399999999999</ele>
        <time>2016-06-11T06:38:26Z</time>
      </trkpt>
      <trkpt lat="35.243460768833756" lon="24.052982088178396">
        <ele>1026.8299999999999</ele>
        <time>2016-06-11T06:38:58Z</time>
      </trkpt>
      <trkpt lat="35.243511395528913" lon="24.052999690175056">
        <ele>1028.75</ele>
        <time>2016-06-11T06:39:17Z</time>
      </trkpt>
      <trkpt lat="35.24361876770854" lon="24.052994912490249">
        <ele>1030.1900000000001</ele>
        <time>2016-06-11T06:39:30Z</time>
      </trkpt>
      <trkpt lat="35.243689175695181" lon="24.052947722375393">
        <ele>1031.6300000000001</ele>
        <time>2016-06-11T06:39:44Z</time>
      </trkpt>
      <trkpt lat="35.24371943436563" lon="24.052833560854197">
        <ele>1032.1099999999999</ele>
        <time>2016-06-11T06:40:00Z</time>
      </trkpt>
      <trkpt lat="35.243755057454109" lon="24.052769523113966">
        <ele>1032.5899999999999</ele>
        <time>2016-06-11T06:40:16Z</time>
      </trkpt>
      <trkpt lat="35.243771150708199" lon="24.052695678547025">
        <ele>1034.52</ele>
        <time>2016-06-11T06:40:29Z</time>
      </trkpt>
      <trkpt lat="35.243847174569964" lon="24.052699450403452">
        <ele>1036.4400000000001</ele>
        <time>2016-06-11T06:40:43Z</time>
      </trkpt>
      <trkpt lat="35.243928730487823" lon="24.052665503695607">
        <ele>1037.8800000000001</ele>
        <time>2016-06-11T06:40:56Z</time>
      </trkpt>
      <trkpt lat="35.243994612246752" lon="24.052604315802455">
        <ele>1039.8</ele>
        <time>2016-06-11T06:41:10Z</time>
      </trkpt>
      <trkpt lat="35.244044903665781" lon="24.052594760432839">
        <ele>1041.73</ele>
        <time>2016-06-11T06:41:23Z</time>
      </trkpt>
      <trkpt lat="35.244087064638734" lon="24.05255226418376">
        <ele>1043.6500000000001</ele>
        <time>2016-06-11T06:41:35Z</time>
      </trkpt>
      <trkpt lat="35.244127213954926" lon="24.052472217008471">
        <ele>1046.53</ele>
        <time>2016-06-11T06:41:49Z</time>
      </trkpt>
      <trkpt lat="35.244187815114856" lon="24.052391583099961">
        <ele>1047.97</ele>
        <time>2016-06-11T06:42:02Z</time>
      </trkpt>
      <trkpt lat="35.244210530072451" lon="24.052331149578094">
        <ele>1049.9000000000001</ele>
        <time>2016-06-11T06:42:13Z</time>
      </trkpt>
      <trkpt lat="35.244246488437057" lon="24.052337100729346">
        <ele>1051.8199999999999</ele>
        <time>2016-06-11T06:42:26Z</time>
      </trkpt>
      <trkpt lat="35.244268532842398" lon="24.052286893129349">
        <ele>1053.26</ele>
        <time>2016-06-11T06:42:39Z</time>
      </trkpt>
      <trkpt lat="35.244300551712513" lon="24.05221464112401">
        <ele>1055.1800000000001</ele>
        <time>2016-06-11T06:42:52Z</time>
      </trkpt>
      <trkpt lat="35.244324104860425" lon="24.052188908681273">
        <ele>1056.6300000000001</ele>
        <time>2016-06-11T06:43:03Z</time>
      </trkpt>
      <trkpt lat="35.244353860616684" lon="24.052145825698972">
        <ele>1058.55</ele>
        <time>2016-06-11T06:43:15Z</time>
      </trkpt>
      <trkpt lat="35.244350591674447" lon="24.052031999453902">
        <ele>1059.99</ele>
        <time>2016-06-11T06:43:29Z</time>
      </trkpt>
      <trkpt lat="35.244375318288803" lon="24.051943821832538">
        <ele>1061.9100000000001</ele>
        <time>2016-06-11T06:43:43Z</time>
      </trkpt>
      <trkpt lat="35.244414545595646" lon="24.051907192915678">
        <ele>1064.3199999999999</ele>
        <time>2016-06-11T06:43:54Z</time>
      </trkpt>
      <trkpt lat="35.244482103735209" lon="24.05189411714673">
        <ele>1065.28</ele>
        <time>2016-06-11T06:44:08Z</time>
      </trkpt>
      <trkpt lat="35.244544800370932" lon="24.051819518208504">
        <ele>1068.6400000000001</ele>
        <time>2016-06-11T06:44:21Z</time>
      </trkpt>
      <trkpt lat="35.244571622461081" lon="24.051699405536056">
        <ele>1070.0799999999999</ele>
        <time>2016-06-11T06:44:38Z</time>
      </trkpt>
      <trkpt lat="35.244562402367592" lon="24.051599577069283">
        <ele>1071.53</ele>
        <time>2016-06-11T06:44:53Z</time>
      </trkpt>
      <trkpt lat="35.24456818588078" lon="24.051525564864278">
        <ele>1073.9300000000001</ele>
        <time>2016-06-11T06:45:10Z</time>
      </trkpt>
      <trkpt lat="35.244572460651398" lon="24.051483403891325">
        <ele>1074.8900000000001</ele>
        <time>2016-06-11T06:45:24Z</time>
      </trkpt>
      <trkpt lat="35.244565503671765" lon="24.051396735012531">
        <ele>1077.29</ele>
        <time>2016-06-11T06:45:36Z</time>
      </trkpt>
      <trkpt lat="35.244561396539211" lon="24.051224486902356">
        <ele>1078.26</ele>
        <time>2016-06-11T06:45:49Z</time>
      </trkpt>
      <trkpt lat="35.244562486186624" lon="24.051089873537421">
        <ele>1079.7</ele>
        <time>2016-06-11T06:46:01Z</time>
      </trkpt>
      <trkpt lat="35.24455645121634" lon="24.05095936730504">
        <ele>1081.6199999999999</ele>
        <time>2016-06-11T06:46:13Z</time>
      </trkpt>
      <trkpt lat="35.24457011371851" lon="24.050850067287683">
        <ele>1083.0599999999999</ele>
        <time>2016-06-11T06:46:27Z</time>
      </trkpt>
      <trkpt lat="35.24458528496325" lon="24.050703635439277">
        <ele>1083.54</ele>
        <time>2016-06-11T06:46:42Z</time>
      </trkpt>
      <trkpt lat="35.244629457592964" lon="24.050500290468335">
        <ele>1084.99</ele>
        <time>2016-06-11T06:46:56Z</time>
      </trkpt>
      <trkpt lat="35.244706319645047" lon="24.05023374594748">
        <ele>1085.95</ele>
        <time>2016-06-11T06:47:08Z</time>
      </trkpt>
      <trkpt lat="35.24472844786942" lon="24.050186220556498">
        <ele>1086.4300000000001</ele>
        <time>2016-06-11T06:47:24Z</time>
      </trkpt>
      <trkpt lat="35.244756946340203" lon="24.050148418173194">
        <ele>1087.3900000000001</ele>
        <time>2016-06-11T06:47:38Z</time>
      </trkpt>
      <trkpt lat="35.24479785002768" lon="24.05010474845767">
        <ele>1088.3499999999999</ele>
        <time>2016-06-11T06:47:52Z</time>
      </trkpt>
      <trkpt lat="35.244820397347212" lon="24.050068035721779">
        <ele>1089.79</ele>
        <time>2016-06-11T06:48:07Z</time>
      </trkpt>
      <trkpt lat="35.244862893596292" lon="24.049967369064689">
        <ele>1090.27</ele>
        <time>2016-06-11T06:48:20Z</time>
      </trkpt>
      <trkpt lat="35.244876137003303" lon="24.049848094582558">
        <ele>1092.2</ele>
        <time>2016-06-11T06:48:31Z</time>
      </trkpt>
      <trkpt lat="35.24490823969245" lon="24.049743907526135">
        <ele>1093.6400000000001</ele>
        <time>2016-06-11T06:48:46Z</time>
      </trkpt>
      <trkpt lat="35.244940677657723" lon="24.049664363265038">
        <ele>1094.5999999999999</ele>
        <time>2016-06-11T06:48:59Z</time>
      </trkpt>
      <trkpt lat="35.244965488091111" lon="24.049539137631655">
        <ele>1095.0799999999999</ele>
        <time>2016-06-11T06:49:14Z</time>
      </trkpt>
      <trkpt lat="35.24502407759428" lon="24.049419779330492">
        <ele>1096.52</ele>
        <time>2016-06-11T06:49:28Z</time>
      </trkpt>
      <trkpt lat="35.245103873312473" lon="24.049314334988594">
        <ele>1097.96</ele>
        <time>2016-06-11T06:49:44Z</time>
      </trkpt>
      <trkpt lat="35.245140753686428" lon="24.049220038577914">
        <ele>1098.9200000000001</ele>
        <time>2016-06-11T06:49:58Z</time>
      </trkpt>
      <trkpt lat="35.245172437280416" lon="24.049123646691442">
        <ele>1099.8900000000001</ele>
        <time>2016-06-11T06:50:12Z</time>
      </trkpt>
      <trkpt lat="35.245210323482752" lon="24.049025746062398">
        <ele>1100.8499999999999</ele>
        <time>2016-06-11T06:50:25Z</time>
      </trkpt>
      <trkpt lat="35.245231194421649" lon="24.048942429944873">
        <ele>1101.8099999999999</ele>
        <time>2016-06-11T06:50:38Z</time>
      </trkpt>
      <trkpt lat="35.245271092280746" lon="24.04882893897593">
        <ele>1102.77</ele>
        <time>2016-06-11T06:50:53Z</time>
      </trkpt>
      <trkpt lat="35.245290203019977" lon="24.048677813261747">
        <ele>1104.21</ele>
        <time>2016-06-11T06:51:08Z</time>
      </trkpt>
      <trkpt lat="35.245315432548523" lon="24.048631880432367">
        <ele>1104.21</ele>
        <time>2016-06-11T06:51:21Z</time>
      </trkpt>
      <trkpt lat="35.245350217446685" lon="24.048570021986961">
        <ele>1106.1300000000001</ele>
        <time>2016-06-11T06:51:33Z</time>
      </trkpt>
      <trkpt lat="35.24536220356822" lon="24.048496345058084">
        <ele>1108.0599999999999</ele>
        <time>2016-06-11T06:51:46Z</time>
      </trkpt>
      <trkpt lat="35.245427498593926" lon="24.048386542126536">
        <ele>1108.0599999999999</ele>
        <time>2016-06-11T06:51:59Z</time>
      </trkpt>
      <trkpt lat="35.245492793619633" lon="24.048133995383978">
        <ele>1109.5</ele>
        <time>2016-06-11T06:52:15Z</time>
      </trkpt>
      <trkpt lat="35.245579881593585" lon="24.048012373968959">
        <ele>1110.9400000000001</ele>
        <time>2016-06-11T06:52:28Z</time>
      </trkpt>
      <trkpt lat="35.245653055608273" lon="24.047897709533572">
        <ele>1111.9000000000001</ele>
        <time>2016-06-11T06:52:40Z</time>
      </trkpt>
      <trkpt lat="35.245709298178554" lon="24.047808106988668">
        <ele>1111.9000000000001</ele>
        <time>2016-06-11T06:52:53Z</time>
      </trkpt>
      <trkpt lat="35.245756739750504" lon="24.047551956027746">
        <ele>1113.3399999999999</ele>
        <time>2016-06-11T06:53:07Z</time>
      </trkpt>
      <trkpt lat="35.24580342695117" lon="24.047365793958306">
        <ele>1113.8199999999999</ele>
        <time>2016-06-11T06:53:21Z</time>
      </trkpt>
      <trkpt lat="35.245829578489065" lon="24.047153061255813">
        <ele>1114.79</ele>
        <time>2016-06-11T06:53:36Z</time>
      </trkpt>
      <trkpt lat="35.245829578489065" lon="24.046994810923934">
        <ele>1114.79</ele>
        <time>2016-06-11T06:53:50Z</time>
      </trkpt>
      <trkpt lat="35.245842738077044" lon="24.046935299411416">
        <ele>1114.3099999999999</ele>
        <time>2016-06-11T06:54:14Z</time>
      </trkpt>
      <trkpt lat="35.245854891836643" lon="24.046843098476529">
        <ele>1115.27</ele>
        <time>2016-06-11T06:54:26Z</time>
      </trkpt>
      <trkpt lat="35.245814323425293" lon="24.04675031080842">
        <ele>1116.23</ele>
        <time>2016-06-11T06:54:40Z</time>
      </trkpt>
      <trkpt lat="35.245785238221288" lon="24.046638663858175">
        <ele>1117.1900000000001</ele>
        <time>2016-06-11T06:54:53Z</time>
      </trkpt>
      <trkpt lat="35.245785908773541" lon="24.046577056869864">
        <ele>1118.1500000000001</ele>
        <time>2016-06-11T06:55:08Z</time>
      </trkpt>
      <trkpt lat="35.245847096666694" lon="24.046552162617445">
        <ele>1118.6300000000001</ele>
        <time>2016-06-11T06:55:20Z</time>
      </trkpt>
      <trkpt lat="35.245909038931131" lon="24.046455770730972">
        <ele>1119.1099999999999</ele>
        <time>2016-06-11T06:55:34Z</time>
      </trkpt>
      <trkpt lat="35.245946422219276" lon="24.046386871486902">
        <ele>1120.0699999999999</ele>
        <time>2016-06-11T06:55:47Z</time>
      </trkpt>
      <trkpt lat="35.246045328676701" lon="24.046337585896254">
        <ele>1120.55</ele>
        <time>2016-06-11T06:56:02Z</time>
      </trkpt>
      <trkpt lat="35.246125711128116" lon="24.046285450458527">
        <ele>1121.03</ele>
        <time>2016-06-11T06:56:14Z</time>
      </trkpt>
      <trkpt lat="35.246194861829281" lon="24.046181095764041">
        <ele>1122.48</ele>
        <time>2016-06-11T06:56:30Z</time>
      </trkpt>
      <trkpt lat="35.246256133541465" lon="24.046080429106951">
        <ele>1123.4400000000001</ele>
        <time>2016-06-11T06:56:44Z</time>
      </trkpt>
      <trkpt lat="35.246340623125434" lon="24.045968865975738">
        <ele>1124.8800000000001</ele>
        <time>2016-06-11T06:56:59Z</time>
      </trkpt>
      <trkpt lat="35.24639611132443" lon="24.045853447169065">
        <ele>1124.8800000000001</ele>
        <time>2016-06-11T06:57:13Z</time>
      </trkpt>
      <trkpt lat="35.246429806575179" lon="24.045762671157718">
        <ele>1125.8399999999999</ele>
        <time>2016-06-11T06:57:27Z</time>
      </trkpt>
      <trkpt lat="35.246480433270335" lon="24.045598302036524">
        <ele>1126.8</ele>
        <time>2016-06-11T06:57:38Z</time>
      </trkpt>
      <trkpt lat="35.246511697769165" lon="24.045404512435198">
        <ele>1127.28</ele>
        <time>2016-06-11T06:57:52Z</time>
      </trkpt>
      <trkpt lat="35.246513625606894" lon="24.04531080275774">
        <ele>1127.76</ele>
        <time>2016-06-11T06:58:07Z</time>
      </trkpt>
      <trkpt lat="35.246518822386861" lon="24.045270150527358">
        <ele>1128.73</ele>
        <time>2016-06-11T06:58:19Z</time>
      </trkpt>
      <trkpt lat="35.246550338342786" lon="24.04523259960115">
        <ele>1129.6900000000001</ele>
        <time>2016-06-11T06:58:33Z</time>
      </trkpt>
      <trkpt lat="35.246590906754136" lon="24.04512070119381">
        <ele>1130.1700000000001</ele>
        <time>2016-06-11T06:58:47Z</time>
      </trkpt>
      <trkpt lat="35.246694926172495" lon="24.045014921575785">
        <ele>1131.6099999999999</ele>
        <time>2016-06-11T06:59:02Z</time>
      </trkpt>
      <trkpt lat="35.246746558696032" lon="24.044934036210179">
        <ele>1132.0899999999999</ele>
        <time>2016-06-11T06:59:17Z</time>
      </trkpt>
      <trkpt lat="35.246785786002874" lon="24.044826999306679">
        <ele>1133.05</ele>
        <time>2016-06-11T06:59:33Z</time>
      </trkpt>
      <trkpt lat="35.246837669983506" lon="24.044697415083647">
        <ele>1134.01</ele>
        <time>2016-06-11T06:59:48Z</time>
      </trkpt>
      <trkpt lat="35.246866922825575" lon="24.044575123116374">
        <ele>1134.49</ele>
        <time>2016-06-11T07:00:03Z</time>
      </trkpt>
      <trkpt lat="35.246910424903035" lon="24.044474456459284">
        <ele>1136.4200000000001</ele>
        <time>2016-06-11T07:00:19Z</time>
      </trkpt>
      <trkpt lat="35.246945209801197" lon="24.044394493103027">
        <ele>1136.9000000000001</ele>
        <time>2016-06-11T07:00:32Z</time>
      </trkpt>
      <trkpt lat="35.247023245319724" lon="24.044248480349779">
        <ele>1137.3800000000001</ele>
        <time>2016-06-11T07:00:46Z</time>
      </trkpt>
      <trkpt lat="35.247085271403193" lon="24.044147310778499">
        <ele>1138.8199999999999</ele>
        <time>2016-06-11T07:01:02Z</time>
      </trkpt>
      <trkpt lat="35.247136484831572" lon="24.044045638293028">
        <ele>1139.3</ele>
        <time>2016-06-11T07:01:15Z</time>
      </trkpt>
      <trkpt lat="35.247240168973804" lon="24.043901804834604">
        <ele>1140.74</ele>
        <time>2016-06-11T07:01:31Z</time>
      </trkpt>
      <trkpt lat="35.247292639687657" lon="24.043795187026262">
        <ele>1141.22</ele>
        <time>2016-06-11T07:01:44Z</time>
      </trkpt>
      <trkpt lat="35.247300518676639" lon="24.043783536180854">
        <ele>1140.74</ele>
        <time>2016-06-11T07:01:46Z</time>
      </trkpt>
      <trkpt lat="35.247338823974133" lon="24.043744811788201">
        <ele>1141.22</ele>
        <time>2016-06-11T07:01:51Z</time>
      </trkpt>
      <trkpt lat="35.247437059879303" lon="24.043696196749806">
        <ele>1142.1800000000001</ele>
        <time>2016-06-11T07:02:04Z</time>
      </trkpt>
      <trkpt lat="35.247534541413188" lon="24.043632661923766">
        <ele>1143.1400000000001</ele>
        <time>2016-06-11T07:02:16Z</time>
      </trkpt>
      <trkpt lat="35.247590867802501" lon="24.043457480147481">
        <ele>1143.1400000000001</ele>
        <time>2016-06-11T07:02:30Z</time>
      </trkpt>
      <trkpt lat="35.247581731528044" lon="24.043305683881044">
        <ele>1146.03</ele>
        <time>2016-06-11T07:02:45Z</time>
      </trkpt>
      <trkpt lat="35.247593885287642" lon="24.043230749666691">
        <ele>1146.03</ele>
        <time>2016-06-11T07:02:57Z</time>
      </trkpt>
      <trkpt lat="35.247573768720031" lon="24.04312371276319">
        <ele>1147.95</ele>
        <time>2016-06-11T07:03:12Z</time>
      </trkpt>
      <trkpt lat="35.247525321319699" lon="24.04296244494617">
        <ele>1148.9100000000001</ele>
        <time>2016-06-11T07:03:26Z</time>
      </trkpt>
      <trkpt lat="35.247511910274625" lon="24.042925396934152">
        <ele>1148.9100000000001</ele>
        <time>2016-06-11T07:03:29Z</time>
      </trkpt>
      <trkpt lat="35.247482238337398" lon="24.042819868773222">
        <ele>1149.3900000000001</ele>
        <time>2016-06-11T07:03:41Z</time>
      </trkpt>
      <trkpt lat="35.247471174225211" lon="24.042695229873061">
        <ele>1150.8399999999999</ele>
        <time>2016-06-11T07:03:54Z</time>
      </trkpt>
      <trkpt lat="35.247415769845247" lon="24.042613841593266">
        <ele>1151.8</ele>
        <time>2016-06-11T07:04:05Z</time>
      </trkpt>
      <trkpt lat="35.247401688247919" lon="24.042521305382252">
        <ele>1152.28</ele>
        <time>2016-06-11T07:04:18Z</time>
      </trkpt>
      <trkpt lat="35.247377464547753" lon="24.042399600148201">
        <ele>1153.72</ele>
        <time>2016-06-11T07:04:32Z</time>
      </trkpt>
      <trkpt lat="35.247334381565452" lon="24.0422891266644">
        <ele>1155.1600000000001</ele>
        <time>2016-06-11T07:04:47Z</time>
      </trkpt>
      <trkpt lat="35.247314097359776" lon="24.042155016213655">
        <ele>1155.6400000000001</ele>
        <time>2016-06-11T07:04:59Z</time>
      </trkpt>
      <trkpt lat="35.247303368523717" lon="24.041997017338872">
        <ele>1156.5999999999999</ele>
        <time>2016-06-11T07:05:11Z</time>
      </trkpt>
      <trkpt lat="35.24726833216846" lon="24.041863409802318">
        <ele>1157.5599999999999</ele>
        <time>2016-06-11T07:05:25Z</time>
      </trkpt>
      <trkpt lat="35.247254753485322" lon="24.04172670096159">
        <ele>1158.53</ele>
        <time>2016-06-11T07:05:39Z</time>
      </trkpt>
      <trkpt lat="35.247217370197177" lon="24.041620250791311">
        <ele>1159.49</ele>
        <time>2016-06-11T07:05:51Z</time>
      </trkpt>
      <trkpt lat="35.247182585299015" lon="24.041522601619363">
        <ele>1159.97</ele>
        <time>2016-06-11T07:06:04Z</time>
      </trkpt>
      <trkpt lat="35.247150985524058" lon="24.04144867323339">
        <ele>1160.9300000000001</ele>
        <time>2016-06-11T07:06:15Z</time>
      </trkpt>
      <trkpt lat="35.247136987745762" lon="24.041345240548253">
        <ele>1161.8900000000001</ele>
        <time>2016-06-11T07:06:27Z</time>
      </trkpt>
      <trkpt lat="35.247130617499352" lon="24.041248010471463">
        <ele>1162.3699999999999</ele>
        <time>2016-06-11T07:06:41Z</time>
      </trkpt>
      <trkpt lat="35.247114524245262" lon="24.041155641898513">
        <ele>1163.8099999999999</ele>
        <time>2016-06-11T07:06:55Z</time>
      </trkpt>
      <trkpt lat="35.247136484831572" lon="24.040909046307206">
        <ele>1164.77</ele>
        <time>2016-06-11T07:07:08Z</time>
      </trkpt>
      <trkpt lat="35.247135730460286" lon="24.040776528418064">
        <ele>1165.74</ele>
        <time>2016-06-11T07:07:21Z</time>
      </trkpt>
      <trkpt lat="35.247114188969135" lon="24.040633952245116">
        <ele>1166.22</ele>
        <time>2016-06-11T07:07:36Z</time>
      </trkpt>
      <trkpt lat="35.247092060744762" lon="24.040529513731599">
        <ele>1167.6600000000001</ele>
        <time>2016-06-11T07:07:48Z</time>
      </trkpt>
      <trkpt lat="35.247065238654613" lon="24.040443850681186">
        <ele>1168.1400000000001</ele>
        <time>2016-06-11T07:08:05Z</time>
      </trkpt>
      <trkpt lat="35.24705140851438" lon="24.040347458794713">
        <ele>1169.0999999999999</ele>
        <time>2016-06-11T07:08:16Z</time>
      </trkpt>
      <trkpt lat="35.247065238654613" lon="24.040141850709915">
        <ele>1169.5799999999999</ele>
        <time>2016-06-11T07:08:30Z</time>
      </trkpt>
      <trkpt lat="35.247064149007201" lon="24.040053756907582">
        <ele>1171.02</ele>
        <time>2016-06-11T07:08:44Z</time>
      </trkpt>
      <trkpt lat="35.24707680568099" lon="24.039955856278539">
        <ele>1171.98</ele>
        <time>2016-06-11T07:08:58Z</time>
      </trkpt>
      <trkpt lat="35.247086193412542" lon="24.039871701970696">
        <ele>1172.95</ele>
        <time>2016-06-11T07:09:11Z</time>
      </trkpt>
      <trkpt lat="35.247120810672641" lon="24.039765167981386">
        <ele>1173.4300000000001</ele>
        <time>2016-06-11T07:09:23Z</time>
      </trkpt>
      <trkpt lat="35.247154086828232" lon="24.039533492177725">
        <ele>1174.3900000000001</ele>
        <time>2016-06-11T07:09:36Z</time>
      </trkpt>
      <trkpt lat="35.247144112363458" lon="24.039444895461202">
        <ele>1175.3499999999999</ele>
        <time>2016-06-11T07:09:49Z</time>
      </trkpt>
      <trkpt lat="35.247153332456946" lon="24.039300139993429">
        <ele>1176.3099999999999</ele>
        <time>2016-06-11T07:10:03Z</time>
      </trkpt>
      <trkpt lat="35.247157104313374" lon="24.039120515808463">
        <ele>1177.27</ele>
        <time>2016-06-11T07:10:18Z</time>
      </trkpt>
      <trkpt lat="35.247153751552105" lon="24.039008282124996">
        <ele>1177.75</ele>
        <time>2016-06-11T07:10:33Z</time>
      </trkpt>
      <trkpt lat="35.247154086828232" lon="24.038819102570415">
        <ele>1178.23</ele>
        <time>2016-06-11T07:10:46Z</time>
      </trkpt>
      <trkpt lat="35.247138161212206" lon="24.038660014048219">
        <ele>1179.1900000000001</ele>
        <time>2016-06-11T07:10:57Z</time>
      </trkpt>
      <trkpt lat="35.247125253081322" lon="24.03856722638011">
        <ele>1179.1900000000001</ele>
        <time>2016-06-11T07:11:08Z</time>
      </trkpt>
      <trkpt lat="35.247100442647934" lon="24.038417860865593">
        <ele>1180.6400000000001</ele>
        <time>2016-06-11T07:11:22Z</time>
      </trkpt>
      <trkpt lat="35.247069094330072" lon="24.038337813690305">
        <ele>1181.5999999999999</ele>
        <time>2016-06-11T07:11:35Z</time>
      </trkpt>
      <trkpt lat="35.247067920863628" lon="24.038204625248909">
        <ele>1181.5999999999999</ele>
        <time>2016-06-11T07:11:48Z</time>
      </trkpt>
      <trkpt lat="35.247067334130406" lon="24.038081075996161">
        <ele>1183.04</ele>
        <time>2016-06-11T07:12:03Z</time>
      </trkpt>
      <trkpt lat="35.247050737962127" lon="24.038005219772458">
        <ele>1184</ele>
        <time>2016-06-11T07:12:14Z</time>
      </trkpt>
      <trkpt lat="35.247060544788837" lon="24.037860464304686">
        <ele>1184.48</ele>
        <time>2016-06-11T07:12:29Z</time>
      </trkpt>
      <trkpt lat="35.247061047703028" lon="24.037773795425892">
        <ele>1185.4400000000001</ele>
        <time>2016-06-11T07:12:42Z</time>
      </trkpt>
      <trkpt lat="35.24701964110136" lon="24.037645719945431">
        <ele>1186.4000000000001</ele>
        <time>2016-06-11T07:12:53Z</time>
      </trkpt>
      <trkpt lat="35.247008912265301" lon="24.037471460178494">
        <ele>1186.8800000000001</ele>
        <time>2016-06-11T07:13:06Z</time>
      </trkpt>
      <trkpt lat="35.247029531747103" lon="24.037261912599206">
        <ele>1188.8099999999999</ele>
        <time>2016-06-11T07:13:18Z</time>
      </trkpt>
      <trkpt lat="35.247064819559455" lon="24.037186726927757">
        <ele>1188.8099999999999</ele>
        <time>2016-06-11T07:13:30Z</time>
      </trkpt>
      <trkpt lat="35.24710857309401" lon="24.03711355291307">
        <ele>1189.29</ele>
        <time>2016-06-11T07:13:43Z</time>
      </trkpt>
      <trkpt lat="35.24716037325561" lon="24.037049515172839">
        <ele>1191.21</ele>
        <time>2016-06-11T07:13:58Z</time>
      </trkpt>
      <trkpt lat="35.247193230316043" lon="24.03689662925899">
        <ele>1192.6500000000001</ele>
        <time>2016-06-11T07:14:14Z</time>
      </trkpt>
      <trkpt lat="35.247194990515709" lon="24.036885732784867">
        <ele>1192.6500000000001</ele>
        <time>2016-06-11T07:14:15Z</time>
      </trkpt>
      <trkpt lat="35.247229188680649" lon="24.03681892901659">
        <ele>1193.1300000000001</ele>
        <time>2016-06-11T07:14:22Z</time>
      </trkpt>
      <trkpt lat="35.247262548655272" lon="24.036700241267681">
        <ele>1194.0899999999999</ele>
        <time>2016-06-11T07:14:33Z</time>
      </trkpt>
      <trkpt lat="35.247299680486321" lon="24.036540817469358">
        <ele>1194.0899999999999</ele>
        <time>2016-06-11T07:14:46Z</time>
      </trkpt>
      <trkpt lat="35.247345864772797" lon="24.036437720060349">
        <ele>1195.54</ele>
        <time>2016-06-11T07:15:00Z</time>
      </trkpt>
      <trkpt lat="35.247384924441576" lon="24.03636890463531">
        <ele>1196.98</ele>
        <time>2016-06-11T07:15:14Z</time>
      </trkpt>
      <trkpt lat="35.24743840098381" lon="24.036246947944164">
        <ele>1197.9400000000001</ele>
        <time>2016-06-11T07:15:28Z</time>
      </trkpt>
      <trkpt lat="35.247460948303342" lon="24.036133456975222">
        <ele>1198.9000000000001</ele>
        <time>2016-06-11T07:15:39Z</time>
      </trkpt>
      <trkpt lat="35.247493134811521" lon="24.036023067310452">
        <ele>1199.3800000000001</ele>
        <time>2016-06-11T07:15:51Z</time>
      </trkpt>
      <trkpt lat="35.247512413188815" lon="24.035963555797935">
        <ele>1199.8599999999999</ele>
        <time>2016-06-11T07:16:05Z</time>
      </trkpt>
      <trkpt lat="35.247552897781134" lon="24.03582114726305">
        <ele>1200.3399999999999</ele>
        <time>2016-06-11T07:16:25Z</time>
      </trkpt>
      <trkpt lat="35.247610649093986" lon="24.035754511132836">
        <ele>1201.3</ele>
        <time>2016-06-11T07:16:38Z</time>
      </trkpt>
      <trkpt lat="35.247665802016854" lon="24.035679493099451">
        <ele>1202.27</ele>
        <time>2016-06-11T07:16:52Z</time>
      </trkpt>
      <trkpt lat="35.247681308537722" lon="24.035586034879088">
        <ele>1202.27</ele>
        <time>2016-06-11T07:17:04Z</time>
      </trkpt>
      <trkpt lat="35.24774182587862" lon="24.03549425303936">
        <ele>1203.23</ele>
        <time>2016-06-11T07:17:17Z</time>
      </trkpt>
      <trkpt lat="35.247805109247565" lon="24.035387467592955">
        <ele>1204.1900000000001</ele>
        <time>2016-06-11T07:17:31Z</time>
      </trkpt>
      <trkpt lat="35.247887084260583" lon="24.035312198102474">
        <ele>1204.6700000000001</ele>
        <time>2016-06-11T07:17:43Z</time>
      </trkpt>
      <trkpt lat="35.247937543317676" lon="24.035250172019005">
        <ele>1204.6700000000001</ele>
        <time>2016-06-11T07:17:52Z</time>
      </trkpt>
      <trkpt lat="35.247964533045888" lon="24.035218488425016">
        <ele>1205.1500000000001</ele>
        <time>2016-06-11T07:17:56Z</time>
      </trkpt>
      <trkpt lat="35.248055811971426" lon="24.035122934728861">
        <ele>1205.6300000000001</ele>
        <time>2016-06-11T07:18:11Z</time>
      </trkpt>
      <trkpt lat="35.248161507770419" lon="24.035008773207664">
        <ele>1206.1099999999999</ele>
        <time>2016-06-11T07:18:27Z</time>
      </trkpt>
      <trkpt lat="35.248241303488612" lon="24.034912465140224">
        <ele>1205.6300000000001</ele>
        <time>2016-06-11T07:18:38Z</time>
      </trkpt>
      <trkpt lat="35.248250355944037" lon="24.034839207306504">
        <ele>1206.5899999999999</ele>
        <time>2016-06-11T07:19:00Z</time>
      </trkpt>
      <trkpt lat="35.248273573815823" lon="24.034804841503501">
        <ele>1206.1099999999999</ele>
        <time>2016-06-11T07:19:20Z</time>
      </trkpt>
      <trkpt lat="35.248333336785436" lon="24.034770140424371">
        <ele>1206.1099999999999</ele>
        <time>2016-06-11T07:19:45Z</time>
      </trkpt>
      <trkpt lat="35.248357309028506" lon="24.034674419090152">
        <ele>1205.1500000000001</ele>
        <time>2016-06-11T07:20:00Z</time>
      </trkpt>
      <trkpt lat="35.248368037864566" lon="24.034653715789318">
        <ele>1206.1099999999999</ele>
        <time>2016-06-11T07:20:03Z</time>
      </trkpt>
      <trkpt lat="35.248380275443196" lon="24.034631671383977">
        <ele>1205.6300000000001</ele>
        <time>2016-06-11T07:20:05Z</time>
      </trkpt>
      <trkpt lat="35.248459819704294" lon="24.034472415223718">
        <ele>1206.1099999999999</ele>
        <time>2016-06-11T07:20:22Z</time>
      </trkpt>
      <trkpt lat="35.248521510511637" lon="24.03432791121304">
        <ele>1205.6300000000001</ele>
        <time>2016-06-11T07:20:36Z</time>
      </trkpt>
      <trkpt lat="35.248536849394441" lon="24.034285414963961">
        <ele>1205.1500000000001</ele>
        <time>2016-06-11T07:20:41Z</time>
      </trkpt>
      <trkpt lat="35.248563755303621" lon="24.034216264262795">
        <ele>1206.1099999999999</ele>
        <time>2016-06-11T07:20:48Z</time>
      </trkpt>
      <trkpt lat="35.248618656769395" lon="24.034082321450114">
        <ele>1206.1099999999999</ele>
        <time>2016-06-11T07:21:05Z</time>
      </trkpt>
      <trkpt lat="35.248690154403448" lon="24.033958353102207">
        <ele>1205.6300000000001</ele>
        <time>2016-06-11T07:21:19Z</time>
      </trkpt>
      <trkpt lat="35.248734410852194" lon="24.033872270956635">
        <ele>1206.1099999999999</ele>
        <time>2016-06-11T07:21:29Z</time>
      </trkpt>
      <trkpt lat="35.248810769990087" lon="24.033762132748961">
        <ele>1207.0699999999999</ele>
        <time>2016-06-11T07:21:43Z</time>
      </trkpt>
      <trkpt lat="35.248903892934322" lon="24.03361645527184">
        <ele>1206.5899999999999</ele>
        <time>2016-06-11T07:21:59Z</time>
      </trkpt>
      <trkpt lat="35.248948903754354" lon="24.033462731167674">
        <ele>1207.55</ele>
        <time>2016-06-11T07:22:14Z</time>
      </trkpt>
      <trkpt lat="35.249012606218457" lon="24.033308587968349">
        <ele>1207.55</ele>
        <time>2016-06-11T07:22:30Z</time>
      </trkpt>
      <trkpt lat="35.249065328389406" lon="24.033189564943314">
        <ele>1207.55</ele>
        <time>2016-06-11T07:22:43Z</time>
      </trkpt>
      <trkpt lat="35.249093743041158" lon="24.033049335703254">
        <ele>1207.55</ele>
        <time>2016-06-11T07:22:56Z</time>
      </trkpt>
      <trkpt lat="35.249173622578382" lon="24.03294799849391">
        <ele>1208.03</ele>
        <time>2016-06-11T07:23:08Z</time>
      </trkpt>
      <trkpt lat="35.249196588993073" lon="24.032774409279227">
        <ele>1208.51</ele>
        <time>2016-06-11T07:23:23Z</time>
      </trkpt>
      <trkpt lat="35.249235313385725" lon="24.032678520306945">
        <ele>1209.48</ele>
        <time>2016-06-11T07:23:36Z</time>
      </trkpt>
      <trkpt lat="35.249295830726624" lon="24.032518174499273">
        <ele>1209.48</ele>
        <time>2016-06-11T07:23:50Z</time>
      </trkpt>
      <trkpt lat="35.249331453815103" lon="24.032337460666895">
        <ele>1210.9200000000001</ele>
        <time>2016-06-11T07:24:05Z</time>
      </trkpt>
      <trkpt lat="35.249360539019108" lon="24.032182479277253">
        <ele>1210.9200000000001</ele>
        <time>2016-06-11T07:24:19Z</time>
      </trkpt>
      <trkpt lat="35.249387612566352" lon="24.03206312097609">
        <ele>1211.4000000000001</ele>
        <time>2016-06-11T07:24:31Z</time>
      </trkpt>
      <trkpt lat="35.249454751610756" lon="24.031912330538034">
        <ele>1211.8800000000001</ele>
        <time>2016-06-11T07:24:46Z</time>
      </trkpt>
      <trkpt lat="35.24949649348855" lon="24.031753912568092">
        <ele>1212.3599999999999</ele>
        <time>2016-06-11T07:25:01Z</time>
      </trkpt>
      <trkpt lat="35.249505462124944" lon="24.03160429559648">
        <ele>1213.3199999999999</ele>
        <time>2016-06-11T07:25:14Z</time>
      </trkpt>
      <trkpt lat="35.249517867341638" lon="24.031435400247574">
        <ele>1213.3199999999999</ele>
        <time>2016-06-11T07:25:29Z</time>
      </trkpt>
      <trkpt lat="35.24951359257102" lon="24.031260972842574">
        <ele>1214.28</ele>
        <time>2016-06-11T07:25:43Z</time>
      </trkpt>
      <trkpt lat="35.249506970867515" lon="24.031066847965121">
        <ele>1213.3199999999999</ele>
        <time>2016-06-11T07:25:59Z</time>
      </trkpt>
      <trkpt lat="35.249524069949985" lon="24.031016388908029">
        <ele>1212.8399999999999</ele>
        <time>2016-06-11T07:26:03Z</time>
      </trkpt>
      <trkpt lat="35.249553238973022" lon="24.030911112204194">
        <ele>1212.8399999999999</ele>
        <time>2016-06-11T07:26:17Z</time>
      </trkpt>
      <trkpt lat="35.249546449631453" lon="24.030795777216554">
        <ele>1212.8399999999999</ele>
        <time>2016-06-11T07:26:31Z</time>
      </trkpt>
      <trkpt lat="35.249527171254158" lon="24.030727464705706">
        <ele>1196.98</ele>
        <time>2016-06-11T08:00:45Z</time>
      </trkpt>
      <trkpt lat="35.249529853463173" lon="24.03074967674911">
        <ele>1196.98</ele>
        <time>2016-06-11T08:02:24Z</time>
      </trkpt>
      <trkpt lat="35.249539073556662" lon="24.030872639268637">
        <ele>1196.98</ele>
        <time>2016-06-11T08:02:38Z</time>
      </trkpt>
      <trkpt lat="35.24959028698504" lon="24.030948160216212">
        <ele>1196.98</ele>
        <time>2016-06-11T08:02:48Z</time>
      </trkpt>
      <trkpt lat="35.249680727720261" lon="24.031029213219881">
        <ele>1197.9400000000001</ele>
        <time>2016-06-11T08:03:01Z</time>
      </trkpt>
      <trkpt lat="35.249749794602394" lon="24.031113870441914">
        <ele>1198.9000000000001</ele>
        <time>2016-06-11T08:03:14Z</time>
      </trkpt>
      <trkpt lat="35.24982095696032" lon="24.031239096075296">
        <ele>1200.3399999999999</ele>
        <time>2016-06-11T08:03:30Z</time>
      </trkpt>
      <trkpt lat="35.249842666089535" lon="24.031356610357761">
        <ele>1201.79</ele>
        <time>2016-06-11T08:03:43Z</time>
      </trkpt>
      <trkpt lat="35.249844929203391" lon="24.031365914270282">
        <ele>1201.3</ele>
        <time>2016-06-11T08:03:44Z</time>
      </trkpt>
      <trkpt lat="35.249856747686863" lon="24.031483344733715">
        <ele>1201.79</ele>
        <time>2016-06-11T08:03:57Z</time>
      </trkpt>
      <trkpt lat="35.24985121563077" lon="24.031636817380786">
        <ele>1202.27</ele>
        <time>2016-06-11T08:04:12Z</time>
      </trkpt>
      <trkpt lat="35.24984534829855" lon="24.031691299751401">
        <ele>1202.27</ele>
        <time>2016-06-11T08:04:25Z</time>
      </trkpt>
      <trkpt lat="35.249840319156647" lon="24.03169465251267">
        <ele>1202.75</ele>
        <time>2016-06-11T08:04:44Z</time>
      </trkpt>
      <trkpt lat="35.249769994989038" lon="24.031864805147052">
        <ele>1203.23</ele>
        <time>2016-06-11T08:04:59Z</time>
      </trkpt>
      <trkpt lat="35.24975105188787" lon="24.03202154673636">
        <ele>1204.1900000000001</ele>
        <time>2016-06-11T08:05:14Z</time>
      </trkpt>
      <trkpt lat="35.249763960018754" lon="24.032163200899959">
        <ele>1204.1900000000001</ele>
        <time>2016-06-11T08:05:27Z</time>
      </trkpt>
      <trkpt lat="35.249764965847135" lon="24.032292785122991">
        <ele>1205.1500000000001</ele>
        <time>2016-06-11T08:05:38Z</time>
      </trkpt>
      <trkpt lat="35.249786172062159" lon="24.032462351024151">
        <ele>1204.1900000000001</ele>
        <time>2016-06-11T08:05:52Z</time>
      </trkpt>
      <trkpt lat="35.249810814857483" lon="24.032572573050857">
        <ele>1203.71</ele>
        <time>2016-06-11T08:06:06Z</time>
      </trkpt>
      <trkpt lat="35.249816766008735" lon="24.032719423994422">
        <ele>1205.1500000000001</ele>
        <time>2016-06-11T08:06:22Z</time>
      </trkpt>
      <trkpt lat="35.249807965010405" lon="24.032809864729643">
        <ele>1205.6300000000001</ele>
        <time>2016-06-11T08:06:34Z</time>
      </trkpt>
      <trkpt lat="35.249798074364662" lon="24.032866526395082">
        <ele>1206.1099999999999</ele>
        <time>2016-06-11T08:06:49Z</time>
      </trkpt>
      <trkpt lat="35.249791704118252" lon="24.032986555248499">
        <ele>1206.1099999999999</ele>
        <time>2016-06-11T08:07:01Z</time>
      </trkpt>
      <trkpt lat="35.249749207869172" lon="24.033088646829128">
        <ele>1206.1099999999999</ele>
        <time>2016-06-11T08:07:15Z</time>
      </trkpt>
      <trkpt lat="35.249723140150309" lon="24.033181350678205">
        <ele>1206.1099999999999</ele>
        <time>2016-06-11T08:07:29Z</time>
      </trkpt>
      <trkpt lat="35.249701682478189" lon="24.033320071175694">
        <ele>1207.55</ele>
        <time>2016-06-11T08:07:42Z</time>
      </trkpt>
      <trkpt lat="35.24971048347652" lon="24.033447979018092">
        <ele>1207.55</ele>
        <time>2016-06-11T08:07:56Z</time>
      </trkpt>
      <trkpt lat="35.249669328331947" lon="24.033561050891876">
        <ele>1207.55</ele>
        <time>2016-06-11T08:08:09Z</time>
      </trkpt>
      <trkpt lat="35.249659270048141" lon="24.033726761117578">
        <ele>1208.51</ele>
        <time>2016-06-11T08:08:28Z</time>
      </trkpt>
      <trkpt lat="35.249652480706573" lon="24.033855842426419">
        <ele>1209.96</ele>
        <time>2016-06-11T08:08:44Z</time>
      </trkpt>
      <trkpt lat="35.249677961692214" lon="24.033926585689187">
        <ele>1209.48</ele>
        <time>2016-06-11T08:09:00Z</time>
      </trkpt>
      <trkpt lat="35.249681482091546" lon="24.034030940383673">
        <ele>1209.96</ele>
        <time>2016-06-11T08:09:12Z</time>
      </trkpt>
      <trkpt lat="35.249702939763665" lon="24.034080058336258">
        <ele>1209.48</ele>
        <time>2016-06-11T08:09:31Z</time>
      </trkpt>
      <trkpt lat="35.249747112393379" lon="24.034183658659458">
        <ele>1210.4400000000001</ele>
        <time>2016-06-11T08:09:46Z</time>
      </trkpt>
      <trkpt lat="35.249832021072507" lon="24.034287678077817">
        <ele>1211.4000000000001</ele>
        <time>2016-06-11T08:10:02Z</time>
      </trkpt>
      <trkpt lat="35.249927910044789" lon="24.034415083006024">
        <ele>1209.48</ele>
        <time>2016-06-11T08:10:16Z</time>
      </trkpt>
      <trkpt lat="35.250010387971997" lon="24.034492196515203">
        <ele>1209.96</ele>
        <time>2016-06-11T08:10:30Z</time>
      </trkpt>
      <trkpt lat="35.250123627483845" lon="24.03463770635426">
        <ele>1209.96</ele>
        <time>2016-06-11T08:10:43Z</time>
      </trkpt>
      <trkpt lat="35.250149443745613" lon="24.034664444625378">
        <ele>1209.48</ele>
        <time>2016-06-11T08:10:46Z</time>
      </trkpt>
      <trkpt lat="35.250240303575993" lon="24.034741139039397">
        <ele>1209.96</ele>
        <time>2016-06-11T08:11:01Z</time>
      </trkpt>
      <trkpt lat="35.250310292467475" lon="24.034796291962266">
        <ele>1210.4400000000001</ele>
        <time>2016-06-11T08:11:12Z</time>
      </trkpt>
      <trkpt lat="35.250366870313883" lon="24.034900395199656">
        <ele>1211.4000000000001</ele>
        <time>2016-06-11T08:11:24Z</time>
      </trkpt>
      <trkpt lat="35.250422358512878" lon="24.035017574205995">
        <ele>1211.4000000000001</ele>
        <time>2016-06-11T08:11:39Z</time>
      </trkpt>
      <trkpt lat="35.250477092340589" lon="24.035136764869094">
        <ele>1211.4000000000001</ele>
        <time>2016-06-11T08:11:53Z</time>
      </trkpt>
      <trkpt lat="35.250523276627064" lon="24.035251764580607">
        <ele>1212.8399999999999</ele>
        <time>2016-06-11T08:12:03Z</time>
      </trkpt>
      <trkpt lat="35.250535262748599" lon="24.035418396815658">
        <ele>1213.3199999999999</ele>
        <time>2016-06-11T08:12:17Z</time>
      </trkpt>
      <trkpt lat="35.250642048195004" lon="24.035556279122829">
        <ele>1213.3199999999999</ele>
        <time>2016-06-11T08:12:30Z</time>
      </trkpt>
      <trkpt lat="35.250670630484819" lon="24.035763144493103">
        <ele>1213.8</ele>
        <time>2016-06-11T08:12:46Z</time>
      </trkpt>
      <trkpt lat="35.250715222209692" lon="24.035911420360208">
        <ele>1213.8</ele>
        <time>2016-06-11T08:13:00Z</time>
      </trkpt>
      <trkpt lat="35.250744475051761" lon="24.036063300445676">
        <ele>1214.76</ele>
        <time>2016-06-11T08:13:13Z</time>
      </trkpt>
      <trkpt lat="35.250786133110523" lon="24.036221886053681">
        <ele>1214.76</ele>
        <time>2016-06-11T08:13:27Z</time>
      </trkpt>
      <trkpt lat="35.25080993771553" lon="24.036368150264025">
        <ele>1214.76</ele>
        <time>2016-06-11T08:13:41Z</time>
      </trkpt>
      <trkpt lat="35.250820750370622" lon="24.036408299580216">
        <ele>1214.76</ele>
        <time>2016-06-11T08:13:44Z</time>
      </trkpt>
      <trkpt lat="35.250848075374961" lon="24.036589013412595">
        <ele>1214.76</ele>
        <time>2016-06-11T08:13:57Z</time>
      </trkpt>
      <trkpt lat="35.250893840566278" lon="24.036707617342472">
        <ele>1215.24</ele>
        <time>2016-06-11T08:14:10Z</time>
      </trkpt>
      <trkpt lat="35.250914376229048" lon="24.036822784692049">
        <ele>1216.6900000000001</ele>
        <time>2016-06-11T08:14:23Z</time>
      </trkpt>
      <trkpt lat="35.250971959903836" lon="24.036986399441957">
        <ele>1217.6500000000001</ele>
        <time>2016-06-11T08:14:37Z</time>
      </trkpt>
      <trkpt lat="35.251055359840393" lon="24.037142470479012">
        <ele>1218.1300000000001</ele>
        <time>2016-06-11T08:14:51Z</time>
      </trkpt>
      <trkpt lat="35.251124259084463" lon="24.037311198189855">
        <ele>1218.6099999999999</ele>
        <time>2016-06-11T08:15:05Z</time>
      </trkpt>
      <trkpt lat="35.251201456412673" lon="24.037482524290681">
        <ele>1218.6099999999999</ele>
        <time>2016-06-11T08:15:19Z</time>
      </trkpt>
      <trkpt lat="35.251203887164593" lon="24.037487050518394">
        <ele>1218.6099999999999</ele>
        <time>2016-06-11T08:15:20Z</time>
      </trkpt>
      <trkpt lat="35.251216040924191" lon="24.037618981674314">
        <ele>1217.1700000000001</ele>
        <time>2016-06-11T08:15:33Z</time>
      </trkpt>
      <trkpt lat="35.251224339008331" lon="24.037724174559116">
        <ele>1216.6900000000001</ele>
        <time>2016-06-11T08:15:43Z</time>
      </trkpt>
      <trkpt lat="35.25122232735157" lon="24.037912096828222">
        <ele>1215.72</ele>
        <time>2016-06-11T08:16:00Z</time>
      </trkpt>
      <trkpt lat="35.251312600448728" lon="24.038041094318032">
        <ele>1215.24</ele>
        <time>2016-06-11T08:16:14Z</time>
      </trkpt>
      <trkpt lat="35.251325843855739" lon="24.038016283884645">
        <ele>1215.72</ele>
        <time>2016-06-11T08:16:26Z</time>
      </trkpt>
      <trkpt lat="35.25131176225841" lon="24.038050062954426">
        <ele>1215.24</ele>
        <time>2016-06-11T08:16:53Z</time>
      </trkpt>
      <trkpt lat="35.251313606277108" lon="24.038135893642902">
        <ele>1214.28</ele>
        <time>2016-06-11T08:17:05Z</time>
      </trkpt>
      <trkpt lat="35.251346211880445" lon="24.038147293031216">
        <ele>1214.76</ele>
        <time>2016-06-11T08:17:27Z</time>
      </trkpt>
      <trkpt lat="35.251356437802315" lon="24.038176797330379">
        <ele>1214.28</ele>
        <time>2016-06-11T08:17:53Z</time>
      </trkpt>
      <trkpt lat="35.251390384510159" lon="24.038231614977121">
        <ele>1212.3599999999999</ele>
        <time>2016-06-11T08:18:07Z</time>
      </trkpt>
      <trkpt lat="35.251439837738872" lon="24.038321301341057">
        <ele>1210.4400000000001</ele>
        <time>2016-06-11T08:18:21Z</time>
      </trkpt>
      <trkpt lat="35.251501696184278" lon="24.038469074293971">
        <ele>1209</ele>
        <time>2016-06-11T08:18:35Z</time>
      </trkpt>
      <trkpt lat="35.251530865207314" lon="24.038561107590795">
        <ele>1208.03</ele>
        <time>2016-06-11T08:18:47Z</time>
      </trkpt>
      <trkpt lat="35.251533966511488" lon="24.038562448695302">
        <ele>1208.03</ele>
        <time>2016-06-11T08:18:48Z</time>
      </trkpt>
      <trkpt lat="35.251582749187946" lon="24.03868599794805">
        <ele>1207.55</ele>
        <time>2016-06-11T08:19:02Z</time>
      </trkpt>
      <trkpt lat="35.251627927646041" lon="24.038889510557055">
        <ele>1206.1099999999999</ele>
        <time>2016-06-11T08:19:19Z</time>
      </trkpt>
      <trkpt lat="35.251632872968912" lon="24.038928151130676">
        <ele>1206.5899999999999</ele>
        <time>2016-06-11T08:19:22Z</time>
      </trkpt>
      <trkpt lat="35.251681907102466" lon="24.039077181369066">
        <ele>1205.1500000000001</ele>
        <time>2016-06-11T08:19:37Z</time>
      </trkpt>
      <trkpt lat="35.251735216006637" lon="24.039142979308963">
        <ele>1205.1500000000001</ele>
        <time>2016-06-11T08:19:53Z</time>
      </trkpt>
      <trkpt lat="35.251795817166567" lon="24.039244819432497">
        <ele>1205.1500000000001</ele>
        <time>2016-06-11T08:20:07Z</time>
      </trkpt>
      <trkpt lat="35.25180721655488" lon="24.039365686476231">
        <ele>1206.1099999999999</ele>
        <time>2016-06-11T08:20:20Z</time>
      </trkpt>
      <trkpt lat="35.251807635650039" lon="24.039512034505606">
        <ele>1206.5899999999999</ele>
        <time>2016-06-11T08:20:36Z</time>
      </trkpt>
      <trkpt lat="35.251820208504796" lon="24.0396090131253">
        <ele>1207.0699999999999</ele>
        <time>2016-06-11T08:20:50Z</time>
      </trkpt>
      <trkpt lat="35.251852478832006" lon="24.039666596800089">
        <ele>1208.51</ele>
        <time>2016-06-11T08:21:04Z</time>
      </trkpt>
      <trkpt lat="35.251854658126831" lon="24.039808753877878">
        <ele>1208.51</ele>
        <time>2016-06-11T08:21:20Z</time>
      </trkpt>
      <trkpt lat="35.251841247081757" lon="24.039915204048157">
        <ele>1208.03</ele>
        <time>2016-06-11T08:21:33Z</time>
      </trkpt>
      <trkpt lat="35.251862537115812" lon="24.040063563734293">
        <ele>1207.55</ele>
        <time>2016-06-11T08:21:47Z</time>
      </trkpt>
      <trkpt lat="35.251862201839685" lon="24.040214018896222">
        <ele>1207.0699999999999</ele>
        <time>2016-06-11T08:22:01Z</time>
      </trkpt>
      <trkpt lat="35.251896735280752" lon="24.040361624211073">
        <ele>1205.6300000000001</ele>
        <time>2016-06-11T08:22:17Z</time>
      </trkpt>
      <trkpt lat="35.251924311742187" lon="24.04044552706182">
        <ele>1205.6300000000001</ele>
        <time>2016-06-11T08:22:30Z</time>
      </trkpt>
      <trkpt lat="35.251971082761884" lon="24.040536554530263">
        <ele>1205.1500000000001</ele>
        <time>2016-06-11T08:22:40Z</time>
      </trkpt>
      <trkpt lat="35.252054398879409" lon="24.04062875546515">
        <ele>1203.71</ele>
        <time>2016-06-11T08:22:54Z</time>
      </trkpt>
      <trkpt lat="35.252106031402946" lon="24.04075875878334">
        <ele>1202.27</ele>
        <time>2016-06-11T08:23:08Z</time>
      </trkpt>
      <trkpt lat="35.252122795209289" lon="24.040897395461798">
        <ele>1202.75</ele>
        <time>2016-06-11T08:23:21Z</time>
      </trkpt>
      <trkpt lat="35.252124303951859" lon="24.040999906137586">
        <ele>1200.3399999999999</ele>
        <time>2016-06-11T08:23:34Z</time>
      </trkpt>
      <trkpt lat="35.252180630341172" lon="24.04111297801137">
        <ele>1200.3399999999999</ele>
        <time>2016-06-11T08:23:47Z</time>
      </trkpt>
      <trkpt lat="35.252194460481405" lon="24.041264690458775">
        <ele>1199.8599999999999</ele>
        <time>2016-06-11T08:24:01Z</time>
      </trkpt>
      <trkpt lat="35.252210134640336" lon="24.041414894163609">
        <ele>1198.4200000000001</ele>
        <time>2016-06-11T08:24:16Z</time>
      </trkpt>
      <trkpt lat="35.252265874296427" lon="24.041527546942234">
        <ele>1196.98</ele>
        <time>2016-06-11T08:24:30Z</time>
      </trkpt>
      <trkpt lat="35.252293953672051" lon="24.041643301025033">
        <ele>1195.54</ele>
        <time>2016-06-11T08:24:43Z</time>
      </trkpt>
      <trkpt lat="35.252368301153183" lon="24.041767939925194">
        <ele>1193.6099999999999</ele>
        <time>2016-06-11T08:24:59Z</time>
      </trkpt>
      <trkpt lat="35.252438960596919" lon="24.041870953515172">
        <ele>1193.1300000000001</ele>
        <time>2016-06-11T08:25:12Z</time>
      </trkpt>
      <trkpt lat="35.252513475716114" lon="24.041936583817005">
        <ele>1192.6500000000001</ele>
        <time>2016-06-11T08:25:28Z</time>
      </trkpt>
      <trkpt lat="35.252526132389903" lon="24.041983019560575">
        <ele>1193.1300000000001</ele>
        <time>2016-06-11T08:25:40Z</time>
      </trkpt>
      <trkpt lat="35.25251473300159" lon="24.041992742568254">
        <ele>1192.6500000000001</ele>
        <time>2016-06-11T08:26:01Z</time>
      </trkpt>
      <trkpt lat="35.25254750624299" lon="24.042014284059405">
        <ele>1192.6500000000001</ele>
        <time>2016-06-11T08:26:32Z</time>
      </trkpt>
      <trkpt lat="35.252549182623625" lon="24.041995760053396">
        <ele>1192.6500000000001</ele>
        <time>2016-06-11T08:27:02Z</time>
      </trkpt>
      <trkpt lat="35.252526048570871" lon="24.042021324858069">
        <ele>1192.6500000000001</ele>
        <time>2016-06-11T08:27:37Z</time>
      </trkpt>
      <trkpt lat="35.252512972801924" lon="24.041979750618339">
        <ele>1192.6500000000001</ele>
        <time>2016-06-11T08:28:09Z</time>
      </trkpt>
      <trkpt lat="35.25249570608139" lon="24.042008835822344">
        <ele>1192.1700000000001</ele>
        <time>2016-06-11T08:28:44Z</time>
      </trkpt>
      <trkpt lat="35.252513140439987" lon="24.042018391191959">
        <ele>1192.1700000000001</ele>
        <time>2016-06-11T08:29:06Z</time>
      </trkpt>
      <trkpt lat="35.252511966973543" lon="24.041958879679441">
        <ele>1191.6900000000001</ele>
        <time>2016-06-11T08:29:34Z</time>
      </trkpt>
      <trkpt lat="35.252479193732142" lon="24.041992323473096">
        <ele>1192.1700000000001</ele>
        <time>2016-06-11T08:30:00Z</time>
      </trkpt>
      <trkpt lat="35.252502830699086" lon="24.041994167491794">
        <ele>1192.1700000000001</ele>
        <time>2016-06-11T08:30:23Z</time>
      </trkpt>
      <trkpt lat="35.252514649182558" lon="24.041985869407654">
        <ele>1192.1700000000001</ele>
        <time>2016-06-11T08:30:54Z</time>
      </trkpt>
      <trkpt lat="35.252505009993911" lon="24.042019816115499">
        <ele>1191.21</ele>
        <time>2016-06-11T08:31:08Z</time>
      </trkpt>
      <trkpt lat="35.252554882317781" lon="24.042069939896464">
        <ele>1190.25</ele>
        <time>2016-06-11T08:31:21Z</time>
      </trkpt>
      <trkpt lat="35.252617578953505" lon="24.042135402560234">
        <ele>1189.77</ele>
        <time>2016-06-11T08:31:34Z</time>
      </trkpt>
      <trkpt lat="35.252654626965523" lon="24.042198518291116">
        <ele>1188.3299999999999</ele>
        <time>2016-06-11T08:31:47Z</time>
      </trkpt>
      <trkpt lat="35.252736015245318" lon="24.042218131944537">
        <ele>1186.8800000000001</ele>
        <time>2016-06-11T08:32:01Z</time>
      </trkpt>
      <trkpt lat="35.252806590870023" lon="24.042210085317492">
        <ele>1186.4000000000001</ele>
        <time>2016-06-11T08:32:12Z</time>
      </trkpt>
      <trkpt lat="35.25286266580224" lon="24.042258532717824">
        <ele>1184.96</ele>
        <time>2016-06-11T08:32:25Z</time>
      </trkpt>
      <trkpt lat="35.252935253083706" lon="24.042302202433348">
        <ele>1184.48</ele>
        <time>2016-06-11T08:32:39Z</time>
      </trkpt>
      <trkpt lat="35.252979844808578" lon="24.042354756966233">
        <ele>1183.04</ele>
        <time>2016-06-11T08:32:50Z</time>
      </trkpt>
      <trkpt lat="35.253019155934453" lon="24.042436648160219">
        <ele>1183.52</ele>
        <time>2016-06-11T08:33:03Z</time>
      </trkpt>
      <trkpt lat="35.25308495387435" lon="24.042564304545522">
        <ele>1183.52</ele>
        <time>2016-06-11T08:33:20Z</time>
      </trkpt>
      <trkpt lat="35.253118397668004" lon="24.042680142447352">
        <ele>1182.5599999999999</ele>
        <time>2016-06-11T08:33:33Z</time>
      </trkpt>
      <trkpt lat="35.253171203657985" lon="24.042787179350853">
        <ele>1180.6400000000001</ele>
        <time>2016-06-11T08:33:45Z</time>
      </trkpt>
      <trkpt lat="35.253245299682021" lon="24.042884912341833">
        <ele>1178.71</ele>
        <time>2016-06-11T08:33:58Z</time>
      </trkpt>
      <trkpt lat="35.253298608586192" lon="24.042951129376888">
        <ele>1176.79</ele>
        <time>2016-06-11T08:34:11Z</time>
      </trkpt>
      <trkpt lat="35.253369435667992" lon="24.043052215129137">
        <ele>1174.3900000000001</ele>
        <time>2016-06-11T08:34:27Z</time>
      </trkpt>
      <trkpt lat="35.253447387367487" lon="24.04316084459424">
        <ele>1172.47</ele>
        <time>2016-06-11T08:34:41Z</time>
      </trkpt>
      <trkpt lat="35.253474293276668" lon="24.043244328349829">
        <ele>1171.98</ele>
        <time>2016-06-11T08:34:53Z</time>
      </trkpt>
      <trkpt lat="35.253499187529087" lon="24.043348766863346">
        <ele>1171.5</ele>
        <time>2016-06-11T08:35:07Z</time>
      </trkpt>
      <trkpt lat="35.2535105869174" lon="24.043436022475362">
        <ele>1170.0599999999999</ele>
        <time>2016-06-11T08:35:21Z</time>
      </trkpt>
      <trkpt lat="35.253523662686348" lon="24.043466616421938">
        <ele>1169.5799999999999</ele>
        <time>2016-06-11T08:35:25Z</time>
      </trkpt>
      <trkpt lat="35.253562806174159" lon="24.043590249493718">
        <ele>1167.6600000000001</ele>
        <time>2016-06-11T08:35:39Z</time>
      </trkpt>
      <trkpt lat="35.253646289929748" lon="24.0437086019665">
        <ele>1166.22</ele>
        <time>2016-06-11T08:35:53Z</time>
      </trkpt>
      <trkpt lat="35.253656851127744" lon="24.043723605573177">
        <ele>1165.74</ele>
        <time>2016-06-11T08:35:55Z</time>
      </trkpt>
      <trkpt lat="35.253742765635252" lon="24.043878670781851">
        <ele>1164.77</ele>
        <time>2016-06-11T08:36:09Z</time>
      </trkpt>
      <trkpt lat="35.253780651837587" lon="24.043930303305387">
        <ele>1164.77</ele>
        <time>2016-06-11T08:36:20Z</time>
      </trkpt>
      <trkpt lat="35.253829937428236" lon="24.044041112065315">
        <ele>1164.29</ele>
        <time>2016-06-11T08:36:33Z</time>
      </trkpt>
      <trkpt lat="35.253865895792842" lon="24.044159548357129">
        <ele>1163.8099999999999</ele>
        <time>2016-06-11T08:36:44Z</time>
      </trkpt>
      <trkpt lat="35.253888946026564" lon="24.044314613565803">
        <ele>1165.74</ele>
        <time>2016-06-11T08:36:57Z</time>
      </trkpt>
      <trkpt lat="35.253971675410867" lon="24.044467164203525">
        <ele>1165.74</ele>
        <time>2016-06-11T08:37:14Z</time>
      </trkpt>
      <trkpt lat="35.254077790305018" lon="24.044600268825889">
        <ele>1164.29</ele>
        <time>2016-06-11T08:37:30Z</time>
      </trkpt>
      <trkpt lat="35.254106288775802" lon="24.044665982946754">
        <ele>1165.26</ele>
        <time>2016-06-11T08:37:42Z</time>
      </trkpt>
      <trkpt lat="35.254064882174134" lon="24.04476304538548">
        <ele>1165.74</ele>
        <time>2016-06-11T08:37:54Z</time>
      </trkpt>
      <trkpt lat="35.254028923809528" lon="24.044936215505004">
        <ele>1166.7</ele>
        <time>2016-06-11T08:38:08Z</time>
      </trkpt>
      <trkpt lat="35.253982739523053" lon="24.04502053745091">
        <ele>1166.7</ele>
        <time>2016-06-11T08:38:20Z</time>
      </trkpt>
      <trkpt lat="35.253967652097344" lon="24.045137967914343">
        <ele>1166.7</ele>
        <time>2016-06-11T08:38:33Z</time>
      </trkpt>
      <trkpt lat="35.253946864977479" lon="24.045266965404153">
        <ele>1167.1800000000001</ele>
        <time>2016-06-11T08:38:46Z</time>
      </trkpt>
      <trkpt lat="35.25394007563591" lon="24.045385904610157">
        <ele>1166.22</ele>
        <time>2016-06-11T08:38:58Z</time>
      </trkpt>
      <trkpt lat="35.253963796421885" lon="24.045516578480601">
        <ele>1166.7</ele>
        <time>2016-06-11T08:39:13Z</time>
      </trkpt>
      <trkpt lat="35.253996234387159" lon="24.045520601794124">
        <ele>1167.1800000000001</ele>
        <time>2016-06-11T08:39:32Z</time>
      </trkpt>
      <trkpt lat="35.254006795585155" lon="24.045550525188446">
        <ele>1166.7</ele>
        <time>2016-06-11T08:39:57Z</time>
      </trkpt>
      <trkpt lat="35.254008639603853" lon="24.045671140775084">
        <ele>1167.6600000000001</ele>
        <time>2016-06-11T08:40:12Z</time>
      </trkpt>
      <trkpt lat="35.2540338691324" lon="24.045770214870572">
        <ele>1167.6600000000001</ele>
        <time>2016-06-11T08:40:27Z</time>
      </trkpt>
      <trkpt lat="35.254036467522383" lon="24.045888902619481">
        <ele>1166.7</ele>
        <time>2016-06-11T08:40:41Z</time>
      </trkpt>
      <trkpt lat="35.254055075347424" lon="24.046020917594433">
        <ele>1165.26</ele>
        <time>2016-06-11T08:40:55Z</time>
      </trkpt>
      <trkpt lat="35.25410913862288" lon="24.046118231490254">
        <ele>1164.29</ele>
        <time>2016-06-11T08:41:07Z</time>
      </trkpt>
      <trkpt lat="35.254162615165114" lon="24.046238847076893">
        <ele>1164.77</ele>
        <time>2016-06-11T08:41:21Z</time>
      </trkpt>
      <trkpt lat="35.254211649298668" lon="24.046325767412782">
        <ele>1164.29</ele>
        <time>2016-06-11T08:41:34Z</time>
      </trkpt>
      <trkpt lat="35.254252888262272" lon="24.046408580616117">
        <ele>1164.29</ele>
        <time>2016-06-11T08:41:46Z</time>
      </trkpt>
      <trkpt lat="35.2542928699404" lon="24.046461302787066">
        <ele>1164.29</ele>
        <time>2016-06-11T08:42:06Z</time>
      </trkpt>
      <trkpt lat="35.254324385896325" lon="24.04653774574399">
        <ele>1163.3299999999999</ele>
        <time>2016-06-11T08:42:18Z</time>
      </trkpt>
      <trkpt lat="35.254361014813185" lon="24.046648470684886">
        <ele>1162.3699999999999</ele>
        <time>2016-06-11T08:42:33Z</time>
      </trkpt>
      <trkpt lat="35.254365205764771" lon="24.046745114028454">
        <ele>1161.4100000000001</ele>
        <time>2016-06-11T08:42:47Z</time>
      </trkpt>
      <trkpt lat="35.254338635131717" lon="24.04682407155633">
        <ele>1161.8900000000001</ele>
        <time>2016-06-11T08:43:01Z</time>
      </trkpt>
      <trkpt lat="35.25435296818614" lon="24.046930437907577">
        <ele>1160.9300000000001</ele>
        <time>2016-06-11T08:43:14Z</time>
      </trkpt>
      <trkpt lat="35.254349363967776" lon="24.047031607478857">
        <ele>1161.4100000000001</ele>
        <time>2016-06-11T08:43:31Z</time>
      </trkpt>
      <trkpt lat="35.254323044791818" lon="24.047124730423093">
        <ele>1159.97</ele>
        <time>2016-06-11T08:43:44Z</time>
      </trkpt>
      <trkpt lat="35.254302928224206" lon="24.047156078740954">
        <ele>1160.45</ele>
        <time>2016-06-11T08:43:57Z</time>
      </trkpt>
      <trkpt lat="35.254295635968447" lon="24.047197485342622">
        <ele>1160.9300000000001</ele>
        <time>2016-06-11T08:44:11Z</time>
      </trkpt>
      <trkpt lat="35.254309549927711" lon="24.047234198078513">
        <ele>1160.9300000000001</ele>
        <time>2016-06-11T08:44:37Z</time>
      </trkpt>
      <trkpt lat="35.25428893044591" lon="24.047267138957977">
        <ele>1160.45</ele>
        <time>2016-06-11T08:44:52Z</time>
      </trkpt>
      <trkpt lat="35.254268730059266" lon="24.047308629378676">
        <ele>1159.49</ele>
        <time>2016-06-11T08:45:07Z</time>
      </trkpt>
      <trkpt lat="35.25426940061152" lon="24.047357579693198">
        <ele>1160.9300000000001</ele>
        <time>2016-06-11T08:45:21Z</time>
      </trkpt>
      <trkpt lat="35.254287086427212" lon="24.047353472560644">
        <ele>1160.45</ele>
        <time>2016-06-11T08:45:40Z</time>
      </trkpt>
      <trkpt lat="35.254262359812856" lon="24.04742019250989">
        <ele>1160.9300000000001</ele>
        <time>2016-06-11T08:45:54Z</time>
      </trkpt>
      <trkpt lat="35.254259761422873" lon="24.047425556927919">
        <ele>1161.4100000000001</ele>
        <time>2016-06-11T08:45:55Z</time>
      </trkpt>
      <trkpt lat="35.254251128062606" lon="24.047528402879834">
        <ele>1161.8900000000001</ele>
        <time>2016-06-11T08:46:07Z</time>
      </trkpt>
      <trkpt lat="35.254231095314026" lon="24.047588501125574">
        <ele>1161.4100000000001</ele>
        <time>2016-06-11T08:46:19Z</time>
      </trkpt>
      <trkpt lat="35.254279039800167" lon="24.047642396762967">
        <ele>1160.9300000000001</ele>
        <time>2016-06-11T08:46:47Z</time>
      </trkpt>
      <trkpt lat="35.254290942102671" lon="24.047595374286175">
        <ele>1160.9300000000001</ele>
        <time>2016-06-11T08:47:19Z</time>
      </trkpt>
      <trkpt lat="35.254267556592822" lon="24.047604762017727">
        <ele>1160.9300000000001</ele>
        <time>2016-06-11T08:47:43Z</time>
      </trkpt>
      <trkpt lat="35.254246853291988" lon="24.047680199146271">
        <ele>1160.45</ele>
        <time>2016-06-11T08:47:57Z</time>
      </trkpt>
      <trkpt lat="35.254227742552757" lon="24.047767790034413">
        <ele>1159.49</ele>
        <time>2016-06-11T08:48:14Z</time>
      </trkpt>
      <trkpt lat="35.25421030819416" lon="24.047877928242087">
        <ele>1159.01</ele>
        <time>2016-06-11T08:48:28Z</time>
      </trkpt>
      <trkpt lat="35.254191868007183" lon="24.047987731173635">
        <ele>1159.01</ele>
        <time>2016-06-11T08:48:40Z</time>
      </trkpt>
      <trkpt lat="35.254180552437901" lon="24.048035675659776">
        <ele>1159.49</ele>
        <time>2016-06-11T08:48:52Z</time>
      </trkpt>
      <trkpt lat="35.254181139171124" lon="24.048184454441071">
        <ele>1158.53</ele>
        <time>2016-06-11T08:49:09Z</time>
      </trkpt>
      <trkpt lat="35.254211062565446" lon="24.048261400312185">
        <ele>1158.53</ele>
        <time>2016-06-11T08:49:23Z</time>
      </trkpt>
      <trkpt lat="35.254225982353091" lon="24.048326946794987">
        <ele>1157.0799999999999</ele>
        <time>2016-06-11T08:49:37Z</time>
      </trkpt>
      <trkpt lat="35.254240734502673" lon="24.048419650644064">
        <ele>1153.72</ele>
        <time>2016-06-11T08:49:53Z</time>
      </trkpt>
      <trkpt lat="35.254250457510352" lon="24.04855091124773">
        <ele>1153.72</ele>
        <time>2016-06-11T08:50:07Z</time>
      </trkpt>
      <trkpt lat="35.254281722009182" lon="24.048694912344217">
        <ele>1152.28</ele>
        <time>2016-06-11T08:50:20Z</time>
      </trkpt>
      <trkpt lat="35.254344418644905" lon="24.048811085522175">
        <ele>1151.3199999999999</ele>
        <time>2016-06-11T08:50:35Z</time>
      </trkpt>
      <trkpt lat="35.25435489602387" lon="24.04888903722167">
        <ele>1150.8399999999999</ele>
        <time>2016-06-11T08:50:47Z</time>
      </trkpt>
      <trkpt lat="35.254364954307675" lon="24.048900939524174">
        <ele>1150.8399999999999</ele>
        <time>2016-06-11T08:51:00Z</time>
      </trkpt>
      <trkpt lat="35.254377108067274" lon="24.048961540684104">
        <ele>1149.8699999999999</ele>
        <time>2016-06-11T08:51:15Z</time>
      </trkpt>
      <trkpt lat="35.254375850781798" lon="24.049037396907806">
        <ele>1149.3900000000001</ele>
        <time>2016-06-11T08:51:29Z</time>
      </trkpt>
      <trkpt lat="35.254342323169112" lon="24.049110151827335">
        <ele>1149.3900000000001</ele>
        <time>2016-06-11T08:51:42Z</time>
      </trkpt>
      <trkpt lat="35.254325810819864" lon="24.049140578135848">
        <ele>1150.3499999999999</ele>
        <time>2016-06-11T08:51:55Z</time>
      </trkpt>
      <trkpt lat="35.254318686202168" lon="24.049208220094442">
        <ele>1150.8399999999999</ele>
        <time>2016-06-11T08:52:14Z</time>
      </trkpt>
      <trkpt lat="35.254306783899665" lon="24.049243675544858">
        <ele>1151.3199999999999</ele>
        <time>2016-06-11T08:52:28Z</time>
      </trkpt>
      <trkpt lat="35.254304353147745" lon="24.049306288361549">
        <ele>1151.3199999999999</ele>
        <time>2016-06-11T08:52:42Z</time>
      </trkpt>
      <trkpt lat="35.25428356602788" lon="24.049397902563214">
        <ele>1150.8399999999999</ele>
        <time>2016-06-11T08:52:54Z</time>
      </trkpt>
      <trkpt lat="35.254271663725376" lon="24.04949638992548">
        <ele>1149.8699999999999</ele>
        <time>2016-06-11T08:53:08Z</time>
      </trkpt>
      <trkpt lat="35.254251295700669" lon="24.049605019390583">
        <ele>1148.4300000000001</ele>
        <time>2016-06-11T08:53:22Z</time>
      </trkpt>
      <trkpt lat="35.254223216325045" lon="24.049698645249009">
        <ele>1147.47</ele>
        <time>2016-06-11T08:53:34Z</time>
      </trkpt>
      <trkpt lat="35.254215588793159" lon="24.049712140113115">
        <ele>1146.03</ele>
        <time>2016-06-11T08:53:36Z</time>
      </trkpt>
      <trkpt lat="35.254194969311357" lon="24.049765784293413">
        <ele>1145.55</ele>
        <time>2016-06-11T08:53:49Z</time>
      </trkpt>
      <trkpt lat="35.254179630428553" lon="24.049911880865693">
        <ele>1144.1099999999999</ele>
        <time>2016-06-11T08:54:04Z</time>
      </trkpt>
      <trkpt lat="35.254167895764112" lon="24.050024952739477">
        <ele>1142.6600000000001</ele>
        <time>2016-06-11T08:54:17Z</time>
      </trkpt>
      <trkpt lat="35.254167644307017" lon="24.050135593861341">
        <ele>1142.6600000000001</ele>
        <time>2016-06-11T08:54:31Z</time>
      </trkpt>
      <trkpt lat="35.254167728126049" lon="24.050217233598232">
        <ele>1141.22</ele>
        <time>2016-06-11T08:54:46Z</time>
      </trkpt>
      <trkpt lat="35.254187257960439" lon="24.05028847977519">
        <ele>1139.78</ele>
        <time>2016-06-11T08:54:59Z</time>
      </trkpt>
      <trkpt lat="35.254207039251924" lon="24.050431391224265">
        <ele>1137.8599999999999</ele>
        <time>2016-06-11T08:55:16Z</time>
      </trkpt>
      <trkpt lat="35.254210392013192" lon="24.050554940477014">
        <ele>1136.9000000000001</ele>
        <time>2016-06-11T08:55:32Z</time>
      </trkpt>
      <trkpt lat="35.254232687875628" lon="24.050588300451636">
        <ele>1135.9400000000001</ele>
        <time>2016-06-11T08:55:45Z</time>
      </trkpt>
      <trkpt lat="35.25423813611269" lon="24.050630712881684">
        <ele>1136.4200000000001</ele>
        <time>2016-06-11T08:58:07Z</time>
      </trkpt>
      <trkpt lat="35.254231011494994" lon="24.050657618790865">
        <ele>1134.97</ele>
        <time>2016-06-11T08:58:12Z</time>
      </trkpt>
      <trkpt lat="35.254226233810186" lon="24.050706401467323">
        <ele>1134.01</ele>
        <time>2016-06-11T08:58:24Z</time>
      </trkpt>
      <trkpt lat="35.254231095314026" lon="24.050769517198205">
        <ele>1132.0899999999999</ele>
        <time>2016-06-11T08:58:36Z</time>
      </trkpt>
      <trkpt lat="35.254246518015862" lon="24.05082986690104">
        <ele>1130.1700000000001</ele>
        <time>2016-06-11T08:58:47Z</time>
      </trkpt>
      <trkpt lat="35.254239812493324" lon="24.050916535779834">
        <ele>1129.6900000000001</ele>
        <time>2016-06-11T08:59:00Z</time>
      </trkpt>
      <trkpt lat="35.254238387569785" lon="24.050943357869983">
        <ele>1128.73</ele>
        <time>2016-06-11T08:59:11Z</time>
      </trkpt>
      <trkpt lat="35.254212403669953" lon="24.050998510792851">
        <ele>1129.6900000000001</ele>
        <time>2016-06-11T08:59:23Z</time>
      </trkpt>
      <trkpt lat="35.254191113635898" lon="24.051052238792181">
        <ele>1130.6500000000001</ele>
        <time>2016-06-11T08:59:36Z</time>
      </trkpt>
      <trkpt lat="35.254177451133728" lon="24.051123401150107">
        <ele>1131.1300000000001</ele>
        <time>2016-06-11T08:59:50Z</time>
      </trkpt>
      <trkpt lat="35.254224222153425" lon="24.051193557679653">
        <ele>1132.5699999999999</ele>
        <time>2016-06-11T09:00:04Z</time>
      </trkpt>
      <trkpt lat="35.254225982353091" lon="24.051195904612541">
        <ele>1132.5699999999999</ele>
        <time>2016-06-11T09:00:05Z</time>
      </trkpt>
      <trkpt lat="35.254219779744744" lon="24.051214009523392">
        <ele>1132.5699999999999</ele>
        <time>2016-06-11T09:00:16Z</time>
      </trkpt>
      <trkpt lat="35.25422883220017" lon="24.051264133304358">
        <ele>1134.01</ele>
        <time>2016-06-11T09:00:29Z</time>
      </trkpt>
      <trkpt lat="35.254221791401505" lon="24.051327668130398">
        <ele>1134.01</ele>
        <time>2016-06-11T09:00:40Z</time>
      </trkpt>
      <trkpt lat="35.254237465560436" lon="24.05131945386529">
        <ele>1133.53</ele>
        <time>2016-06-11T09:00:55Z</time>
      </trkpt>
      <trkpt lat="35.254245679825544" lon="24.051378881558776">
        <ele>1133.53</ele>
        <time>2016-06-11T09:01:11Z</time>
      </trkpt>
      <trkpt lat="35.254250541329384" lon="24.051437638700008">
        <ele>1132.5699999999999</ele>
        <time>2016-06-11T09:01:25Z</time>
      </trkpt>
      <trkpt lat="35.254287589341402" lon="24.051479632034898">
        <ele>1133.53</ele>
        <time>2016-06-11T09:01:39Z</time>
      </trkpt>
      <trkpt lat="35.254313237965107" lon="24.051499245688319">
        <ele>1135.45</ele>
        <time>2016-06-11T09:01:56Z</time>
      </trkpt>
      <trkpt lat="35.25431483052671" lon="24.0515002515167">
        <ele>1135.45</ele>
        <time>2016-06-11T09:01:57Z</time>
      </trkpt>
      <trkpt lat="35.254328912124038" lon="24.051533527672291">
        <ele>1135.9400000000001</ele>
        <time>2016-06-11T09:02:08Z</time>
      </trkpt>
      <trkpt lat="35.254357075318694" lon="24.051553476601839">
        <ele>1136.9000000000001</ele>
        <time>2016-06-11T09:02:27Z</time>
      </trkpt>
      <trkpt lat="35.254359841346741" lon="24.051590524613857">
        <ele>1138.8199999999999</ele>
        <time>2016-06-11T09:02:44Z</time>
      </trkpt>
      <trkpt lat="35.254374006763101" lon="24.051630171015859">
        <ele>1140.74</ele>
        <time>2016-06-11T09:03:06Z</time>
      </trkpt>
      <trkpt lat="35.254386160522699" lon="24.05164442025125">
        <ele>1141.7</ele>
        <time>2016-06-11T09:03:21Z</time>
      </trkpt>
      <trkpt lat="35.254362942650914" lon="24.051663866266608">
        <ele>1139.78</ele>
        <time>2016-06-11T09:03:38Z</time>
      </trkpt>
      <trkpt lat="35.254321452230215" lon="24.051643079146743">
        <ele>1138.3399999999999</ele>
        <time>2016-06-11T09:03:48Z</time>
      </trkpt>
      <trkpt lat="35.254260934889317" lon="24.05159454792738">
        <ele>1137.3800000000001</ele>
        <time>2016-06-11T09:04:02Z</time>
      </trkpt>
      <trkpt lat="35.254261773079634" lon="24.05155498534441">
        <ele>1135.9400000000001</ele>
        <time>2016-06-11T09:04:19Z</time>
      </trkpt>
      <trkpt lat="35.254224725067616" lon="24.05152028426528">
        <ele>1133.53</ele>
        <time>2016-06-11T09:04:31Z</time>
      </trkpt>
      <trkpt lat="35.254224892705679" lon="24.05151441693306">
        <ele>1133.53</ele>
        <time>2016-06-11T09:04:46Z</time>
      </trkpt>
      <trkpt lat="35.25422589853406" lon="24.051507962867618">
        <ele>1133.53</ele>
        <time>2016-06-11T09:04:47Z</time>
      </trkpt>
      <trkpt lat="35.254189940169454" lon="24.051472507417202">
        <ele>1132.0899999999999</ele>
        <time>2016-06-11T09:05:00Z</time>
      </trkpt>
      <trkpt lat="35.254183486104012" lon="24.05146655626595">
        <ele>1132.0899999999999</ele>
        <time>2016-06-11T09:05:13Z</time>
      </trkpt>
      <trkpt lat="35.254192035645247" lon="24.051461527124047">
        <ele>1132.5699999999999</ele>
        <time>2016-06-11T09:05:27Z</time>
      </trkpt>
      <trkpt lat="35.254228748381138" lon="24.051406374201179">
        <ele>1134.01</ele>
        <time>2016-06-11T09:05:39Z</time>
      </trkpt>
      <trkpt lat="35.254221959039569" lon="24.051363375037909">
        <ele>1133.53</ele>
        <time>2016-06-11T09:05:50Z</time>
      </trkpt>
      <trkpt lat="35.254226485267282" lon="24.051354406401515">
        <ele>1134.01</ele>
        <time>2016-06-11T09:06:04Z</time>
      </trkpt>
      <trkpt lat="35.25426059961319" lon="24.051356166601181">
        <ele>1132.5699999999999</ele>
        <time>2016-06-11T09:06:26Z</time>
      </trkpt>
      <trkpt lat="35.254239812493324" lon="24.051387347280979">
        <ele>1133.05</ele>
        <time>2016-06-11T09:06:41Z</time>
      </trkpt>
      <trkpt lat="35.254244087263942" lon="24.051419449970126">
        <ele>1132.5699999999999</ele>
        <time>2016-06-11T09:06:58Z</time>
      </trkpt>
      <trkpt lat="35.254259258508682" lon="24.051437806338072">
        <ele>1132.0899999999999</ele>
        <time>2016-06-11T09:07:12Z</time>
      </trkpt>
      <trkpt lat="35.254270993173122" lon="24.051479967311025">
        <ele>1132.0899999999999</ele>
        <time>2016-06-11T09:07:33Z</time>
      </trkpt>
      <trkpt lat="35.254319608211517" lon="24.05152372084558">
        <ele>1133.53</ele>
        <time>2016-06-11T09:07:50Z</time>
      </trkpt>
      <trkpt lat="35.254345173016191" lon="24.051544507965446">
        <ele>1134.01</ele>
        <time>2016-06-11T09:08:05Z</time>
      </trkpt>
      <trkpt lat="35.254360260441899" lon="24.051569988951087">
        <ele>1135.9400000000001</ele>
        <time>2016-06-11T09:08:20Z</time>
      </trkpt>
      <trkpt lat="35.254383897408843" lon="24.05154668726027">
        <ele>1136.9000000000001</ele>
        <time>2016-06-11T09:08:34Z</time>
      </trkpt>
      <trkpt lat="35.254398733377457" lon="24.051542244851589">
        <ele>1138.3399999999999</ele>
        <time>2016-06-11T09:08:50Z</time>
      </trkpt>
      <trkpt lat="35.25443309918046" lon="24.051575185731053">
        <ele>1140.74</ele>
        <time>2016-06-11T09:09:04Z</time>
      </trkpt>
      <trkpt lat="35.254443157464266" lon="24.051565797999501">
        <ele>1145.55</ele>
        <time>2016-06-11T09:29:39Z</time>
      </trkpt>
      <trkpt lat="35.254412060603499" lon="24.051551045849919">
        <ele>1143.6300000000001</ele>
        <time>2016-06-11T09:29:54Z</time>
      </trkpt>
      <trkpt lat="35.254417257383466" lon="24.051576778292656">
        <ele>1142.1800000000001</ele>
        <time>2016-06-11T09:30:08Z</time>
      </trkpt>
      <trkpt lat="35.254373336210847" lon="24.051579879596829">
        <ele>1141.7</ele>
        <time>2016-06-11T09:30:24Z</time>
      </trkpt>
      <trkpt lat="35.254334695637226" lon="24.051571413874626">
        <ele>1139.78</ele>
        <time>2016-06-11T09:30:38Z</time>
      </trkpt>
      <trkpt lat="35.254272250458598" lon="24.051519446074963">
        <ele>1138.3399999999999</ele>
        <time>2016-06-11T09:30:51Z</time>
      </trkpt>
      <trkpt lat="35.254241153597832" lon="24.05146705918014">
        <ele>1136.9000000000001</ele>
        <time>2016-06-11T09:31:04Z</time>
      </trkpt>
      <trkpt lat="35.25416387245059" lon="24.051402267068624">
        <ele>1138.8199999999999</ele>
        <time>2016-06-11T09:31:17Z</time>
      </trkpt>
      <trkpt lat="35.254139397293329" lon="24.051364297047257">
        <ele>1138.3399999999999</ele>
        <time>2016-06-11T09:31:28Z</time>
      </trkpt>
      <trkpt lat="35.254162196069956" lon="24.051254913210869">
        <ele>1137.8599999999999</ele>
        <time>2016-06-11T09:31:41Z</time>
      </trkpt>
      <trkpt lat="35.254159513860941" lon="24.051207471638918">
        <ele>1135.9400000000001</ele>
        <time>2016-06-11T09:31:55Z</time>
      </trkpt>
      <trkpt lat="35.254162615165114" lon="24.051202274858952">
        <ele>1135.9400000000001</ele>
        <time>2016-06-11T09:31:56Z</time>
      </trkpt>
      <trkpt lat="35.25415213778615" lon="24.051145948469639">
        <ele>1134.49</ele>
        <time>2016-06-11T09:32:08Z</time>
      </trkpt>
      <trkpt lat="35.254179881885648" lon="24.051101440563798">
        <ele>1134.01</ele>
        <time>2016-06-11T09:32:17Z</time>
      </trkpt>
      <trkpt lat="35.254201674833894" lon="24.051081826910377">
        <ele>1134.49</ele>
        <time>2016-06-11T09:32:19Z</time>
      </trkpt>
      <trkpt lat="35.254190945997834" lon="24.051013765856624">
        <ele>1132.5699999999999</ele>
        <time>2016-06-11T09:32:33Z</time>
      </trkpt>
      <trkpt lat="35.254135457798839" lon="24.050986440852284">
        <ele>1131.6099999999999</ele>
        <time>2016-06-11T09:32:46Z</time>
      </trkpt>
      <trkpt lat="35.254077119752765" lon="24.050997672602534">
        <ele>1129.6900000000001</ele>
        <time>2016-06-11T09:33:01Z</time>
      </trkpt>
      <trkpt lat="35.254072928801179" lon="24.050965737551451">
        <ele>1128.73</ele>
        <time>2016-06-11T09:33:14Z</time>
      </trkpt>
      <trkpt lat="35.254048705101013" lon="24.050934556871653">
        <ele>1127.76</ele>
        <time>2016-06-11T09:33:30Z</time>
      </trkpt>
      <trkpt lat="35.254013165831566" lon="24.050938664004207">
        <ele>1127.28</ele>
        <time>2016-06-11T09:33:43Z</time>
      </trkpt>
      <trkpt lat="35.253974189981818" lon="24.050937155261636">
        <ele>1125.3599999999999</ele>
        <time>2016-06-11T09:33:57Z</time>
      </trkpt>
      <trkpt lat="35.253940159454942" lon="24.050918463617563">
        <ele>1124.4000000000001</ele>
        <time>2016-06-11T09:34:08Z</time>
      </trkpt>
      <trkpt lat="35.253929430618882" lon="24.050913183018565">
        <ele>1123.4400000000001</ele>
        <time>2016-06-11T09:34:21Z</time>
      </trkpt>
      <trkpt lat="35.253913505002856" lon="24.050917541608214">
        <ele>1122.96</ele>
        <time>2016-06-11T09:34:25Z</time>
      </trkpt>
      <trkpt lat="35.253868326544762" lon="24.050923408940434">
        <ele>1122</ele>
        <time>2016-06-11T09:34:37Z</time>
      </trkpt>
      <trkpt lat="35.253814430907369" lon="24.050942016765475">
        <ele>1120.55</ele>
        <time>2016-06-11T09:34:49Z</time>
      </trkpt>
      <trkpt lat="35.253763133659959" lon="24.050951907411218">
        <ele>1118.1500000000001</ele>
        <time>2016-06-11T09:35:01Z</time>
      </trkpt>
      <trkpt lat="35.253698341548443" lon="24.050949141383171">
        <ele>1115.75</ele>
        <time>2016-06-11T09:35:13Z</time>
      </trkpt>
      <trkpt lat="35.253657437860966" lon="24.05093933455646">
        <ele>1113.8199999999999</ele>
        <time>2016-06-11T09:35:24Z</time>
      </trkpt>
      <trkpt lat="35.253644697368145" lon="24.050913350656629">
        <ele>1113.8199999999999</ele>
        <time>2016-06-11T09:35:36Z</time>
      </trkpt>
      <trkpt lat="35.253629526123405" lon="24.050921984016895">
        <ele>1112.8599999999999</ele>
        <time>2016-06-11T09:35:46Z</time>
      </trkpt>
      <trkpt lat="35.253567500039935" lon="24.050958110019565">
        <ele>1112.3800000000001</ele>
        <time>2016-06-11T09:35:58Z</time>
      </trkpt>
      <trkpt lat="35.253549311310053" lon="24.050957690924406">
        <ele>1111.4200000000001</ele>
        <time>2016-06-11T09:36:03Z</time>
      </trkpt>
      <trkpt lat="35.253507234156132" lon="24.050965486094356">
        <ele>1109.98</ele>
        <time>2016-06-11T09:36:17Z</time>
      </trkpt>
      <trkpt lat="35.253497427329421" lon="24.050942603498697">
        <ele>1109.5</ele>
        <time>2016-06-11T09:36:27Z</time>
      </trkpt>
      <trkpt lat="35.253463145345449" lon="24.05094712972641">
        <ele>1108.0599999999999</ele>
        <time>2016-06-11T09:36:39Z</time>
      </trkpt>
      <trkpt lat="35.253445375710726" lon="24.050923911854625">
        <ele>1107.0999999999999</ele>
        <time>2016-06-11T09:36:51Z</time>
      </trkpt>
      <trkpt lat="35.25339818559587" lon="24.050895581021905">
        <ele>1106.1300000000001</ele>
        <time>2016-06-11T09:37:05Z</time>
      </trkpt>
      <trkpt lat="35.253355940803885" lon="24.050890384241939">
        <ele>1104.6900000000001</ele>
        <time>2016-06-11T09:37:15Z</time>
      </trkpt>
      <trkpt lat="35.25334001518786" lon="24.050856353715062">
        <ele>1104.21</ele>
        <time>2016-06-11T09:37:27Z</time>
      </trkpt>
      <trkpt lat="35.253317970782518" lon="24.050840763375163">
        <ele>1103.25</ele>
        <time>2016-06-11T09:37:36Z</time>
      </trkpt>
      <trkpt lat="35.25327798910439" lon="24.050835063681006">
        <ele>1100.8499999999999</ele>
        <time>2016-06-11T09:37:49Z</time>
      </trkpt>
      <trkpt lat="35.253267176449299" lon="24.050848810002208">
        <ele>1100.3699999999999</ele>
        <time>2016-06-11T09:38:01Z</time>
      </trkpt>
      <trkpt lat="35.253261895850301" lon="24.050854425877333">
        <ele>1099.8900000000001</ele>
        <time>2016-06-11T09:38:16Z</time>
      </trkpt>
      <trkpt lat="35.253267092630267" lon="24.050855934619904">
        <ele>1098.4400000000001</ele>
        <time>2016-06-11T09:38:39Z</time>
      </trkpt>
      <trkpt lat="35.253249993547797" lon="24.050862640142441">
        <ele>1098.4400000000001</ele>
        <time>2016-06-11T09:38:42Z</time>
      </trkpt>
      <trkpt lat="35.253208922222257" lon="24.050859622657299">
        <ele>1096.52</ele>
        <time>2016-06-11T09:38:56Z</time>
      </trkpt>
      <trkpt lat="35.253191320225596" lon="24.050865657627583">
        <ele>1096.52</ele>
        <time>2016-06-11T09:39:12Z</time>
      </trkpt>
      <trkpt lat="35.253161648288369" lon="24.050863981246948">
        <ele>1095.0799999999999</ele>
        <time>2016-06-11T09:39:28Z</time>
      </trkpt>
      <trkpt lat="35.253133988007903" lon="24.050877057015896">
        <ele>1095.5599999999999</ele>
        <time>2016-06-11T09:39:44Z</time>
      </trkpt>
      <trkpt lat="35.253103729337454" lon="24.050871608778834">
        <ele>1095.0799999999999</ele>
        <time>2016-06-11T09:39:56Z</time>
      </trkpt>
      <trkpt lat="35.25309375487268" lon="24.050860293209553">
        <ele>1094.1199999999999</ele>
        <time>2016-06-11T09:40:14Z</time>
      </trkpt>
      <trkpt lat="35.253067184239626" lon="24.05085769481957">
        <ele>1093.6400000000001</ele>
        <time>2016-06-11T09:40:28Z</time>
      </trkpt>
      <trkpt lat="35.25305075570941" lon="24.050857862457633">
        <ele>1092.2</ele>
        <time>2016-06-11T09:40:41Z</time>
      </trkpt>
      <trkpt lat="35.253021586686373" lon="24.050863813608885">
        <ele>1090.75</ele>
        <time>2016-06-11T09:40:55Z</time>
      </trkpt>
      <trkpt lat="35.252980682998896" lon="24.050895832479">
        <ele>1090.27</ele>
        <time>2016-06-11T09:41:06Z</time>
      </trkpt>
      <trkpt lat="35.252973306924105" lon="24.050903962925076">
        <ele>1089.3099999999999</ele>
        <time>2016-06-11T09:41:18Z</time>
      </trkpt>
      <trkpt lat="35.252978000789881" lon="24.050932796671987">
        <ele>1089.3099999999999</ele>
        <time>2016-06-11T09:41:28Z</time>
      </trkpt>
      <trkpt lat="35.252932151779532" lon="24.050931707024574">
        <ele>1088.8299999999999</ele>
        <time>2016-06-11T09:41:43Z</time>
      </trkpt>
      <trkpt lat="35.252918992191553" lon="24.050929611548781">
        <ele>1086.9100000000001</ele>
        <time>2016-06-11T09:42:01Z</time>
      </trkpt>
      <trkpt lat="35.252912705764174" lon="24.05090656131506">
        <ele>1085.95</ele>
        <time>2016-06-11T09:42:15Z</time>
      </trkpt>
      <trkpt lat="35.252847326919436" lon="24.050923911854625">
        <ele>1083.54</ele>
        <time>2016-06-11T09:42:29Z</time>
      </trkpt>
      <trkpt lat="35.252791754901409" lon="24.050975879654288">
        <ele>1082.5799999999999</ele>
        <time>2016-06-11T09:42:40Z</time>
      </trkpt>
      <trkpt lat="35.252762921154499" lon="24.051019214093685">
        <ele>1080.6600000000001</ele>
        <time>2016-06-11T09:42:53Z</time>
      </trkpt>
      <trkpt lat="35.252711456269026" lon="24.051003372296691">
        <ele>1079.7</ele>
        <time>2016-06-11T09:43:16Z</time>
      </trkpt>
      <trkpt lat="35.252696368843317" lon="24.051010832190514">
        <ele>1078.74</ele>
        <time>2016-06-11T09:43:20Z</time>
      </trkpt>
      <trkpt lat="35.252669882029295" lon="24.051064308732748">
        <ele>1078.74</ele>
        <time>2016-06-11T09:43:35Z</time>
      </trkpt>
      <trkpt lat="35.252653453499079" lon="24.051100434735417">
        <ele>1078.26</ele>
        <time>2016-06-11T09:43:45Z</time>
      </trkpt>
      <trkpt lat="35.25264909490943" lon="24.051141254603863">
        <ele>1076.8099999999999</ele>
        <time>2016-06-11T09:43:56Z</time>
      </trkpt>
      <trkpt lat="35.252660159021616" lon="24.051102194935083">
        <ele>1076.3299999999999</ele>
        <time>2016-06-11T09:44:11Z</time>
      </trkpt>
      <trkpt lat="35.252615734934807" lon="24.051126586273313">
        <ele>1075.3699999999999</ele>
        <time>2016-06-11T09:44:24Z</time>
      </trkpt>
      <trkpt lat="35.252576088532805" lon="24.051145110279322">
        <ele>1073.9300000000001</ele>
        <time>2016-06-11T09:44:38Z</time>
      </trkpt>
      <trkpt lat="35.252513056620955" lon="24.051175536587834">
        <ele>1072.97</ele>
        <time>2016-06-11T09:44:50Z</time>
      </trkpt>
      <trkpt lat="35.252484222874045" lon="24.051198503002524">
        <ele>1071.05</ele>
        <time>2016-06-11T09:45:05Z</time>
      </trkpt>
      <trkpt lat="35.252469051629305" lon="24.051215015351772">
        <ele>1069.5999999999999</ele>
        <time>2016-06-11T09:45:16Z</time>
      </trkpt>
      <trkpt lat="35.25243166834116" lon="24.051238652318716">
        <ele>1068.1600000000001</ele>
        <time>2016-06-11T09:45:28Z</time>
      </trkpt>
      <trkpt lat="35.252381963655353" lon="24.051283830776811">
        <ele>1066.72</ele>
        <time>2016-06-11T09:45:40Z</time>
      </trkpt>
      <trkpt lat="35.252325385808945" lon="24.051310149952769">
        <ele>1065.76</ele>
        <time>2016-06-11T09:45:50Z</time>
      </trkpt>
      <trkpt lat="35.252281716093421" lon="24.051327332854271">
        <ele>1064.8</ele>
        <time>2016-06-11T09:46:02Z</time>
      </trkpt>
      <trkpt lat="35.252283727750182" lon="24.051364548504353">
        <ele>1063.8399999999999</ele>
        <time>2016-06-11T09:46:12Z</time>
      </trkpt>
      <trkpt lat="35.252274088561535" lon="24.05136588960886">
        <ele>1062.8699999999999</ele>
        <time>2016-06-11T09:46:21Z</time>
      </trkpt>
      <trkpt lat="35.252237292006612" lon="24.051395142450929">
        <ele>1062.3900000000001</ele>
        <time>2016-06-11T09:46:33Z</time>
      </trkpt>
      <trkpt lat="35.252226730808616" lon="24.051444260403514">
        <ele>1061.4300000000001</ele>
        <time>2016-06-11T09:46:45Z</time>
      </trkpt>
      <trkpt lat="35.252221114933491" lon="24.051472507417202">
        <ele>1059.03</ele>
        <time>2016-06-11T09:46:57Z</time>
      </trkpt>
      <trkpt lat="35.252229413017631" lon="24.051551045849919">
        <ele>1059.99</ele>
        <time>2016-06-11T09:47:09Z</time>
      </trkpt>
      <trkpt lat="35.252229999750853" lon="24.051616843789816">
        <ele>1058.0699999999999</ele>
        <time>2016-06-11T09:47:22Z</time>
      </trkpt>
      <trkpt lat="35.252187335863709" lon="24.051633691415191">
        <ele>1057.1099999999999</ele>
        <time>2016-06-11T09:47:43Z</time>
      </trkpt>
      <trkpt lat="35.252161268144846" lon="24.051693873479962">
        <ele>1057.5899999999999</ele>
        <time>2016-06-11T09:48:00Z</time>
      </trkpt>
      <trkpt lat="35.25216487236321" lon="24.051690939813852">
        <ele>1058.0699999999999</ele>
        <time>2016-06-11T09:48:10Z</time>
      </trkpt>
      <trkpt lat="35.252129333093762" lon="24.051719941198826">
        <ele>1058.55</ele>
        <time>2016-06-11T09:48:21Z</time>
      </trkpt>
      <trkpt lat="35.252120029181242" lon="24.051794875413179">
        <ele>1056.1500000000001</ele>
        <time>2016-06-11T09:48:35Z</time>
      </trkpt>
      <trkpt lat="35.252120867371559" lon="24.05180468223989">
        <ele>1055.1800000000001</ele>
        <time>2016-06-11T09:48:37Z</time>
      </trkpt>
      <trkpt lat="35.252063702791929" lon="24.051851201802492">
        <ele>1052.78</ele>
        <time>2016-06-11T09:48:47Z</time>
      </trkpt>
      <trkpt lat="35.252067055553198" lon="24.051863355562091">
        <ele>1051.8199999999999</ele>
        <time>2016-06-11T09:49:01Z</time>
      </trkpt>
      <trkpt lat="35.252016596496105" lon="24.051885902881622">
        <ele>1052.3</ele>
        <time>2016-06-11T09:49:11Z</time>
      </trkpt>
      <trkpt lat="35.251981224864721" lon="24.051909707486629">
        <ele>1051.3399999999999</ele>
        <time>2016-06-11T09:49:26Z</time>
      </trkpt>
      <trkpt lat="35.251983571797609" lon="24.051955472677946">
        <ele>1050.8599999999999</ele>
        <time>2016-06-11T09:49:39Z</time>
      </trkpt>
      <trkpt lat="35.251967227086425" lon="24.051984054967761">
        <ele>1049.4200000000001</ele>
        <time>2016-06-11T09:49:54Z</time>
      </trkpt>
      <trkpt lat="35.251935292035341" lon="24.052015487104654">
        <ele>1048.9400000000001</ele>
        <time>2016-06-11T09:50:06Z</time>
      </trkpt>
      <trkpt lat="35.251890951767564" lon="24.052052870392799">
        <ele>1048.45</ele>
        <time>2016-06-11T09:50:19Z</time>
      </trkpt>
      <trkpt lat="35.251834541559219" lon="24.052087822929025">
        <ele>1047.01</ele>
        <time>2016-06-11T09:50:31Z</time>
      </trkpt>
      <trkpt lat="35.25176321156323" lon="24.052080614492297">
        <ele>1047.01</ele>
        <time>2016-06-11T09:50:42Z</time>
      </trkpt>
      <trkpt lat="35.251702945679426" lon="24.052055384963751">
        <ele>1049.4200000000001</ele>
        <time>2016-06-11T09:50:52Z</time>
      </trkpt>
      <trkpt lat="35.25168945081532" lon="24.052106430754066">
        <ele>1047.97</ele>
        <time>2016-06-11T09:51:08Z</time>
      </trkpt>
      <trkpt lat="35.251682745292783" lon="24.052094947546721">
        <ele>1047.49</ele>
        <time>2016-06-11T09:51:25Z</time>
      </trkpt>
      <trkpt lat="35.251682661473751" lon="24.052126547321677">
        <ele>1047.97</ele>
        <time>2016-06-11T09:51:37Z</time>
      </trkpt>
      <trkpt lat="35.251654665917158" lon="24.052117494866252">
        <ele>1046.05</ele>
        <time>2016-06-11T09:51:49Z</time>
      </trkpt>
      <trkpt lat="35.251619629561901" lon="24.052069801837206">
        <ele>1044.1300000000001</ele>
        <time>2016-06-11T09:52:02Z</time>
      </trkpt>
      <trkpt lat="35.251570930704474" lon="24.052023198455572">
        <ele>1042.6900000000001</ele>
        <time>2016-06-11T09:52:14Z</time>
      </trkpt>
      <trkpt lat="35.251520471647382" lon="24.051980702206492">
        <ele>1042.21</ele>
        <time>2016-06-11T09:52:26Z</time>
      </trkpt>
      <trkpt lat="35.251506557688117" lon="24.051955724135041">
        <ele>1042.21</ele>
        <time>2016-06-11T09:52:41Z</time>
      </trkpt>
      <trkpt lat="35.251404214650393" lon="24.051905265077949">
        <ele>1040.28</ele>
        <time>2016-06-11T09:52:55Z</time>
      </trkpt>
      <trkpt lat="35.251378733664751" lon="24.051885651424527">
        <ele>1040.76</ele>
        <time>2016-06-11T09:53:09Z</time>
      </trkpt>
      <trkpt lat="35.251308074221015" lon="24.051863104104996">
        <ele>1040.28</ele>
        <time>2016-06-11T09:53:20Z</time>
      </trkpt>
      <trkpt lat="35.25127312168479" lon="24.051843993365765">
        <ele>1038.3599999999999</ele>
        <time>2016-06-11T09:53:34Z</time>
      </trkpt>
      <trkpt lat="35.251247053965926" lon="24.051762102171779">
        <ele>1037.4000000000001</ele>
        <time>2016-06-11T09:53:46Z</time>
      </trkpt>
      <trkpt lat="35.251175137236714" lon="24.051677780225873">
        <ele>1036.9200000000001</ele>
        <time>2016-06-11T09:54:00Z</time>
      </trkpt>
      <trkpt lat="35.251168347895145" lon="24.051603181287646">
        <ele>1035.96</ele>
        <time>2016-06-11T09:54:11Z</time>
      </trkpt>
      <trkpt lat="35.251115709543228" lon="24.051547106355429">
        <ele>1035.48</ele>
        <time>2016-06-11T09:54:25Z</time>
      </trkpt>
      <trkpt lat="35.251060556620359" lon="24.051518104970455">
        <ele>1035</ele>
        <time>2016-06-11T09:54:39Z</time>
      </trkpt>
      <trkpt lat="35.251015210524201" lon="24.051489690318704">
        <ele>1034.52</ele>
        <time>2016-06-11T09:54:52Z</time>
      </trkpt>
      <trkpt lat="35.250961147248745" lon="24.051457419991493">
        <ele>1033.0699999999999</ele>
        <time>2016-06-11T09:55:06Z</time>
      </trkpt>
      <trkpt lat="35.250898115336895" lon="24.051441745832562">
        <ele>1031.6300000000001</ele>
        <time>2016-06-11T09:55:17Z</time>
      </trkpt>
      <trkpt lat="35.250852769240737" lon="24.051427245140076">
        <ele>1030.6700000000001</ele>
        <time>2016-06-11T09:55:32Z</time>
      </trkpt>
      <trkpt lat="35.250777415931225" lon="24.051401009783149">
        <ele>1029.71</ele>
        <time>2016-06-11T09:55:46Z</time>
      </trkpt>
      <trkpt lat="35.250730141997337" lon="24.051393130794168">
        <ele>1027.3099999999999</ele>
        <time>2016-06-11T09:56:00Z</time>
      </trkpt>
      <trkpt lat="35.250755874440074" lon="24.05139815993607">
        <ele>1027.79</ele>
        <time>2016-06-11T09:56:12Z</time>
      </trkpt>
      <trkpt lat="35.250707175582647" lon="24.051429508253932">
        <ele>1027.79</ele>
        <time>2016-06-11T09:56:23Z</time>
      </trkpt>
      <trkpt lat="35.25074103847146" lon="24.05151248909533">
        <ele>1027.79</ele>
        <time>2016-06-11T09:56:35Z</time>
      </trkpt>
      <trkpt lat="35.250741206109524" lon="24.051576610654593">
        <ele>1027.3099999999999</ele>
        <time>2016-06-11T09:56:47Z</time>
      </trkpt>
      <trkpt lat="35.25070876814425" lon="24.051666297018528">
        <ele>1025.3800000000001</ele>
        <time>2016-06-11T09:56:58Z</time>
      </trkpt>
      <trkpt lat="35.250712623819709" lon="24.051733436062932">
        <ele>1023.46</ele>
        <time>2016-06-11T09:57:09Z</time>
      </trkpt>
      <trkpt lat="35.250715808942914" lon="24.051809962838888">
        <ele>1021.0599999999999</ele>
        <time>2016-06-11T09:57:23Z</time>
      </trkpt>
      <trkpt lat="35.250678425654769" lon="24.051854638382792">
        <ele>1019.62</ele>
        <time>2016-06-11T09:57:35Z</time>
      </trkpt>
      <trkpt lat="35.250718826428056" lon="24.05191021040082">
        <ele>1019.62</ele>
        <time>2016-06-11T09:57:47Z</time>
      </trkpt>
      <trkpt lat="35.250734081491828" lon="24.051962848752737">
        <ele>1018.65</ele>
        <time>2016-06-11T09:57:56Z</time>
      </trkpt>
      <trkpt lat="35.250741541385651" lon="24.052015906199813">
        <ele>1018.65</ele>
        <time>2016-06-11T09:58:05Z</time>
      </trkpt>
      <trkpt lat="35.250722346827388" lon="24.052128056064248">
        <ele>1019.13</ele>
        <time>2016-06-11T09:58:17Z</time>
      </trkpt>
      <trkpt lat="35.250704325735569" lon="24.052179353311658">
        <ele>1018.17</ele>
        <time>2016-06-11T09:58:24Z</time>
      </trkpt>
      <trkpt lat="35.250591924414039" lon="24.052213383838534">
        <ele>1017.6900000000001</ele>
        <time>2016-06-11T09:58:37Z</time>
      </trkpt>
      <trkpt lat="35.250594355165958" lon="24.052234925329685">
        <ele>1016.73</ele>
        <time>2016-06-11T09:58:49Z</time>
      </trkpt>
      <trkpt lat="35.250605754554272" lon="24.052270632237196">
        <ele>1016.25</ele>
        <time>2016-06-11T09:59:02Z</time>
      </trkpt>
      <trkpt lat="35.250612962990999" lon="24.052313631400466">
        <ele>1014.8099999999999</ele>
        <time>2016-06-11T09:59:13Z</time>
      </trkpt>
      <trkpt lat="35.250584380701184" lon="24.052352523431182">
        <ele>1015.29</ele>
        <time>2016-06-11T09:59:25Z</time>
      </trkpt>
      <trkpt lat="35.250553954392672" lon="24.052431313320994">
        <ele>1014.33</ele>
        <time>2016-06-11T09:59:38Z</time>
      </trkpt>
      <trkpt lat="35.250515481457114" lon="24.052466098219156">
        <ele>1012.89</ele>
        <time>2016-06-11T09:59:49Z</time>
      </trkpt>
      <trkpt lat="35.250449096783996" lon="24.05250197276473">
        <ele>1013.37</ele>
        <time>2016-06-11T10:00:02Z</time>
      </trkpt>
      <trkpt lat="35.250432165339589" lon="24.052557880058885">
        <ele>1012.41</ele>
        <time>2016-06-11T10:00:14Z</time>
      </trkpt>
      <trkpt lat="35.250356728211045" lon="24.05262216925621">
        <ele>1013.85</ele>
        <time>2016-06-11T10:00:31Z</time>
      </trkpt>
      <trkpt lat="35.250359494239092" lon="24.052670197561383">
        <ele>1012.41</ele>
        <time>2016-06-11T10:00:43Z</time>
      </trkpt>
      <trkpt lat="35.250344322994351" lon="24.052729373797774">
        <ele>1010.96</ele>
        <time>2016-06-11T10:00:58Z</time>
      </trkpt>
      <trkpt lat="35.250288583338261" lon="24.052748400717974">
        <ele>1010.48</ele>
        <time>2016-06-11T10:01:11Z</time>
      </trkpt>
      <trkpt lat="35.250216582790017" lon="24.052748316898942">
        <ele>1009.52</ele>
        <time>2016-06-11T10:01:23Z</time>
      </trkpt>
      <trkpt lat="35.250165285542607" lon="24.052788466215134">
        <ele>1009.04</ele>
        <time>2016-06-11T10:01:36Z</time>
      </trkpt>
      <trkpt lat="35.250131255015731" lon="24.052846049889922">
        <ele>1008.5599999999999</ele>
        <time>2016-06-11T10:01:48Z</time>
      </trkpt>
      <trkpt lat="35.250059170648456" lon="24.052883936092257">
        <ele>1009.04</ele>
        <time>2016-06-11T10:02:00Z</time>
      </trkpt>
      <trkpt lat="35.249985996633768" lon="24.052874213084579">
        <ele>1008.5599999999999</ele>
        <time>2016-06-11T10:02:12Z</time>
      </trkpt>
      <trkpt lat="35.2498634532094" lon="24.052836326882243">
        <ele>1007.6</ele>
        <time>2016-06-11T10:02:24Z</time>
      </trkpt>
      <trkpt lat="35.249745436012745" lon="24.05277899466455">
        <ele>1008.08</ele>
        <time>2016-06-11T10:02:38Z</time>
      </trkpt>
      <trkpt lat="35.249770916998386" lon="24.052702216431499">
        <ele>1006.64</ele>
        <time>2016-06-11T10:02:49Z</time>
      </trkpt>
      <trkpt lat="35.249726912006736" lon="24.052687967196107">
        <ele>1005.6799999999999</ele>
        <time>2016-06-11T10:03:04Z</time>
      </trkpt>
      <trkpt lat="35.249685002490878" lon="24.052691403776407">
        <ele>1006.16</ele>
        <time>2016-06-11T10:03:14Z</time>
      </trkpt>
      <trkpt lat="35.249593472108245" lon="24.05266952700913">
        <ele>1004.72</ele>
        <time>2016-06-11T10:03:26Z</time>
      </trkpt>
      <trkpt lat="35.249537983909249" lon="24.052624432370067">
        <ele>1004.23</ele>
        <time>2016-06-11T10:03:42Z</time>
      </trkpt>
      <trkpt lat="35.249513844028115" lon="24.05259232968092">
        <ele>1003.75</ele>
        <time>2016-06-11T10:03:56Z</time>
      </trkpt>
      <trkpt lat="35.249487776309252" lon="24.052576823160052">
        <ele>1001.83</ele>
        <time>2016-06-11T10:04:09Z</time>
      </trkpt>
      <trkpt lat="35.249457936733961" lon="24.052586797624826">
        <ele>1000.87</ele>
        <time>2016-06-11T10:04:21Z</time>
      </trkpt>
      <trkpt lat="35.24936699308455" lon="24.052585959434509">
        <ele>1000.39</ele>
        <time>2016-06-11T10:04:33Z</time>
      </trkpt>
      <trkpt lat="35.249295243993402" lon="24.052600124850869">
        <ele>999.90999999999997</ele>
        <time>2016-06-11T10:04:47Z</time>
      </trkpt>
      <trkpt lat="35.249164653941989" lon="24.052595850080252">
        <ele>999.42999999999995</ele>
        <time>2016-06-11T10:04:59Z</time>
      </trkpt>
      <trkpt lat="35.249113943427801" lon="24.052632730454206">
        <ele>998.95000000000005</ele>
        <time>2016-06-11T10:05:13Z</time>
      </trkpt>
      <trkpt lat="35.249083265662193" lon="24.05266516841948">
        <ele>998.95000000000005</ele>
        <time>2016-06-11T10:05:25Z</time>
      </trkpt>
      <trkpt lat="35.249061305075884" lon="24.052696349099278">
        <ele>998.95000000000005</ele>
        <time>2016-06-11T10:05:48Z</time>
      </trkpt>
      <trkpt lat="35.249014114961028" lon="24.052660726010799">
        <ele>998.47000000000003</ele>
        <time>2016-06-11T10:06:20Z</time>
      </trkpt>
      <trkpt lat="35.249025095254183" lon="24.05271403491497">
        <ele>997.01999999999998</ele>
        <time>2016-06-11T10:06:36Z</time>
      </trkpt>
      <trkpt lat="35.248990477994084" lon="24.052733480930328">
        <ele>996.05999999999995</ele>
        <time>2016-06-11T10:06:47Z</time>
      </trkpt>
      <trkpt lat="35.248960051685572" lon="24.052811684086919">
        <ele>995.10000000000002</ele>
        <time>2016-06-11T10:07:05Z</time>
      </trkpt>
      <trkpt lat="35.248916214331985" lon="24.052876811474562">
        <ele>994.13999999999999</ele>
        <time>2016-06-11T10:07:19Z</time>
      </trkpt>
      <trkpt lat="35.248873885720968" lon="24.052923666313291">
        <ele>994.13999999999999</ele>
        <time>2016-06-11T10:07:31Z</time>
      </trkpt>
      <trkpt lat="35.248849913477898" lon="24.052978483960032">
        <ele>992.22000000000003</ele>
        <time>2016-06-11T10:07:44Z</time>
      </trkpt>
      <trkpt lat="35.248766597360373" lon="24.053010251373053">
        <ele>992.70000000000005</ele>
        <time>2016-06-11T10:08:00Z</time>
      </trkpt>
      <trkpt lat="35.248736087232828" lon="24.053069343790412">
        <ele>991.74000000000001</ele>
        <time>2016-06-11T10:08:13Z</time>
      </trkpt>
      <trkpt lat="35.248717647045851" lon="24.053082335740328">
        <ele>991.25999999999999</ele>
        <time>2016-06-11T10:08:18Z</time>
      </trkpt>
      <trkpt lat="35.24862477555871" lon="24.053101781755686">
        <ele>991.25999999999999</ele>
        <time>2016-06-11T10:08:31Z</time>
      </trkpt>
      <trkpt lat="35.248561324551702" lon="24.053145619109273">
        <ele>989.33000000000004</ele>
        <time>2016-06-11T10:08:43Z</time>
      </trkpt>
      <trkpt lat="35.248556043952703" lon="24.053171016275883">
        <ele>989.33000000000004</ele>
        <time>2016-06-11T10:08:53Z</time>
      </trkpt>
      <trkpt lat="35.248569119721651" lon="24.05322901904583">
        <ele>987.88999999999999</ele>
        <time>2016-06-11T10:09:03Z</time>
      </trkpt>
      <trkpt lat="35.248549757525325" lon="24.053256092593074">
        <ele>988.37</ele>
        <time>2016-06-11T10:09:14Z</time>
      </trkpt>
      <trkpt lat="35.248461915180087" lon="24.05326958745718">
        <ele>988.85000000000002</ele>
        <time>2016-06-11T10:09:26Z</time>
      </trkpt>
      <trkpt lat="35.248402152210474" lon="24.053268581628799">
        <ele>986.92999999999995</ele>
        <time>2016-06-11T10:09:41Z</time>
      </trkpt>
      <trkpt lat="35.248361835256219" lon="24.053300181403756">
        <ele>986.92999999999995</ele>
        <time>2016-06-11T10:09:54Z</time>
      </trkpt>
      <trkpt lat="35.248361583799124" lon="24.053299929946661">
        <ele>987.40999999999997</ele>
        <time>2016-06-11T10:10:08Z</time>
      </trkpt>
      <trkpt lat="35.248338114470243" lon="24.053310994058847">
        <ele>986.45000000000005</ele>
        <time>2016-06-11T10:10:23Z</time>
      </trkpt>
      <trkpt lat="35.248252199962735" lon="24.053341336548328">
        <ele>984.04999999999995</ele>
        <time>2016-06-11T10:10:35Z</time>
      </trkpt>
      <trkpt lat="35.248187324032187" lon="24.053367571905255">
        <ele>984.04999999999995</ele>
        <time>2016-06-11T10:10:48Z</time>
      </trkpt>
      <trkpt lat="35.248132674023509" lon="24.053377797827125">
        <ele>981.63999999999999</ele>
        <time>2016-06-11T10:11:01Z</time>
      </trkpt>
      <trkpt lat="35.248086405918002" lon="24.053404871374369">
        <ele>982.12</ele>
        <time>2016-06-11T10:11:13Z</time>
      </trkpt>
      <trkpt lat="35.24803695268929" lon="24.053480811417103">
        <ele>980.67999999999995</ele>
        <time>2016-06-11T10:11:26Z</time>
      </trkpt>
      <trkpt lat="35.248030247166753" lon="24.053551470860839">
        <ele>980.20000000000005</ele>
        <time>2016-06-11T10:11:40Z</time>
      </trkpt>
      <trkpt lat="35.247993199154735" lon="24.053612407296896">
        <ele>979.24000000000001</ele>
        <time>2016-06-11T10:11:53Z</time>
      </trkpt>
      <trkpt lat="35.247971741482615" lon="24.053712319582701">
        <ele>978.27999999999997</ele>
        <time>2016-06-11T10:12:08Z</time>
      </trkpt>
      <trkpt lat="35.247974172234535" lon="24.0538280736655">
        <ele>977.32000000000005</ele>
        <time>2016-06-11T10:12:21Z</time>
      </trkpt>
      <trkpt lat="35.247964365407825" lon="24.053905354812741">
        <ele>976.36000000000001</ele>
        <time>2016-06-11T10:12:36Z</time>
      </trkpt>
      <trkpt lat="35.247918264940381" lon="24.054001159965992">
        <ele>975.88</ele>
        <time>2016-06-11T10:12:52Z</time>
      </trkpt>
      <trkpt lat="35.247947182506323" lon="24.054083805531263">
        <ele>975.38999999999999</ele>
        <time>2016-06-11T10:13:06Z</time>
      </trkpt>
      <trkpt lat="35.247921869158745" lon="24.054195955395699">
        <ele>974.90999999999997</ele>
        <time>2016-06-11T10:13:22Z</time>
      </trkpt>
      <trkpt lat="35.247871829196811" lon="24.054192686453462">
        <ele>974.42999999999995</ele>
        <time>2016-06-11T10:13:39Z</time>
      </trkpt>
      <trkpt lat="35.247884821146727" lon="24.054276254028082">
        <ele>973.47000000000003</ele>
        <time>2016-06-11T10:13:51Z</time>
      </trkpt>
      <trkpt lat="35.247838050127029" lon="24.05435093678534">
        <ele>973.47000000000003</ele>
        <time>2016-06-11T10:14:08Z</time>
      </trkpt>
      <trkpt lat="35.247778203338385" lon="24.054387398064137">
        <ele>972.50999999999999</ele>
        <time>2016-06-11T10:14:25Z</time>
      </trkpt>
      <trkpt lat="35.247731599956751" lon="24.054457889869809">
        <ele>972.99000000000001</ele>
        <time>2016-06-11T10:14:44Z</time>
      </trkpt>
      <trkpt lat="35.247610565274954" lon="24.054483203217387">
        <ele>972.50999999999999</ele>
        <time>2016-06-11T10:14:59Z</time>
      </trkpt>
      <trkpt lat="35.247538732364774" lon="24.054507343098521">
        <ele>972.02999999999997</ele>
        <time>2016-06-11T10:15:12Z</time>
      </trkpt>
      <trkpt lat="35.247534792870283" lon="24.054501391947269">
        <ele>972.02999999999997</ele>
        <time>2016-06-11T10:15:13Z</time>
      </trkpt>
      <trkpt lat="35.247485255822539" lon="24.054481191560626">
        <ele>972.02999999999997</ele>
        <time>2016-06-11T10:15:25Z</time>
      </trkpt>
      <trkpt lat="35.247406046837568" lon="24.054451184347272">
        <ele>971.07000000000005</ele>
        <time>2016-06-11T10:15:37Z</time>
      </trkpt>
      <trkpt lat="35.247345864772797" lon="24.054472893476486">
        <ele>970.11000000000001</ele>
        <time>2016-06-11T10:15:49Z</time>
      </trkpt>
      <trkpt lat="35.247346200048923" lon="24.054537015035748">
        <ele>970.11000000000001</ele>
        <time>2016-06-11T10:16:02Z</time>
      </trkpt>
      <trkpt lat="35.247341757640243" lon="24.054584288969636">
        <ele>972.50999999999999</ele>
        <time>2016-06-11T10:16:18Z</time>
      </trkpt>
      <trkpt lat="35.247294316068292" lon="24.054592503234744">
        <ele>973.95000000000005</ele>
        <time>2016-06-11T10:16:34Z</time>
      </trkpt>
      <trkpt lat="35.247290208935738" lon="24.054715717211366">
        <ele>974.42999999999995</ele>
        <time>2016-06-11T10:16:52Z</time>
      </trkpt>
      <trkpt lat="35.247228350490332" lon="24.054854940623045">
        <ele>976.36000000000001</ele>
        <time>2016-06-11T10:17:04Z</time>
      </trkpt>
      <trkpt lat="35.247239163145423" lon="24.054899113252759">
        <ele>975.88</ele>
        <time>2016-06-11T10:17:20Z</time>
      </trkpt>
      <trkpt lat="35.247249556705356" lon="24.054874973371625">
        <ele>976.36000000000001</ele>
        <time>2016-06-11T10:17:37Z</time>
      </trkpt>
      <trkpt lat="35.247176215052605" lon="24.054891988635063">
        <ele>974.42999999999995</ele>
        <time>2016-06-11T10:17:54Z</time>
      </trkpt>
      <trkpt lat="35.247130952775478" lon="24.054892240092158">
        <ele>972.02999999999997</ele>
        <time>2016-06-11T10:18:10Z</time>
      </trkpt>
      <trkpt lat="35.247103627771139" lon="24.054925767704844">
        <ele>970.11000000000001</ele>
        <time>2016-06-11T10:18:22Z</time>
      </trkpt>
      <trkpt lat="35.247076554223895" lon="24.054984441027045">
        <ele>968.17999999999995</ele>
        <time>2016-06-11T10:18:40Z</time>
      </trkpt>
      <trkpt lat="35.247024586424232" lon="24.055004892870784">
        <ele>966.74000000000001</ele>
        <time>2016-06-11T10:18:56Z</time>
      </trkpt>
      <trkpt lat="35.246969098225236" lon="24.055116791278124">
        <ele>964.82000000000005</ele>
        <time>2016-06-11T10:19:11Z</time>
      </trkpt>
      <trkpt lat="35.2469795756042" lon="24.055135231465101">
        <ele>963.38</ele>
        <time>2016-06-11T10:19:27Z</time>
      </trkpt>
      <trkpt lat="35.246986700221896" lon="24.055199436843395">
        <ele>961.94000000000005</ele>
        <time>2016-06-11T10:19:43Z</time>
      </trkpt>
      <trkpt lat="35.246962141245604" lon="24.055266743525863">
        <ele>959.52999999999997</ele>
        <time>2016-06-11T10:20:00Z</time>
      </trkpt>
      <trkpt lat="35.246954681351781" lon="24.055325165390968">
        <ele>959.04999999999995</ele>
        <time>2016-06-11T10:20:13Z</time>
      </trkpt>
      <trkpt lat="35.246954178437591" lon="24.055329440161586">
        <ele>958.09000000000003</ele>
        <time>2016-06-11T10:20:15Z</time>
      </trkpt>
      <trkpt lat="35.246941270306706" lon="24.055304881185293">
        <ele>957.61000000000001</ele>
        <time>2016-06-11T10:20:33Z</time>
      </trkpt>
      <trkpt lat="35.246891565620899" lon="24.055273197591305">
        <ele>956.16999999999996</ele>
        <time>2016-06-11T10:20:47Z</time>
      </trkpt>
      <trkpt lat="35.246823336929083" lon="24.055280406028032">
        <ele>954.25</ele>
        <time>2016-06-11T10:21:02Z</time>
      </trkpt>
      <trkpt lat="35.246786456555128" lon="24.055331284180284">
        <ele>954.73000000000002</ele>
        <time>2016-06-11T10:21:15Z</time>
      </trkpt>
      <trkpt lat="35.246795928105712" lon="24.055367829278111">
        <ele>952.79999999999995</ele>
        <time>2016-06-11T10:21:34Z</time>
      </trkpt>
      <trkpt lat="35.246699033305049" lon="24.055518619716167">
        <ele>952.32000000000005</ele>
        <time>2016-06-11T10:21:54Z</time>
      </trkpt>
      <trkpt lat="35.246648658066988" lon="24.055512920022011">
        <ele>951.36000000000001</ele>
        <time>2016-06-11T10:22:11Z</time>
      </trkpt>
      <trkpt lat="35.246638432145119" lon="24.055528342723846">
        <ele>950.39999999999998</ele>
        <time>2016-06-11T10:22:28Z</time>
      </trkpt>
      <trkpt lat="35.246645472943783" lon="24.055483667179942">
        <ele>948.48000000000002</ele>
        <time>2016-06-11T10:22:44Z</time>
      </trkpt>
      <trkpt lat="35.246664164587855" lon="24.055355926975608">
        <ele>947.51999999999998</ele>
        <time>2016-06-11T10:23:02Z</time>
      </trkpt>
      <trkpt lat="35.24668294005096" lon="24.055408649146557">
        <ele>946.55999999999995</ele>
        <time>2016-06-11T10:23:17Z</time>
      </trkpt>
      <trkpt lat="35.246685622259974" lon="24.055404039099813">
        <ele>946.07000000000005</ele>
        <time>2016-06-11T10:23:38Z</time>
      </trkpt>
      <trkpt lat="35.246612951159477" lon="24.055306054651737">
        <ele>946.07000000000005</ele>
        <time>2016-06-11T10:24:10Z</time>
      </trkpt>
      <trkpt lat="35.24649728089571" lon="24.055416444316506">
        <ele>945.11000000000001</ele>
        <time>2016-06-11T10:24:32Z</time>
      </trkpt>
      <trkpt lat="35.246476326137781" lon="24.055412085726857">
        <ele>944.63</ele>
        <time>2016-06-11T10:24:53Z</time>
      </trkpt>
      <trkpt lat="35.246438356116414" lon="24.05536824837327">
        <ele>945.59000000000003</ele>
        <time>2016-06-11T10:25:07Z</time>
      </trkpt>
      <trkpt lat="35.246372641995549" lon="24.055351903662086">
        <ele>943.66999999999996</ele>
        <time>2016-06-11T10:25:25Z</time>
      </trkpt>
      <trkpt lat="35.246337186545134" lon="24.055404793471098">
        <ele>942.23000000000002</ele>
        <time>2016-06-11T10:25:43Z</time>
      </trkpt>
      <trkpt lat="35.246247248724103" lon="24.055489534512162">
        <ele>943.19000000000005</ele>
        <time>2016-06-11T10:26:02Z</time>
      </trkpt>
      <trkpt lat="35.246249008923769" lon="24.055535048246384">
        <ele>942.23000000000002</ele>
        <time>2016-06-11T10:26:13Z</time>
      </trkpt>
      <trkpt lat="35.246210787445307" lon="24.055611826479435">
        <ele>941.26999999999998</ele>
        <time>2016-06-11T10:26:27Z</time>
      </trkpt>
      <trkpt lat="35.246131997555494" lon="24.055688856169581">
        <ele>940.30999999999995</ele>
        <time>2016-06-11T10:26:41Z</time>
      </trkpt>
      <trkpt lat="35.246131829917431" lon="24.055702267214656">
        <ele>938.38</ele>
        <time>2016-06-11T10:26:53Z</time>
      </trkpt>
      <trkpt lat="35.246132835745811" lon="24.055818188935518">
        <ele>939.35000000000002</ele>
        <time>2016-06-11T10:27:05Z</time>
      </trkpt>
      <trkpt lat="35.246133841574192" lon="24.055827409029007">
        <ele>939.35000000000002</ele>
        <time>2016-06-11T10:27:06Z</time>
      </trkpt>
      <trkpt lat="35.246150689199567" lon="24.055891362950206">
        <ele>937.89999999999998</ele>
        <time>2016-06-11T10:27:17Z</time>
      </trkpt>
      <trkpt lat="35.246160831302404" lon="24.055887088179588">
        <ele>935.01999999999998</ele>
        <time>2016-06-11T10:27:31Z</time>
      </trkpt>
      <trkpt lat="35.246191844344139" lon="24.055904103443027">
        <ele>934.05999999999995</ele>
        <time>2016-06-11T10:27:42Z</time>
      </trkpt>
      <trkpt lat="35.2461938560009" lon="24.055942660197616">
        <ele>934.05999999999995</ele>
        <time>2016-06-11T10:28:01Z</time>
      </trkpt>
      <trkpt lat="35.246210284531116" lon="24.055983060970902">
        <ele>932.62</ele>
        <time>2016-06-11T10:28:17Z</time>
      </trkpt>
      <trkpt lat="35.246218414977193" lon="24.056011727079749">
        <ele>931.16999999999996</ele>
        <time>2016-06-11T10:28:36Z</time>
      </trkpt>
      <trkpt lat="35.246238447725773" lon="24.056018264964223">
        <ele>931.64999999999998</ele>
        <time>2016-06-11T10:28:48Z</time>
      </trkpt>
      <trkpt lat="35.246221600100398" lon="24.056030670180917">
        <ele>930.69000000000005</ele>
        <time>2016-06-11T10:29:02Z</time>
      </trkpt>
      <trkpt lat="35.246172901242971" lon="24.056020360440016">
        <ele>930.21000000000004</ele>
        <time>2016-06-11T10:29:17Z</time>
      </trkpt>
      <trkpt lat="35.246118418872356" lon="24.056060006842017">
        <ele>929.73000000000002</ele>
        <time>2016-06-11T10:29:34Z</time>
      </trkpt>
      <trkpt lat="35.24609662592411" lon="24.056117925792933">
        <ele>928.28999999999996</ele>
        <time>2016-06-11T10:29:48Z</time>
      </trkpt>
      <trkpt lat="35.246102577075362" lon="24.05620870180428">
        <ele>927.80999999999995</ele>
        <time>2016-06-11T10:30:02Z</time>
      </trkpt>
      <trkpt lat="35.246092267334461" lon="24.056274332106113">
        <ele>927.80999999999995</ele>
        <time>2016-06-11T10:30:14Z</time>
      </trkpt>
      <trkpt lat="35.246088579297066" lon="24.05632495880127">
        <ele>926.85000000000002</ele>
        <time>2016-06-11T10:30:30Z</time>
      </trkpt>
      <trkpt lat="35.246107941493392" lon="24.056384637951851">
        <ele>925.88999999999999</ele>
        <time>2016-06-11T10:30:46Z</time>
      </trkpt>
      <trkpt lat="35.246103247627616" lon="24.056385979056358">
        <ele>925.40999999999997</ele>
        <time>2016-06-11T10:30:50Z</time>
      </trkpt>
      <trkpt lat="35.246090339496732" lon="24.056418500840664">
        <ele>924.92999999999995</ele>
        <time>2016-06-11T10:31:02Z</time>
      </trkpt>
      <trkpt lat="35.246112886816263" lon="24.056444233283401">
        <ele>924.92999999999995</ele>
        <time>2016-06-11T10:31:16Z</time>
      </trkpt>
      <trkpt lat="35.246111545711756" lon="24.056436186656356">
        <ele>926.37</ele>
        <time>2016-06-11T10:31:18Z</time>
      </trkpt>
      <trkpt lat="35.246100816875696" lon="24.056444149464369">
        <ele>926.37</ele>
        <time>2016-06-11T10:31:33Z</time>
      </trkpt>
      <trkpt lat="35.246100062504411" lon="24.056447837501764">
        <ele>925.88999999999999</ele>
        <time>2016-06-11T10:31:34Z</time>
      </trkpt>
      <trkpt lat="35.24605362676084" lon="24.056489830836654">
        <ele>923.48000000000002</ele>
        <time>2016-06-11T10:31:48Z</time>
      </trkpt>
      <trkpt lat="35.2460350189358" lon="24.056511707603931">
        <ele>923.96000000000004</ele>
        <time>2016-06-11T10:31:52Z</time>
      </trkpt>
      <trkpt lat="35.245988164097071" lon="24.056734330952168">
        <ele>923</ele>
        <time>2016-06-11T10:32:05Z</time>
      </trkpt>
      <trkpt lat="35.24595245718956" lon="24.05678378418088">
        <ele>922.51999999999998</ele>
        <time>2016-06-11T10:32:19Z</time>
      </trkpt>
      <trkpt lat="35.24596712552011" lon="24.056733576580882">
        <ele>920.60000000000002</ele>
        <time>2016-06-11T10:32:33Z</time>
      </trkpt>
      <trkpt lat="35.24601062759757" lon="24.056741371750832">
        <ele>919.63999999999999</ele>
        <time>2016-06-11T10:32:45Z</time>
      </trkpt>
      <trkpt lat="35.245967879891396" lon="24.056634334847331">
        <ele>920.12</ele>
        <time>2016-06-11T10:33:00Z</time>
      </trkpt>
      <trkpt lat="35.245958743616939" lon="24.05661279335618">
        <ele>919.63999999999999</ele>
        <time>2016-06-11T10:33:11Z</time>
      </trkpt>
      <trkpt lat="35.245944075286388" lon="24.05662452802062">
        <ele>918.67999999999995</ele>
        <time>2016-06-11T10:33:24Z</time>
      </trkpt>
      <trkpt lat="35.245999982580543" lon="24.056603321805596">
        <ele>917.72000000000003</ele>
        <time>2016-06-11T10:33:35Z</time>
      </trkpt>
      <trkpt lat="35.246025463566184" lon="24.056547833606601">
        <ele>919.63999999999999</ele>
        <time>2016-06-11T10:33:48Z</time>
      </trkpt>
      <trkpt lat="35.245976345613599" lon="24.056507097557187">
        <ele>918.67999999999995</ele>
        <time>2016-06-11T10:34:02Z</time>
      </trkpt>
      <trkpt lat="35.245849611237645" lon="24.056381620466709">
        <ele>918.20000000000005</ele>
        <time>2016-06-11T10:34:17Z</time>
      </trkpt>
      <trkpt lat="35.245788423344493" lon="24.056300148367882">
        <ele>916.75</ele>
        <time>2016-06-11T10:34:37Z</time>
      </trkpt>
      <trkpt lat="35.245742993429303" lon="24.056303920224309">
        <ele>916.26999999999998</ele>
        <time>2016-06-11T10:34:49Z</time>
      </trkpt>
      <trkpt lat="35.245649870485067" lon="24.056418249383569">
        <ele>914.35000000000002</ele>
        <time>2016-06-11T10:35:00Z</time>
      </trkpt>
      <trkpt lat="35.245560770854354" lon="24.056430067867041">
        <ele>913.38999999999999</ele>
        <time>2016-06-11T10:35:10Z</time>
      </trkpt>
      <trkpt lat="35.24549656547606" lon="24.056416153907776">
        <ele>912.42999999999995</ele>
        <time>2016-06-11T10:35:22Z</time>
      </trkpt>
      <trkpt lat="35.245463121682405" lon="24.056410202756524">
        <ele>912.90999999999997</ele>
        <time>2016-06-11T10:35:32Z</time>
      </trkpt>
      <trkpt lat="35.245459349825978" lon="24.05645253136754">
        <ele>911.47000000000003</ele>
        <time>2016-06-11T10:35:45Z</time>
      </trkpt>
      <trkpt lat="35.245497487485409" lon="24.05658689327538">
        <ele>911.95000000000005</ele>
        <time>2016-06-11T10:35:59Z</time>
      </trkpt>
      <trkpt lat="35.245518609881401" lon="24.056734330952168">
        <ele>911.47000000000003</ele>
        <time>2016-06-11T10:36:14Z</time>
      </trkpt>
      <trkpt lat="35.245531350374222" lon="24.056807085871696">
        <ele>910.99000000000001</ele>
        <time>2016-06-11T10:36:25Z</time>
      </trkpt>
      <trkpt lat="35.245527913793921" lon="24.056875817477703">
        <ele>910.02999999999997</ele>
        <time>2016-06-11T10:36:37Z</time>
      </trkpt>
      <trkpt lat="35.245541660115123" lon="24.056930718943477">
        <ele>909.05999999999995</ele>
        <time>2016-06-11T10:36:50Z</time>
      </trkpt>
      <trkpt lat="35.245540151372552" lon="24.057013532146811">
        <ele>908.10000000000002</ele>
        <time>2016-06-11T10:37:01Z</time>
      </trkpt>
      <trkpt lat="35.245558759197593" lon="24.057141523808241">
        <ele>909.05999999999995</ele>
        <time>2016-06-11T10:37:16Z</time>
      </trkpt>
      <trkpt lat="35.245464462786913" lon="24.057049574330449">
        <ele>909.53999999999996</ele>
        <time>2016-06-11T10:37:37Z</time>
      </trkpt>
      <trkpt lat="35.24549757130444" lon="24.057059716433287">
        <ele>909.53999999999996</ele>
        <time>2016-06-11T10:37:53Z</time>
      </trkpt>
      <trkpt lat="35.245529757812619" lon="24.057088885456324">
        <ele>909.05999999999995</ele>
        <time>2016-06-11T10:38:05Z</time>
      </trkpt>
      <trkpt lat="35.245448788627982" lon="24.056974221020937">
        <ele>909.53999999999996</ele>
        <time>2016-06-11T10:38:27Z</time>
      </trkpt>
      <trkpt lat="35.245480388402939" lon="24.057024596258998">
        <ele>909.05999999999995</ele>
        <time>2016-06-11T10:38:59Z</time>
      </trkpt>
      <trkpt lat="35.245495727285743" lon="24.057056028395891">
        <ele>908.58000000000004</ele>
        <time>2016-06-11T10:39:20Z</time>
      </trkpt>
      <trkpt lat="35.245489021763206" lon="24.057036498561502">
        <ele>908.58000000000004</ele>
        <time>2016-06-11T10:39:39Z</time>
      </trkpt>
      <trkpt lat="35.245426325127482" lon="24.057018645107746">
        <ele>908.58000000000004</ele>
        <time>2016-06-11T10:39:50Z</time>
      </trkpt>
      <trkpt lat="35.245401849970222" lon="24.057046137750149">
        <ele>907.62</ele>
        <time>2016-06-11T10:40:04Z</time>
      </trkpt>
      <trkpt lat="35.245386846363544" lon="24.057049909606576">
        <ele>907.13999999999999</ele>
        <time>2016-06-11T10:40:09Z</time>
      </trkpt>
      <trkpt lat="35.245367316529155" lon="24.057066170498729">
        <ele>906.65999999999997</ele>
        <time>2016-06-11T10:40:20Z</time>
      </trkpt>
      <trkpt lat="35.245298082008958" lon="24.057095339521766">
        <ele>905.22000000000003</ele>
        <time>2016-06-11T10:40:33Z</time>
      </trkpt>
      <trkpt lat="35.245245778933167" lon="24.057117635384202">
        <ele>905.22000000000003</ele>
        <time>2016-06-11T10:40:43Z</time>
      </trkpt>
      <trkpt lat="35.245228679850698" lon="24.057169435545802">
        <ele>903.77999999999997</ele>
        <time>2016-06-11T10:40:56Z</time>
      </trkpt>
      <trkpt lat="35.245169419795275" lon="24.057223917916417">
        <ele>902.82000000000005</ele>
        <time>2016-06-11T10:41:11Z</time>
      </trkpt>
      <trkpt lat="35.24514670483768" lon="24.057420808821917">
        <ele>901.85000000000002</ele>
        <time>2016-06-11T10:41:25Z</time>
      </trkpt>
      <trkpt lat="35.245140334591269" lon="24.057506555691361">
        <ele>902.33000000000004</ele>
        <time>2016-06-11T10:41:35Z</time>
      </trkpt>
      <trkpt lat="35.245134634897113" lon="24.057665811851621">
        <ele>901.85000000000002</ele>
        <time>2016-06-11T10:41:50Z</time>
      </trkpt>
      <trkpt lat="35.245095156133175" lon="24.057767484337091">
        <ele>901.37</ele>
        <time>2016-06-11T10:42:04Z</time>
      </trkpt>
      <trkpt lat="35.245048720389605" lon="24.05779724009335">
        <ele>899.45000000000005</ele>
        <time>2016-06-11T10:42:16Z</time>
      </trkpt>
      <trkpt lat="35.244995914399624" lon="24.057866055518389">
        <ele>898.97000000000003</ele>
        <time>2016-06-11T10:42:30Z</time>
      </trkpt>
      <trkpt lat="35.244943695142865" lon="24.057955490425229">
        <ele>898.49000000000001</ele>
        <time>2016-06-11T10:42:41Z</time>
      </trkpt>
      <trkpt lat="35.244861552491784" lon="24.057964459061623">
        <ele>898.00999999999999</ele>
        <time>2016-06-11T10:42:53Z</time>
      </trkpt>
      <trkpt lat="35.244827521964908" lon="24.058014415204525">
        <ele>896.57000000000005</ele>
        <time>2016-06-11T10:43:07Z</time>
      </trkpt>
      <trkpt lat="35.244858451187611" lon="24.058072166517377">
        <ele>897.04999999999995</ele>
        <time>2016-06-11T10:43:18Z</time>
      </trkpt>
      <trkpt lat="35.244824253022671" lon="24.058011816814542">
        <ele>895.61000000000001</ele>
        <time>2016-06-11T10:43:30Z</time>
      </trkpt>
      <trkpt lat="35.244830204173923" lon="24.057962112128735">
        <ele>894.63999999999999</ele>
        <time>2016-06-11T10:43:43Z</time>
      </trkpt>
      <trkpt lat="35.244845040142536" lon="24.058007793501019">
        <ele>893.20000000000005</ele>
        <time>2016-06-11T10:43:56Z</time>
      </trkpt>
      <trkpt lat="35.244860546663404" lon="24.058045344427228">
        <ele>892.24000000000001</ele>
        <time>2016-06-11T10:44:02Z</time>
      </trkpt>
      <trkpt lat="35.244915531948209" lon="24.058119775727391">
        <ele>891.27999999999997</ele>
        <time>2016-06-11T10:44:14Z</time>
      </trkpt>
      <trkpt lat="35.244949981570244" lon="24.058199739083648">
        <ele>888.88</ele>
        <time>2016-06-11T10:44:25Z</time>
      </trkpt>
      <trkpt lat="35.244979485869408" lon="24.058271152898669">
        <ele>887.90999999999997</ele>
        <time>2016-06-11T10:44:36Z</time>
      </trkpt>
      <trkpt lat="35.245019216090441" lon="24.05836989171803">
        <ele>885.99000000000001</ele>
        <time>2016-06-11T10:44:47Z</time>
      </trkpt>
      <trkpt lat="35.244999518617988" lon="24.058487406000495">
        <ele>886.47000000000003</ele>
        <time>2016-06-11T10:45:01Z</time>
      </trkpt>
      <trkpt lat="35.244986107572913" lon="24.058540463447571">
        <ele>885.02999999999997</ele>
        <time>2016-06-11T10:45:14Z</time>
      </trkpt>
      <trkpt lat="35.24494931101799" lon="24.058616487309337">
        <ele>884.54999999999995</ele>
        <time>2016-06-11T10:45:25Z</time>
      </trkpt>
      <trkpt lat="35.244921902194619" lon="24.058698378503323">
        <ele>884.07000000000005</ele>
        <time>2016-06-11T10:45:36Z</time>
      </trkpt>
      <trkpt lat="35.244888877496123" lon="24.058778258040547">
        <ele>882.14999999999998</ele>
        <time>2016-06-11T10:45:48Z</time>
      </trkpt>
      <trkpt lat="35.244849817827344" lon="24.058841541409492">
        <ele>881.19000000000005</ele>
        <time>2016-06-11T10:45:56Z</time>
      </trkpt>
      <trkpt lat="35.24483934044838" lon="24.058911530300975">
        <ele>880.22000000000003</ele>
        <time>2016-06-11T10:46:08Z</time>
      </trkpt>
      <trkpt lat="35.244813356548548" lon="24.059004988521338">
        <ele>880.71000000000004</ele>
        <time>2016-06-11T10:46:19Z</time>
      </trkpt>
      <trkpt lat="35.244793239980936" lon="24.059104649350047">
        <ele>880.22000000000003</ele>
        <time>2016-06-11T10:46:34Z</time>
      </trkpt>
      <trkpt lat="35.244752420112491" lon="24.059327524155378">
        <ele>879.74000000000001</ele>
        <time>2016-06-11T10:46:47Z</time>
      </trkpt>
      <trkpt lat="35.244821235537529" lon="24.05943020246923">
        <ele>879.74000000000001</ele>
        <time>2016-06-11T10:47:05Z</time>
      </trkpt>
      <trkpt lat="35.244794329628348" lon="24.059407990425825">
        <ele>878.77999999999997</ele>
        <time>2016-06-11T10:47:21Z</time>
      </trkpt>
      <trkpt lat="35.244750995188951" lon="24.059427687898278">
        <ele>877.82000000000005</ele>
        <time>2016-06-11T10:47:32Z</time>
      </trkpt>
      <trkpt lat="35.244727190583944" lon="24.059470100328326">
        <ele>877.34000000000003</ele>
        <time>2016-06-11T10:47:43Z</time>
      </trkpt>
      <trkpt lat="35.244686454534531" lon="24.059507818892598">
        <ele>877.34000000000003</ele>
        <time>2016-06-11T10:47:55Z</time>
      </trkpt>
      <trkpt lat="35.244651334360242" lon="24.059593062847853">
        <ele>875.89999999999998</ele>
        <time>2016-06-11T10:48:08Z</time>
      </trkpt>
      <trkpt lat="35.244607077911496" lon="24.059619214385748">
        <ele>874.94000000000005</ele>
        <time>2016-06-11T10:48:21Z</time>
      </trkpt>
      <trkpt lat="35.244566844776273" lon="24.059663722291589">
        <ele>874.46000000000004</ele>
        <time>2016-06-11T10:48:33Z</time>
      </trkpt>
      <trkpt lat="35.244516134262085" lon="24.059774363413453">
        <ele>873.5</ele>
        <time>2016-06-11T10:48:50Z</time>
      </trkpt>
      <trkpt lat="35.244449246674776" lon="24.059850135818124">
        <ele>873.00999999999999</ele>
        <time>2016-06-11T10:49:05Z</time>
      </trkpt>
      <trkpt lat="35.244406834244728" lon="24.059942001476884">
        <ele>871.09000000000003</ele>
        <time>2016-06-11T10:49:20Z</time>
      </trkpt>
      <trkpt lat="35.244358638301492" lon="24.059994304552674">
        <ele>871.09000000000003</ele>
        <time>2016-06-11T10:49:30Z</time>
      </trkpt>
      <trkpt lat="35.24432041682303" lon="24.060022551566362">
        <ele>869.64999999999998</ele>
        <time>2016-06-11T10:49:37Z</time>
      </trkpt>
      <trkpt lat="35.244271215051413" lon="24.060047110542655">
        <ele>868.21000000000004</ele>
        <time>2016-06-11T10:49:49Z</time>
      </trkpt>
      <trkpt lat="35.244267107918859" lon="24.060119614005089">
        <ele>867.25</ele>
        <time>2016-06-11T10:50:01Z</time>
      </trkpt>
      <trkpt lat="35.244239531457424" lon="24.060157248750329">
        <ele>865.79999999999995</ele>
        <time>2016-06-11T10:50:14Z</time>
      </trkpt>
      <trkpt lat="35.244220169261098" lon="24.060255149379373">
        <ele>864.84000000000003</ele>
        <time>2016-06-11T10:50:28Z</time>
      </trkpt>
      <trkpt lat="35.24420072324574" lon="24.060337375849485">
        <ele>864.36000000000001</ele>
        <time>2016-06-11T10:50:40Z</time>
      </trkpt>
      <trkpt lat="35.244209859520197" lon="24.060355732217431">
        <ele>864.36000000000001</ele>
        <time>2016-06-11T10:50:52Z</time>
      </trkpt>
      <trkpt lat="35.244175661355257" lon="24.060391439124942">
        <ele>864.36000000000001</ele>
        <time>2016-06-11T10:51:10Z</time>
      </trkpt>
      <trkpt lat="35.244162250310183" lon="24.06047148630023">
        <ele>863.88</ele>
        <time>2016-06-11T10:51:23Z</time>
      </trkpt>
      <trkpt lat="35.244188401848078" lon="24.060551784932613">
        <ele>862.44000000000005</ele>
        <time>2016-06-11T10:51:35Z</time>
      </trkpt>
      <trkpt lat="35.244212290272117" lon="24.060705760493875">
        <ele>860.51999999999998</ele>
        <time>2016-06-11T10:51:48Z</time>
      </trkpt>
      <trkpt lat="35.244189156219363" lon="24.060804918408394">
        <ele>859.55999999999995</ele>
        <time>2016-06-11T10:52:03Z</time>
      </trkpt>
      <trkpt lat="35.24412059225142" lon="24.060845989733934">
        <ele>857.63</ele>
        <time>2016-06-11T10:52:16Z</time>
      </trkpt>
      <trkpt lat="35.244103744626045" lon="24.060859149321914">
        <ele>856.66999999999996</ele>
        <time>2016-06-11T10:52:27Z</time>
      </trkpt>
      <trkpt lat="35.244069127365947" lon="24.060954283922911">
        <ele>854.75</ele>
        <time>2016-06-11T10:52:39Z</time>
      </trkpt>
      <trkpt lat="35.244066612794995" lon="24.061016896739602">
        <ele>852.83000000000004</ele>
        <time>2016-06-11T10:52:52Z</time>
      </trkpt>
      <trkpt lat="35.244052782654762" lon="24.061046652495861">
        <ele>851.38</ele>
        <time>2016-06-11T10:53:07Z</time>
      </trkpt>
      <trkpt lat="35.244027804583311" lon="24.061121670529246">
        <ele>849.46000000000004</ele>
        <time>2016-06-11T10:53:22Z</time>
      </trkpt>
      <trkpt lat="35.24398329667747" lon="24.061091830953956">
        <ele>849.46000000000004</ele>
        <time>2016-06-11T10:53:32Z</time>
      </trkpt>
      <trkpt lat="35.243916995823383" lon="24.061115216463804">
        <ele>848.01999999999998</ele>
        <time>2016-06-11T10:53:45Z</time>
      </trkpt>
      <trkpt lat="35.243863770738244" lon="24.061140613630414">
        <ele>847.05999999999995</ele>
        <time>2016-06-11T10:53:58Z</time>
      </trkpt>
      <trkpt lat="35.243819933384657" lon="24.061199370771646">
        <ele>845.13999999999999</ele>
        <time>2016-06-11T10:54:12Z</time>
      </trkpt>
      <trkpt lat="35.243819681927562" lon="24.0612518414855">
        <ele>844.17999999999995</ele>
        <time>2016-06-11T10:54:26Z</time>
      </trkpt>
      <trkpt lat="35.243858993053436" lon="24.061379665508866">
        <ele>841.28999999999996</ele>
        <time>2016-06-11T10:54:41Z</time>
      </trkpt>
      <trkpt lat="35.243861842900515" lon="24.061447139829397">
        <ele>841.28999999999996</ele>
        <time>2016-06-11T10:54:53Z</time>
      </trkpt>
      <trkpt lat="35.243879444897175" lon="24.061516625806689">
        <ele>840.33000000000004</ele>
        <time>2016-06-11T10:55:05Z</time>
      </trkpt>
      <trkpt lat="35.243877768516541" lon="24.061544789001346">
        <ele>838.88999999999999</ele>
        <time>2016-06-11T10:55:20Z</time>
      </trkpt>
      <trkpt lat="35.243883971124887" lon="24.061623997986317">
        <ele>837.92999999999995</ele>
        <time>2016-06-11T10:55:35Z</time>
      </trkpt>
      <trkpt lat="35.24387726560235" lon="24.061646796762943">
        <ele>836.96000000000004</ele>
        <time>2016-06-11T10:55:49Z</time>
      </trkpt>
      <trkpt lat="35.243846671655774" lon="24.061664147302508">
        <ele>836.96000000000004</ele>
        <time>2016-06-11T10:56:06Z</time>
      </trkpt>
      <trkpt lat="35.243862261995673" lon="24.061708236113191">
        <ele>835.51999999999998</ele>
        <time>2016-06-11T10:56:19Z</time>
      </trkpt>
      <trkpt lat="35.243838625028729" lon="24.061778476461768">
        <ele>834.55999999999995</ele>
        <time>2016-06-11T10:56:38Z</time>
      </trkpt>
      <trkpt lat="35.243819011375308" lon="24.061893559992313">
        <ele>835.03999999999996</ele>
        <time>2016-06-11T10:56:50Z</time>
      </trkpt>
      <trkpt lat="35.243799816817045" lon="24.061995735391974">
        <ele>834.08000000000004</ele>
        <time>2016-06-11T10:57:03Z</time>
      </trkpt>
      <trkpt lat="35.243757655844092" lon="24.062091121450067">
        <ele>832.63999999999999</ele>
        <time>2016-06-11T10:57:15Z</time>
      </trkpt>
      <trkpt lat="35.243721529841423" lon="24.062116434797645">
        <ele>832.15999999999997</ele>
        <time>2016-06-11T10:57:28Z</time>
      </trkpt>
      <trkpt lat="35.243728486821055" lon="24.062118781730533">
        <ele>831.20000000000005</ele>
        <time>2016-06-11T10:57:30Z</time>
      </trkpt>
      <trkpt lat="35.243711723014712" lon="24.062157589942217">
        <ele>830.72000000000003</ele>
        <time>2016-06-11T10:57:41Z</time>
      </trkpt>
      <trkpt lat="35.243651624768972" lon="24.06220804899931">
        <ele>829.26999999999998</ele>
        <time>2016-06-11T10:57:55Z</time>
      </trkpt>
      <trkpt lat="35.24360217154026" lon="24.062228249385953">
        <ele>827.83000000000004</ele>
        <time>2016-06-11T10:58:06Z</time>
      </trkpt>
      <trkpt lat="35.243557579815388" lon="24.062270829454064">
        <ele>826.87</ele>
        <time>2016-06-11T10:58:20Z</time>
      </trkpt>
      <trkpt lat="35.243543917313218" lon="24.06227502040565">
        <ele>826.87</ele>
        <time>2016-06-11T10:58:22Z</time>
      </trkpt>
      <trkpt lat="35.243489602580667" lon="24.062267560511827">
        <ele>826.38999999999999</ele>
        <time>2016-06-11T10:58:35Z</time>
      </trkpt>
      <trkpt lat="35.243424223735929" lon="24.062297651544213">
        <ele>826.87</ele>
        <time>2016-06-11T10:58:49Z</time>
      </trkpt>
      <trkpt lat="35.243378877639771" lon="24.062299411743879">
        <ele>825.90999999999997</ele>
        <time>2016-06-11T10:59:00Z</time>
      </trkpt>
      <trkpt lat="35.243344260379672" lon="24.062314415350556">
        <ele>824.95000000000005</ele>
        <time>2016-06-11T10:59:10Z</time>
      </trkpt>
      <trkpt lat="35.243327328935266" lon="24.062320534139872">
        <ele>823.50999999999999</ele>
        <time>2016-06-11T10:59:23Z</time>
      </trkpt>
      <trkpt lat="35.243328753858805" lon="24.062329418957233">
        <ele>822.54999999999995</ele>
        <time>2016-06-11T10:59:39Z</time>
      </trkpt>
      <trkpt lat="35.243283994495869" lon="24.06238884665072">
        <ele>822.05999999999995</ele>
        <time>2016-06-11T10:59:52Z</time>
      </trkpt>
      <trkpt lat="35.243282318115234" lon="24.062434025108814">
        <ele>820.62</ele>
        <time>2016-06-11T11:00:05Z</time>
      </trkpt>
      <trkpt lat="35.243286844342947" lon="24.062436372041702">
        <ele>818.70000000000005</ele>
        <time>2016-06-11T11:00:07Z</time>
      </trkpt>
      <trkpt lat="35.243295729160309" lon="24.062439054250717">
        <ele>820.62</ele>
        <time>2016-06-11T11:00:09Z</time>
      </trkpt>
      <trkpt lat="35.243286257609725" lon="24.062464954331517">
        <ele>819.65999999999997</ele>
        <time>2016-06-11T11:00:12Z</time>
      </trkpt>
      <trkpt lat="35.2432772051543" lon="24.062483059242368">
        <ele>821.58000000000004</ele>
        <time>2016-06-11T11:00:14Z</time>
      </trkpt>
      <trkpt lat="35.243272846564651" lon="24.062539888545871">
        <ele>819.65999999999997</ele>
        <time>2016-06-11T11:00:28Z</time>
      </trkpt>
      <trkpt lat="35.243273349478841" lon="24.062540391460061">
        <ele>823.50999999999999</ele>
        <time>2016-06-11T11:00:30Z</time>
      </trkpt>
      <trkpt lat="35.243275947868824" lon="24.062544582411647">
        <ele>823.50999999999999</ele>
        <time>2016-06-11T11:00:31Z</time>
      </trkpt>
      <trkpt lat="35.243282401934266" lon="24.062549863010645">
        <ele>820.13999999999999</ele>
        <time>2016-06-11T11:00:33Z</time>
      </trkpt>
      <trkpt lat="35.243306374177337" lon="24.062674250453711">
        <ele>819.65999999999997</ele>
        <time>2016-06-11T11:00:54Z</time>
      </trkpt>
      <trkpt lat="35.243316181004047" lon="24.062798721715808">
        <ele>818.22000000000003</ele>
        <time>2016-06-11T11:01:11Z</time>
      </trkpt>
      <trkpt lat="35.243348451331258" lon="24.062876589596272">
        <ele>817.74000000000001</ele>
        <time>2016-06-11T11:01:27Z</time>
      </trkpt>
      <trkpt lat="35.243347613140941" lon="24.062893940135837">
        <ele>816.29999999999995</ele>
        <time>2016-06-11T11:01:47Z</time>
      </trkpt>
      <trkpt lat="35.243378458544612" lon="24.062926629558206">
        <ele>815.82000000000005</ele>
        <time>2016-06-11T11:02:04Z</time>
      </trkpt>
      <trkpt lat="35.243408465757966" lon="24.062971221283078">
        <ele>815.34000000000003</ele>
        <time>2016-06-11T11:02:23Z</time>
      </trkpt>
      <trkpt lat="35.243384325876832" lon="24.062966946512461">
        <ele>813.88999999999999</ele>
        <time>2016-06-11T11:02:34Z</time>
      </trkpt>
      <trkpt lat="35.24336907081306" lon="24.063050011172891">
        <ele>813.88999999999999</ele>
        <time>2016-06-11T11:02:50Z</time>
      </trkpt>
      <trkpt lat="35.243463283404708" lon="24.063157718628645">
        <ele>811.97000000000003</ele>
        <time>2016-06-11T11:03:13Z</time>
      </trkpt>
      <trkpt lat="35.243482142686844" lon="24.063185043632984">
        <ele>810.04999999999995</ele>
        <time>2016-06-11T11:03:27Z</time>
      </trkpt>
      <trkpt lat="35.243456996977329" lon="24.063335414975882">
        <ele>808.13</ele>
        <time>2016-06-11T11:03:44Z</time>
      </trkpt>
      <trkpt lat="35.243413746356964" lon="24.063443709164858">
        <ele>805.72000000000003</ele>
        <time>2016-06-11T11:03:59Z</time>
      </trkpt>
      <trkpt lat="35.24336714297533" lon="24.063548985868692">
        <ele>805.72000000000003</ele>
        <time>2016-06-11T11:04:14Z</time>
      </trkpt>
      <trkpt lat="35.243269242346287" lon="24.063615370541811">
        <ele>804.27999999999997</ele>
        <time>2016-06-11T11:04:24Z</time>
      </trkpt>
      <trkpt lat="35.243148123845458" lon="24.063760628923774">
        <ele>803.32000000000005</ele>
        <time>2016-06-11T11:04:42Z</time>
      </trkpt>
      <trkpt lat="35.243106046691537" lon="24.063885351642966">
        <ele>800.91999999999996</ele>
        <time>2016-06-11T11:04:59Z</time>
      </trkpt>
      <trkpt lat="35.243089869618416" lon="24.064035303890705">
        <ele>799.47000000000003</ele>
        <time>2016-06-11T11:05:18Z</time>
      </trkpt>
      <trkpt lat="35.243055336177349" lon="24.064150974154472">
        <ele>799.47000000000003</ele>
        <time>2016-06-11T11:05:39Z</time>
      </trkpt>
      <trkpt lat="35.243051648139954" lon="24.064223477616906">
        <ele>797.07000000000005</ele>
        <time>2016-06-11T11:05:48Z</time>
      </trkpt>
      <trkpt lat="35.243000518530607" lon="24.06435658223927">
        <ele>795.63</ele>
        <time>2016-06-11T11:06:05Z</time>
      </trkpt>
      <trkpt lat="35.242928182706237" lon="24.06450318172574">
        <ele>794.19000000000005</ele>
        <time>2016-06-11T11:06:18Z</time>
      </trkpt>
      <trkpt lat="35.242853919044137" lon="24.064668891951442">
        <ele>792.25999999999999</ele>
        <time>2016-06-11T11:06:37Z</time>
      </trkpt>
      <trkpt lat="35.242844950407743" lon="24.0646952111274">
        <ele>791.77999999999997</ele>
        <time>2016-06-11T11:06:41Z</time>
      </trkpt>
      <trkpt lat="35.24281594902277" lon="24.0647885017097">
        <ele>791.29999999999995</ele>
        <time>2016-06-11T11:06:52Z</time>
      </trkpt>
      <trkpt lat="35.242772279307246" lon="24.064881457015872">
        <ele>790.82000000000005</ele>
        <time>2016-06-11T11:07:02Z</time>
      </trkpt>
      <trkpt lat="35.242763562127948" lon="24.064897298812866">
        <ele>791.29999999999995</ele>
        <time>2016-06-11T11:07:05Z</time>
      </trkpt>
      <trkpt lat="35.242737662047148" lon="24.06494339928031">
        <ele>790.82000000000005</ele>
        <time>2016-06-11T11:07:10Z</time>
      </trkpt>
      <trkpt lat="35.242699859663844" lon="24.064951781183481">
        <ele>790.82000000000005</ele>
        <time>2016-06-11T11:07:16Z</time>
      </trkpt>
      <trkpt lat="35.242653340101242" lon="24.065005257725716">
        <ele>789.86000000000001</ele>
        <time>2016-06-11T11:07:24Z</time>
      </trkpt>
      <trkpt lat="35.242576729506254" lon="24.065120760351419">
        <ele>788.41999999999996</ele>
        <time>2016-06-11T11:07:36Z</time>
      </trkpt>
      <trkpt lat="35.242570610716939" lon="24.065128220245242">
        <ele>788.41999999999996</ele>
        <time>2016-06-11T11:07:38Z</time>
      </trkpt>
      <trkpt lat="35.242509255185723" lon="24.065258307382464">
        <ele>786.5</ele>
        <time>2016-06-11T11:07:49Z</time>
      </trkpt>
      <trkpt lat="35.242500705644488" lon="24.065327122807503">
        <ele>785.52999999999997</ele>
        <time>2016-06-11T11:07:57Z</time>
      </trkpt>
      <trkpt lat="35.242481762543321" lon="24.065399793908">
        <ele>784.57000000000005</ele>
        <time>2016-06-11T11:08:06Z</time>
      </trkpt>
      <trkpt lat="35.242454521358013" lon="24.065488055348396">
        <ele>784.09000000000003</ele>
        <time>2016-06-11T11:08:20Z</time>
      </trkpt>
      <trkpt lat="35.242406995967031" lon="24.065592074766755">
        <ele>781.69000000000005</ele>
        <time>2016-06-11T11:08:33Z</time>
      </trkpt>
      <trkpt lat="35.242390567436814" lon="24.06564412638545">
        <ele>780.25</ele>
        <time>2016-06-11T11:08:42Z</time>
      </trkpt>
      <trkpt lat="35.242375480011106" lon="24.065786954015493">
        <ele>780.25</ele>
        <time>2016-06-11T11:08:55Z</time>
      </trkpt>
      <trkpt lat="35.242376904934645" lon="24.065795755013824">
        <ele>779.28999999999996</ele>
        <time>2016-06-11T11:08:56Z</time>
      </trkpt>
      <trkpt lat="35.242361649870872" lon="24.065903127193451">
        <ele>779.28999999999996</ele>
        <time>2016-06-11T11:09:07Z</time>
      </trkpt>
      <trkpt lat="35.242402050644159" lon="24.066063808277249">
        <ele>776.88</ele>
        <time>2016-06-11T11:09:22Z</time>
      </trkpt>
      <trkpt lat="35.242412528023124" lon="24.066140502691269">
        <ele>776.39999999999998</ele>
        <time>2016-06-11T11:09:30Z</time>
      </trkpt>
      <trkpt lat="35.242403643205762" lon="24.066195404157043">
        <ele>775.91999999999996</ele>
        <time>2016-06-11T11:09:35Z</time>
      </trkpt>
      <trkpt lat="35.242397859692574" lon="24.066283497959375">
        <ele>774.48000000000002</ele>
        <time>2016-06-11T11:09:44Z</time>
      </trkpt>
      <trkpt lat="35.242410516366363" lon="24.066327419131994">
        <ele>773.51999999999998</ele>
        <time>2016-06-11T11:09:48Z</time>
      </trkpt>
      <trkpt lat="35.242354441434145" lon="24.066397408023477">
        <ele>774</ele>
        <time>2016-06-11T11:10:01Z</time>
      </trkpt>
      <trkpt lat="35.242279255762696" lon="24.066493296995759">
        <ele>773.51999999999998</ele>
        <time>2016-06-11T11:10:18Z</time>
      </trkpt>
      <trkpt lat="35.242236005142331" lon="24.066553395241499">
        <ele>772.55999999999995</ele>
        <time>2016-06-11T11:10:26Z</time>
      </trkpt>
      <trkpt lat="35.242238938808441" lon="24.066686164587736">
        <ele>771.11000000000001</ele>
        <time>2016-06-11T11:10:37Z</time>
      </trkpt>
      <trkpt lat="35.242218906059861" lon="24.066783646121621">
        <ele>769.66999999999996</ele>
        <time>2016-06-11T11:10:48Z</time>
      </trkpt>
      <trkpt lat="35.242207758128643" lon="24.066857155412436">
        <ele>769.66999999999996</ele>
        <time>2016-06-11T11:10:55Z</time>
      </trkpt>
      <trkpt lat="35.242176409810781" lon="24.066994786262512">
        <ele>766.78999999999996</ele>
        <time>2016-06-11T11:11:08Z</time>
      </trkpt>
      <trkpt lat="35.242176409810781" lon="24.067062344402075">
        <ele>766.30999999999995</ele>
        <time>2016-06-11T11:11:18Z</time>
      </trkpt>
      <trkpt lat="35.2421685308218" lon="24.067091597244143">
        <ele>766.30999999999995</ele>
        <time>2016-06-11T11:11:20Z</time>
      </trkpt>
      <trkpt lat="35.242176074534655" lon="24.067261163145304">
        <ele>766.30999999999995</ele>
        <time>2016-06-11T11:11:32Z</time>
      </trkpt>
      <trkpt lat="35.242172721773386" lon="24.067402146756649">
        <ele>763.89999999999998</ele>
        <time>2016-06-11T11:11:43Z</time>
      </trkpt>
      <trkpt lat="35.242136679589748" lon="24.067471716552973">
        <ele>761.98000000000002</ele>
        <time>2016-06-11T11:11:57Z</time>
      </trkpt>
      <trkpt lat="35.242082197219133" lon="24.067474147304893">
        <ele>761.01999999999998</ele>
        <time>2016-06-11T11:12:16Z</time>
      </trkpt>
      <trkpt lat="35.242020171135664" lon="24.067468028515577">
        <ele>760.05999999999995</ele>
        <time>2016-06-11T11:12:29Z</time>
      </trkpt>
      <trkpt lat="35.241974405944347" lon="24.067487809807062">
        <ele>759.10000000000002</ele>
        <time>2016-06-11T11:12:40Z</time>
      </trkpt>
      <trkpt lat="35.241905674338341" lon="24.067532569169998">
        <ele>759.10000000000002</ele>
        <time>2016-06-11T11:12:52Z</time>
      </trkpt>
      <trkpt lat="35.241783801466227" lon="24.067574897781014">
        <ele>758.62</ele>
        <time>2016-06-11T11:13:06Z</time>
      </trkpt>
      <trkpt lat="35.241671483963728" lon="24.067625273019075">
        <ele>758.62</ele>
        <time>2016-06-11T11:13:20Z</time>
      </trkpt>
      <trkpt lat="35.241585904732347" lon="24.067675648257136">
        <ele>757.17999999999995</ele>
        <time>2016-06-11T11:13:32Z</time>
      </trkpt>
      <trkpt lat="35.241463864222169" lon="24.067647652700543">
        <ele>756.21000000000004</ele>
        <time>2016-06-11T11:13:45Z</time>
      </trkpt>
      <trkpt lat="35.24134031496942" lon="24.067640611901879">
        <ele>754.76999999999998</ele>
        <time>2016-06-11T11:13:59Z</time>
      </trkpt>
      <trkpt lat="35.241329250857234" lon="24.067637007683516">
        <ele>754.28999999999996</ele>
        <time>2016-06-11T11:14:00Z</time>
      </trkpt>
      <trkpt lat="35.241201175376773" lon="24.06765972264111">
        <ele>754.76999999999998</ele>
        <time>2016-06-11T11:14:12Z</time>
      </trkpt>
      <trkpt lat="35.241126995533705" lon="24.067714121192694">
        <ele>754.76999999999998</ele>
        <time>2016-06-11T11:14:23Z</time>
      </trkpt>
      <trkpt lat="35.241104532033205" lon="24.067713618278503">
        <ele>754.28999999999996</ele>
        <time>2016-06-11T11:14:27Z</time>
      </trkpt>
      <trkpt lat="35.241033621132374" lon="24.067686712369323">
        <ele>753.33000000000004</ele>
        <time>2016-06-11T11:14:33Z</time>
      </trkpt>
      <trkpt lat="35.240941671654582" lon="24.067686796188354">
        <ele>752.85000000000002</ele>
        <time>2016-06-11T11:14:40Z</time>
      </trkpt>
      <trkpt lat="35.240858774632215" lon="24.067745637148619">
        <ele>752.37</ele>
        <time>2016-06-11T11:14:50Z</time>
      </trkpt>
      <trkpt lat="35.240743020549417" lon="24.067892991006374">
        <ele>750.45000000000005</ele>
        <time>2016-06-11T11:15:02Z</time>
      </trkpt>
      <trkpt lat="35.240668337792158" lon="24.067993992939591">
        <ele>750.45000000000005</ele>
        <time>2016-06-11T11:15:12Z</time>
      </trkpt>
      <trkpt lat="35.240615196526051" lon="24.068060712888837">
        <ele>750.45000000000005</ele>
        <time>2016-06-11T11:15:21Z</time>
      </trkpt>
      <trkpt lat="35.240584686398506" lon="24.06819817610085">
        <ele>750.45000000000005</ele>
        <time>2016-06-11T11:15:34Z</time>
      </trkpt>
      <trkpt lat="35.240561217069626" lon="24.068305380642414">
        <ele>749.97000000000003</ele>
        <time>2016-06-11T11:15:48Z</time>
      </trkpt>
      <trkpt lat="35.2405677549541" lon="24.068368412554264">
        <ele>749</ele>
        <time>2016-06-11T11:15:55Z</time>
      </trkpt>
      <trkpt lat="35.240555098280311" lon="24.068509815260768">
        <ele>748.03999999999996</ele>
        <time>2016-06-11T11:16:08Z</time>
      </trkpt>
      <trkpt lat="35.240553254261613" lon="24.068518616259098">
        <ele>748.03999999999996</ele>
        <time>2016-06-11T11:16:09Z</time>
      </trkpt>
      <trkpt lat="35.240538669750094" lon="24.068564884364605">
        <ele>748.51999999999998</ele>
        <time>2016-06-11T11:16:18Z</time>
      </trkpt>
      <trkpt lat="35.240546381101012" lon="24.068660940974951">
        <ele>748.03999999999996</ele>
        <time>2016-06-11T11:16:30Z</time>
      </trkpt>
      <trkpt lat="35.24051452986896" lon="24.068692959845066">
        <ele>747.08000000000004</ele>
        <time>2016-06-11T11:16:37Z</time>
      </trkpt>
      <trkpt lat="35.240470357239246" lon="24.068733109161258">
        <ele>745.63999999999999</ele>
        <time>2016-06-11T11:16:45Z</time>
      </trkpt>
      <trkpt lat="35.240469770506024" lon="24.068789351731539">
        <ele>745.63999999999999</ele>
        <time>2016-06-11T11:16:49Z</time>
      </trkpt>
      <trkpt lat="35.240469602867961" lon="24.06883729621768">
        <ele>745.15999999999997</ele>
        <time>2016-06-11T11:16:53Z</time>
      </trkpt>
      <trkpt lat="35.240440014749765" lon="24.068904602900147">
        <ele>745.63999999999999</ele>
        <time>2016-06-11T11:17:01Z</time>
      </trkpt>
      <trkpt lat="35.240389974787831" lon="24.068926144391298">
        <ele>746.12</ele>
        <time>2016-06-11T11:17:07Z</time>
      </trkpt>
      <trkpt lat="35.240284278988838" lon="24.068981800228357">
        <ele>744.67999999999995</ele>
        <time>2016-06-11T11:17:22Z</time>
      </trkpt>
      <trkpt lat="35.240229293704033" lon="24.069044664502144">
        <ele>743.24000000000001</ele>
        <time>2016-06-11T11:17:32Z</time>
      </trkpt>
      <trkpt lat="35.240180343389511" lon="24.069173661991954">
        <ele>743.24000000000001</ele>
        <time>2016-06-11T11:17:44Z</time>
      </trkpt>
      <trkpt lat="35.240125022828579" lon="24.069288158789277">
        <ele>742.27999999999997</ele>
        <time>2016-06-11T11:17:56Z</time>
      </trkpt>
      <trkpt lat="35.240056794136763" lon="24.069359991699457">
        <ele>741.78999999999996</ele>
        <time>2016-06-11T11:18:07Z</time>
      </trkpt>
      <trkpt lat="35.239985464140773" lon="24.069430651143193">
        <ele>740.83000000000004</ele>
        <time>2016-06-11T11:18:15Z</time>
      </trkpt>
      <trkpt lat="35.239956714212894" lon="24.069484546780586">
        <ele>740.35000000000002</ele>
        <time>2016-06-11T11:18:21Z</time>
      </trkpt>
      <trkpt lat="35.239879600703716" lon="24.069549338892102">
        <ele>740.83000000000004</ele>
        <time>2016-06-11T11:18:34Z</time>
      </trkpt>
      <trkpt lat="35.239837104454637" lon="24.069546824321151">
        <ele>739.87</ele>
        <time>2016-06-11T11:18:45Z</time>
      </trkpt>
      <trkpt lat="35.239770300686359" lon="24.069564258679748">
        <ele>738.42999999999995</ele>
        <time>2016-06-11T11:18:56Z</time>
      </trkpt>
      <trkpt lat="35.239760410040617" lon="24.069567024707794">
        <ele>738.42999999999995</ele>
        <time>2016-06-11T11:18:57Z</time>
      </trkpt>
      <trkpt lat="35.239687152206898" lon="24.069666601717472">
        <ele>737.47000000000003</ele>
        <time>2016-06-11T11:19:08Z</time>
      </trkpt>
      <trkpt lat="35.239672986790538" lon="24.069682862609625">
        <ele>737.47000000000003</ele>
        <time>2016-06-11T11:19:10Z</time>
      </trkpt>
      <trkpt lat="35.239576259627938" lon="24.069806830957532">
        <ele>736.99000000000001</ele>
        <time>2016-06-11T11:19:22Z</time>
      </trkpt>
      <trkpt lat="35.239527560770512" lon="24.069950915873051">
        <ele>736.99000000000001</ele>
        <time>2016-06-11T11:19:35Z</time>
      </trkpt>
      <trkpt lat="35.239541977643967" lon="24.069981342181563">
        <ele>736.50999999999999</ele>
        <time>2016-06-11T11:19:37Z</time>
      </trkpt>
      <trkpt lat="35.239639207720757" lon="24.070192230865359">
        <ele>735.54999999999995</ele>
        <time>2016-06-11T11:19:48Z</time>
      </trkpt>
      <trkpt lat="35.239667538553476" lon="24.070288622751832">
        <ele>735.54999999999995</ele>
        <time>2016-06-11T11:19:55Z</time>
      </trkpt>
      <trkpt lat="35.239657396450639" lon="24.070349223911762">
        <ele>734.58000000000004</ele>
        <time>2016-06-11T11:19:59Z</time>
      </trkpt>
      <trkpt lat="35.239715818315744" lon="24.070487776771188">
        <ele>734.10000000000002</ele>
        <time>2016-06-11T11:20:12Z</time>
      </trkpt>
      <trkpt lat="35.239721685647964" lon="24.070502864196897">
        <ele>734.10000000000002</ele>
        <time>2016-06-11T11:20:13Z</time>
      </trkpt>
      <trkpt lat="35.239769211038947" lon="24.070667736232281">
        <ele>733.13999999999999</ele>
        <time>2016-06-11T11:20:25Z</time>
      </trkpt>
      <trkpt lat="35.239775916561484" lon="24.070682320743799">
        <ele>732.65999999999997</ele>
        <time>2016-06-11T11:20:28Z</time>
      </trkpt>
      <trkpt lat="35.239795614033937" lon="24.070792039856315">
        <ele>730.74000000000001</ele>
        <time>2016-06-11T11:20:37Z</time>
      </trkpt>
      <trkpt lat="35.239778431132436" lon="24.070892371237278">
        <ele>731.22000000000003</ele>
        <time>2016-06-11T11:20:51Z</time>
      </trkpt>
      <trkpt lat="35.239775329828262" lon="24.070895053446293">
        <ele>731.22000000000003</ele>
        <time>2016-06-11T11:20:52Z</time>
      </trkpt>
      <trkpt lat="35.239725038409233" lon="24.070941908285022">
        <ele>730.74000000000001</ele>
        <time>2016-06-11T11:21:04Z</time>
      </trkpt>
      <trkpt lat="35.239663850516081" lon="24.070959594100714">
        <ele>729.77999999999997</ele>
        <time>2016-06-11T11:21:15Z</time>
      </trkpt>
      <trkpt lat="35.239577097818255" lon="24.070971664041281">
        <ele>727.37</ele>
        <time>2016-06-11T11:21:28Z</time>
      </trkpt>
      <trkpt lat="35.239440724253654" lon="24.070960097014904">
        <ele>728.34000000000003</ele>
        <time>2016-06-11T11:21:39Z</time>
      </trkpt>
      <trkpt lat="35.239367047324777" lon="24.071011813357472">
        <ele>727.37</ele>
        <time>2016-06-11T11:21:47Z</time>
      </trkpt>
      <trkpt lat="35.239308876916766" lon="24.071046179160476">
        <ele>727.37</ele>
        <time>2016-06-11T11:21:54Z</time>
      </trkpt>
      <trkpt lat="35.239252215251327" lon="24.071130668744445">
        <ele>726.40999999999997</ele>
        <time>2016-06-11T11:22:08Z</time>
      </trkpt>
      <trkpt lat="35.23921525105834" lon="24.071152294054627">
        <ele>725.45000000000005</ele>
        <time>2016-06-11T11:22:12Z</time>
      </trkpt>
      <trkpt lat="35.239162193611264" lon="24.071212224662304">
        <ele>724.97000000000003</ele>
        <time>2016-06-11T11:22:20Z</time>
      </trkpt>
      <trkpt lat="35.239005368202925" lon="24.071270311251283">
        <ele>723.52999999999997</ele>
        <time>2016-06-11T11:22:33Z</time>
      </trkpt>
      <trkpt lat="35.238863797858357" lon="24.071324123069644">
        <ele>722.09000000000003</ele>
        <time>2016-06-11T11:22:49Z</time>
      </trkpt>
      <trkpt lat="35.238749301061034" lon="24.071386652067304">
        <ele>721.61000000000001</ele>
        <time>2016-06-11T11:23:04Z</time>
      </trkpt>
      <trkpt lat="35.238665984943509" lon="24.071427136659622">
        <ele>720.64999999999998</ele>
        <time>2016-06-11T11:23:12Z</time>
      </trkpt>
      <trkpt lat="35.238593397662044" lon="24.071546830236912">
        <ele>720.15999999999997</ele>
        <time>2016-06-11T11:23:23Z</time>
      </trkpt>
      <trkpt lat="35.238554924726486" lon="24.071624027565122">
        <ele>720.15999999999997</ele>
        <time>2016-06-11T11:23:31Z</time>
      </trkpt>
      <trkpt lat="35.238509830087423" lon="24.071742799133062">
        <ele>719.20000000000005</ele>
        <time>2016-06-11T11:23:40Z</time>
      </trkpt>
      <trkpt lat="35.238481666892767" lon="24.071790324524045">
        <ele>719.20000000000005</ele>
        <time>2016-06-11T11:23:46Z</time>
      </trkpt>
      <trkpt lat="35.23845006711781" lon="24.071950502693653">
        <ele>717.27999999999997</ele>
        <time>2016-06-11T11:24:01Z</time>
      </trkpt>
      <trkpt lat="35.238437075167894" lon="24.071995178237557">
        <ele>716.79999999999995</ele>
        <time>2016-06-11T11:24:06Z</time>
      </trkpt>
      <trkpt lat="35.238379491493106" lon="24.072107244282961">
        <ele>716.79999999999995</ele>
        <time>2016-06-11T11:24:18Z</time>
      </trkpt>
      <trkpt lat="35.238352417945862" lon="24.072183854877949">
        <ele>716.79999999999995</ele>
        <time>2016-06-11T11:24:32Z</time>
      </trkpt>
      <trkpt lat="35.238348478451371" lon="24.072371022775769">
        <ele>717.27999999999997</ele>
        <time>2016-06-11T11:24:48Z</time>
      </trkpt>
      <trkpt lat="35.238315789029002" lon="24.072440089657903">
        <ele>717.27999999999997</ele>
        <time>2016-06-11T11:24:54Z</time>
      </trkpt>
      <trkpt lat="35.238312352448702" lon="24.072578139603138">
        <ele>718.72000000000003</ele>
        <time>2016-06-11T11:25:02Z</time>
      </trkpt>
      <trkpt lat="35.238252086564898" lon="24.072747454047203">
        <ele>721.13</ele>
        <time>2016-06-11T11:25:15Z</time>
      </trkpt>
      <trkpt lat="35.238239010795951" lon="24.072851222008467">
        <ele>723.52999999999997</ele>
        <time>2016-06-11T11:25:27Z</time>
      </trkpt>
      <trkpt lat="35.238243956118822" lon="24.072865890339017">
        <ele>726.88999999999999</ele>
        <time>2016-06-11T11:25:39Z</time>
      </trkpt>
      <trkpt lat="35.238207075744867" lon="24.072968233376741">
        <ele>729.77999999999997</ele>
        <time>2016-06-11T11:25:55Z</time>
      </trkpt>
      <trkpt lat="35.238052848726511" lon="24.073029002174735">
        <ele>732.65999999999997</ele>
        <time>2016-06-11T11:26:07Z</time>
      </trkpt>
      <trkpt lat="35.237986547872424" lon="24.072994133457541">
        <ele>733.62</ele>
        <time>2016-06-11T11:26:11Z</time>
      </trkpt>
      <trkpt lat="35.237797955051064" lon="24.072768073529005">
        <ele>736.50999999999999</ele>
        <time>2016-06-11T11:26:28Z</time>
      </trkpt>
      <trkpt lat="35.237780855968595" lon="24.072692133486271">
        <ele>736.99000000000001</ele>
        <time>2016-06-11T11:26:32Z</time>
      </trkpt>
      <trkpt lat="35.23801420815289" lon="24.072519633919001">
        <ele>739.38999999999999</ele>
        <time>2016-06-11T11:26:43Z</time>
      </trkpt>
      <trkpt lat="35.23816374130547" lon="24.072825824841857">
        <ele>740.35000000000002</ele>
        <time>2016-06-11T11:26:47Z</time>
      </trkpt>
      <trkpt lat="35.238212691619992" lon="24.072959683835506">
        <ele>740.83000000000004</ele>
        <time>2016-06-11T11:26:53Z</time>
      </trkpt>
      <trkpt lat="35.238276896998286" lon="24.073033360764384">
        <ele>741.78999999999996</ele>
        <time>2016-06-11T11:26:59Z</time>
      </trkpt>
      <trkpt lat="35.238314364105463" lon="24.073220863938332">
        <ele>741.30999999999995</ele>
        <time>2016-06-11T11:27:09Z</time>
      </trkpt>
      <trkpt lat="35.238318974152207" lon="24.073301749303937">
        <ele>741.78999999999996</ele>
        <time>2016-06-11T11:27:15Z</time>
      </trkpt>
      <trkpt lat="35.23833573795855" lon="24.073345083743334">
        <ele>742.27999999999997</ele>
        <time>2016-06-11T11:27:21Z</time>
      </trkpt>
      <trkpt lat="35.238333307206631" lon="24.073366038501263">
        <ele>741.78999999999996</ele>
        <time>2016-06-11T11:27:22Z</time>
      </trkpt>
      <trkpt lat="35.238328110426664" lon="24.073393363505602">
        <ele>741.78999999999996</ele>
        <time>2016-06-11T11:27:23Z</time>
      </trkpt>
      <trkpt lat="35.238294247537851" lon="24.073503501713276">
        <ele>741.78999999999996</ele>
        <time>2016-06-11T11:27:30Z</time>
      </trkpt>
      <trkpt lat="35.238291565328836" lon="24.073524372652173">
        <ele>741.30999999999995</ele>
        <time>2016-06-11T11:27:31Z</time>
      </trkpt>
      <trkpt lat="35.2382917329669" lon="24.073542729020119">
        <ele>741.30999999999995</ele>
        <time>2016-06-11T11:27:32Z</time>
      </trkpt>
      <trkpt lat="35.238306652754545" lon="24.07358187250793">
        <ele>742.27999999999997</ele>
        <time>2016-06-11T11:27:37Z</time>
      </trkpt>
      <trkpt lat="35.238306317478418" lon="24.073596959933639">
        <ele>742.75999999999999</ele>
        <time>2016-06-11T11:27:38Z</time>
      </trkpt>
      <trkpt lat="35.238283267244697" lon="24.073655800893903">
        <ele>742.27999999999997</ele>
        <time>2016-06-11T11:27:46Z</time>
      </trkpt>
      <trkpt lat="35.238256864249706" lon="24.07371137291193">
        <ele>742.75999999999999</ele>
        <time>2016-06-11T11:27:56Z</time>
      </trkpt>
      <trkpt lat="35.238248147070408" lon="24.073847662657499">
        <ele>745.63999999999999</ele>
        <time>2016-06-11T11:28:10Z</time>
      </trkpt>
      <trkpt lat="35.238192994147539" lon="24.074043966829777">
        <ele>747.08000000000004</ele>
        <time>2016-06-11T11:28:23Z</time>
      </trkpt>
      <trkpt lat="35.238185450434685" lon="24.074061065912247">
        <ele>748.03999999999996</ele>
        <time>2016-06-11T11:28:26Z</time>
      </trkpt>
      <trkpt lat="35.238172709941864" lon="24.074058886617422">
        <ele>749</ele>
        <time>2016-06-11T11:28:33Z</time>
      </trkpt>
      <trkpt lat="35.238171201199293" lon="24.074072800576687">
        <ele>748.51999999999998</ele>
        <time>2016-06-11T11:28:34Z</time>
      </trkpt>
      <trkpt lat="35.238139433786273" lon="24.074175981804729">
        <ele>749.49000000000001</ele>
        <time>2016-06-11T11:28:44Z</time>
      </trkpt>
      <trkpt lat="35.238099787384272" lon="24.074251502752304">
        <ele>749.97000000000003</ele>
        <time>2016-06-11T11:28:52Z</time>
      </trkpt>
      <trkpt lat="35.238078078255057" lon="24.07428259961307">
        <ele>749.97000000000003</ele>
        <time>2016-06-11T11:28:56Z</time>
      </trkpt>
      <trkpt lat="35.238065756857395" lon="24.074291568249464">
        <ele>749.49000000000001</ele>
        <time>2016-06-11T11:28:57Z</time>
      </trkpt>
      <trkpt lat="35.238051591441035" lon="24.074299447238445">
        <ele>749.97000000000003</ele>
        <time>2016-06-11T11:28:58Z</time>
      </trkpt>
      <trkpt lat="35.238029463216662" lon="24.074324425309896">
        <ele>750.45000000000005</ele>
        <time>2016-06-11T11:29:01Z</time>
      </trkpt>
      <trkpt lat="35.238026781007648" lon="24.074343787506223">
        <ele>750.45000000000005</ele>
        <time>2016-06-11T11:29:02Z</time>
      </trkpt>
      <trkpt lat="35.238006999716163" lon="24.074379745870829">
        <ele>751.88999999999999</ele>
        <time>2016-06-11T11:29:11Z</time>
      </trkpt>
      <trkpt lat="35.238006915897131" lon="24.074382511898875">
        <ele>752.37</ele>
        <time>2016-06-11T11:29:13Z</time>
      </trkpt>
      <trkpt lat="35.238058799877763" lon="24.074378991499543">
        <ele>752.37</ele>
        <time>2016-06-11T11:29:23Z</time>
      </trkpt>
      <trkpt lat="35.238115293905139" lon="24.074400281533599">
        <ele>754.28999999999996</ele>
        <time>2016-06-11T11:29:32Z</time>
      </trkpt>
      <trkpt lat="35.238129626959562" lon="24.074389636516571">
        <ele>754.76999999999998</ele>
        <time>2016-06-11T11:29:34Z</time>
      </trkpt>
      <trkpt lat="35.238181259483099" lon="24.07435099594295">
        <ele>754.28999999999996</ele>
        <time>2016-06-11T11:29:44Z</time>
      </trkpt>
      <trkpt lat="35.238208500668406" lon="24.074354935437441">
        <ele>754.76999999999998</ele>
        <time>2016-06-11T11:29:53Z</time>
      </trkpt>
      <trkpt lat="35.238209925591946" lon="24.074376728385687">
        <ele>756.69000000000005</ele>
        <time>2016-06-11T11:30:03Z</time>
      </trkpt>
      <trkpt lat="35.238208835944533" lon="24.074400281533599">
        <ele>756.21000000000004</ele>
        <time>2016-06-11T11:30:16Z</time>
      </trkpt>
      <trkpt lat="35.238227108493447" lon="24.074434144422412">
        <ele>756.21000000000004</ele>
        <time>2016-06-11T11:30:27Z</time>
      </trkpt>
      <trkpt lat="35.238244626671076" lon="24.074434479698539">
        <ele>757.17999999999995</ele>
        <time>2016-06-11T11:30:32Z</time>
      </trkpt>
      <trkpt lat="35.238273125141859" lon="24.074441604316235">
        <ele>757.17999999999995</ele>
        <time>2016-06-11T11:30:36Z</time>
      </trkpt>
      <trkpt lat="35.238296091556549" lon="24.074446130543947">
        <ele>757.17999999999995</ele>
        <time>2016-06-11T11:30:39Z</time>
      </trkpt>
      <trkpt lat="35.238319057971239" lon="24.074450992047787">
        <ele>757.65999999999997</ele>
        <time>2016-06-11T11:30:42Z</time>
      </trkpt>
      <trkpt lat="35.238385275006294" lon="24.074391899630427">
        <ele>758.13999999999999</ele>
        <time>2016-06-11T11:30:53Z</time>
      </trkpt>
      <trkpt lat="35.238406481221318" lon="24.074385864660144">
        <ele>758.13999999999999</ele>
        <time>2016-06-11T11:30:56Z</time>
      </trkpt>
      <trkpt lat="35.238468926399946" lon="24.074372872710228">
        <ele>760.05999999999995</ele>
        <time>2016-06-11T11:31:06Z</time>
      </trkpt>
      <trkpt lat="35.238472782075405" lon="24.074370777234435">
        <ele>759.58000000000004</ele>
        <time>2016-06-11T11:31:07Z</time>
      </trkpt>
      <trkpt lat="35.238495497033" lon="24.074328280985355">
        <ele>760.05999999999995</ele>
        <time>2016-06-11T11:31:12Z</time>
      </trkpt>
      <trkpt lat="35.23852433077991" lon="24.074289724230766">
        <ele>761.5</ele>
        <time>2016-06-11T11:31:17Z</time>
      </trkpt>
      <trkpt lat="35.238600270822644" lon="24.074245048686862">
        <ele>762.46000000000004</ele>
        <time>2016-06-11T11:31:27Z</time>
      </trkpt>
      <trkpt lat="35.238631535321474" lon="24.074203977361321">
        <ele>762.46000000000004</ele>
        <time>2016-06-11T11:31:31Z</time>
      </trkpt>
      <trkpt lat="35.238661877810955" lon="24.074158715084195">
        <ele>763.41999999999996</ele>
        <time>2016-06-11T11:31:36Z</time>
      </trkpt>
      <trkpt lat="35.238683586940169" lon="24.074085121974349">
        <ele>763.89999999999998</ele>
        <time>2016-06-11T11:31:44Z</time>
      </trkpt>
      <trkpt lat="35.2387026976794" lon="24.074059557169676">
        <ele>764.38999999999999</ele>
        <time>2016-06-11T11:31:47Z</time>
      </trkpt>
      <trkpt lat="35.238727508112788" lon="24.074020581319928">
        <ele>764.38999999999999</ele>
        <time>2016-06-11T11:31:51Z</time>
      </trkpt>
      <trkpt lat="35.238733794540167" lon="24.07397573813796">
        <ele>764.87</ele>
        <time>2016-06-11T11:31:56Z</time>
      </trkpt>
      <trkpt lat="35.238745948299766" lon="24.073929553851485">
        <ele>764.87</ele>
        <time>2016-06-11T11:32:01Z</time>
      </trkpt>
      <trkpt lat="35.238757431507111" lon="24.073875239118934">
        <ele>765.35000000000002</ele>
        <time>2016-06-11T11:32:06Z</time>
      </trkpt>
      <trkpt lat="35.23879355750978" lon="24.073772057890892">
        <ele>766.30999999999995</ele>
        <time>2016-06-11T11:32:16Z</time>
      </trkpt>
      <trkpt lat="35.238823480904102" lon="24.073671391233802">
        <ele>767.26999999999998</ele>
        <time>2016-06-11T11:32:25Z</time>
      </trkpt>
      <trkpt lat="35.238898079842329" lon="24.073548763990402">
        <ele>768.71000000000004</ele>
        <time>2016-06-11T11:32:35Z</time>
      </trkpt>
      <trkpt lat="35.238953232765198" lon="24.073465615510941">
        <ele>769.66999999999996</ele>
        <time>2016-06-11T11:32:44Z</time>
      </trkpt>
      <trkpt lat="35.239011906087399" lon="24.073402667418122">
        <ele>771.60000000000002</ele>
        <time>2016-06-11T11:32:56Z</time>
      </trkpt>
      <trkpt lat="35.239037638530135" lon="24.073414653539658">
        <ele>772.55999999999995</ele>
        <time>2016-06-11T11:33:02Z</time>
      </trkpt>
      <trkpt lat="35.239028418436646" lon="24.07326964661479">
        <ele>772.55999999999995</ele>
        <time>2016-06-11T11:33:13Z</time>
      </trkpt>
      <trkpt lat="35.239039650186896" lon="24.073229245841503">
        <ele>773.03999999999996</ele>
        <time>2016-06-11T11:33:21Z</time>
      </trkpt>
      <trkpt lat="35.239142747595906" lon="24.073129082098603">
        <ele>774.96000000000004</ele>
        <time>2016-06-11T11:33:36Z</time>
      </trkpt>
      <trkpt lat="35.239191949367523" lon="24.073106283321977">
        <ele>775.91999999999996</ele>
        <time>2016-06-11T11:33:42Z</time>
      </trkpt>
      <trkpt lat="35.239354474470019" lon="24.073122544214129">
        <ele>777.36000000000001</ele>
        <time>2016-06-11T11:33:58Z</time>
      </trkpt>
      <trkpt lat="35.239497972652316" lon="24.073130507022142">
        <ele>778.32000000000005</ele>
        <time>2016-06-11T11:34:14Z</time>
      </trkpt>
      <trkpt lat="35.239506103098392" lon="24.073128579184413">
        <ele>778.32000000000005</ele>
        <time>2016-06-11T11:34:15Z</time>
      </trkpt>
      <trkpt lat="35.239642979577184" lon="24.073120951652527">
        <ele>779.28999999999996</ele>
        <time>2016-06-11T11:34:30Z</time>
      </trkpt>
      <trkpt lat="35.23979670368135" lon="24.073120448738337">
        <ele>781.69000000000005</ele>
        <time>2016-06-11T11:34:45Z</time>
      </trkpt>
      <trkpt lat="35.239846911281347" lon="24.073116090148687">
        <ele>781.69000000000005</ele>
        <time>2016-06-11T11:34:50Z</time>
      </trkpt>
      <trkpt lat="35.239893430843949" lon="24.07311474904418">
        <ele>782.16999999999996</ele>
        <time>2016-06-11T11:34:55Z</time>
      </trkpt>
      <trkpt lat="35.240038353949785" lon="24.073185576125979">
        <ele>785.52999999999997</ele>
        <time>2016-06-11T11:35:13Z</time>
      </trkpt>
      <trkpt lat="35.240051597356796" lon="24.073192197829485">
        <ele>785.04999999999995</ele>
        <time>2016-06-11T11:35:15Z</time>
      </trkpt>
      <trkpt lat="35.240109767764807" lon="24.073238968849182">
        <ele>784.57000000000005</ele>
        <time>2016-06-11T11:35:22Z</time>
      </trkpt>
      <trkpt lat="35.240233149379492" lon="24.073279872536659">
        <ele>786.98000000000002</ele>
        <time>2016-06-11T11:35:36Z</time>
      </trkpt>
      <trkpt lat="35.240240693092346" lon="24.073267634958029">
        <ele>787.46000000000004</ele>
        <time>2016-06-11T11:35:38Z</time>
      </trkpt>
      <trkpt lat="35.240278076380491" lon="24.073093207553029">
        <ele>789.86000000000001</ele>
        <time>2016-06-11T11:35:53Z</time>
      </trkpt>
      <trkpt lat="35.240301545709372" lon="24.07292079180479">
        <ele>791.29999999999995</ele>
        <time>2016-06-11T11:36:06Z</time>
      </trkpt>
      <trkpt lat="35.240311939269304" lon="24.072857927531004">
        <ele>791.29999999999995</ele>
        <time>2016-06-11T11:36:11Z</time>
      </trkpt>
      <trkpt lat="35.240314202383161" lon="24.072806714102626">
        <ele>791.77999999999997</ele>
        <time>2016-06-11T11:36:16Z</time>
      </trkpt>
      <trkpt lat="35.240336246788502" lon="24.072590880095959">
        <ele>792.74000000000001</ele>
        <time>2016-06-11T11:36:33Z</time>
      </trkpt>
      <trkpt lat="35.24036256596446" lon="24.072506558150053">
        <ele>793.71000000000004</ele>
        <time>2016-06-11T11:36:40Z</time>
      </trkpt>
      <trkpt lat="35.240373127162457" lon="24.072363646700978">
        <ele>794.66999999999996</ele>
        <time>2016-06-11T11:36:53Z</time>
      </trkpt>
      <trkpt lat="35.240383772179484" lon="24.072339674457908">
        <ele>795.14999999999998</ele>
        <time>2016-06-11T11:36:56Z</time>
      </trkpt>
      <trkpt lat="35.240402296185493" lon="24.072171114385128">
        <ele>797.07000000000005</ele>
        <time>2016-06-11T11:37:11Z</time>
      </trkpt>
      <trkpt lat="35.240435069426894" lon="24.07209643162787">
        <ele>798.02999999999997</ele>
        <time>2016-06-11T11:37:18Z</time>
      </trkpt>
      <trkpt lat="35.240583177655935" lon="24.0721086692065">
        <ele>800.91999999999996</ele>
        <time>2016-06-11T11:37:35Z</time>
      </trkpt>
      <trkpt lat="35.240721814334393" lon="24.072217382490635">
        <ele>803.79999999999995</ele>
        <time>2016-06-11T11:37:52Z</time>
      </trkpt>
      <trkpt lat="35.24088442325592" lon="24.072355851531029">
        <ele>803.79999999999995</ele>
        <time>2016-06-11T11:38:09Z</time>
      </trkpt>
      <trkpt lat="35.241012498736382" lon="24.07234663143754">
        <ele>806.67999999999995</ele>
        <time>2016-06-11T11:38:23Z</time>
      </trkpt>
      <trkpt lat="35.241036722436547" lon="24.072112357243896">
        <ele>808.61000000000001</ele>
        <time>2016-06-11T11:38:41Z</time>
      </trkpt>
      <trkpt lat="35.241024903953075" lon="24.071850506588817">
        <ele>810.04999999999995</ele>
        <time>2016-06-11T11:38:59Z</time>
      </trkpt>
      <trkpt lat="35.2410305198282" lon="24.07164154574275">
        <ele>811.49000000000001</ele>
        <time>2016-06-11T11:39:14Z</time>
      </trkpt>
      <trkpt lat="35.241022976115346" lon="24.071519337594509">
        <ele>813.40999999999997</ele>
        <time>2016-06-11T11:39:25Z</time>
      </trkpt>
      <trkpt lat="35.240959692746401" lon="24.071412552148104">
        <ele>812.92999999999995</ele>
        <time>2016-06-11T11:39:38Z</time>
      </trkpt>
    </trkseg>
  </trk>

</gpx>